Time,TemperatureF,DewpointF,PressureIn,WindDirection,WindDirectionDegrees,WindSpeedMPH,WindSpeedGustMPH,Humidity,HourlyPrecipIn,Conditions,Clouds,dailyrainin,SoftwareType,DateUTC
2013-05-07 00:00:00,57.7,56.0,29.95,NE,45,0.0,0.0,94,0.00,,---,0.00,VWS V14.01,2013-05-07 04:00:00,
2013-05-07 00:01:00,57.6,55.9,29.95,NE,45,0.0,1.0,94,0.00,,---,0.00,VWS V14.01,2013-05-07 04:01:00,
2013-05-07 00:02:00,57.6,55.9,29.95,NE,45,0.0,0.0,94,0.00,,---,0.00,VWS V14.01,2013-05-07 04:02:00,
2013-05-07 00:03:00,57.6,55.9,29.95,NE,45,0.0,1.0,94,0.00,,---,0.00,VWS V14.01,2013-05-07 04:03:00,
2013-05-07 00:04:00,57.6,55.9,29.95,NE,45,0.0,0.0,94,0.00,,---,0.00,VWS V14.01,2013-05-07 04:04:00,
2013-05-07 00:05:00,57.6,55.9,29.95,NE,45,0.0,1.0,94,0.00,,---,0.00,VWS V14.01,2013-05-07 04:05:00,
2013-05-07 00:06:00,57.6,55.9,29.95,NE,45,0.0,0.0,94,0.00,,---,0.00,VWS V14.01,2013-05-07 04:06:00,
2013-05-07 00:07:00,57.6,55.9,29.95,NE,45,0.0,0.0,94,0.00,,---,0.00,VWS V14.01,2013-05-07 04:07:00,
2013-05-07 00:08:00,57.6,55.9,29.95,NE,45,0.0,1.0,94,0.00,,---,0.00,VWS V14.01,2013-05-07 04:08:00,
2013-05-07 00:09:00,57.6,55.9,29.95,NE,45,0.0,1.0,94,0.00,,---,0.00,VWS V14.01,2013-05-07 04:09:00,
2013-05-07 00:10:00,57.6,55.9,29.95,NE,45,0.0,1.0,94,0.00,,---,0.00,VWS V14.01,2013-05-07 04:10:00,
2013-05-07 00:11:00,57.5,55.8,29.95,NE,45,0.0,0.0,94,0.00,,---,0.00,VWS V14.01,2013-05-07 04:11:00,
2013-05-07 00:12:00,57.5,55.8,29.95,ESE,112,1.0,5.0,94,0.00,,---,0.00,VWS V14.01,2013-05-07 04:12:00,
2013-05-07 00:13:00,57.5,55.8,29.95,NE,45,2.0,4.0,94,0.00,,---,0.00,VWS V14.01,2013-05-07 04:13:00,
2013-05-07 00:14:00,57.5,55.8,29.95,ESE,112,0.0,5.0,94,0.00,,---,0.00,VWS V14.01,2013-05-07 04:14:00,
2013-05-07 00:15:00,57.5,55.8,29.95,ESE,112,0.0,2.0,94,0.00,,---,0.00,VWS V14.01,2013-05-07 04:15:00,
2013-05-07 00:16:00,57.5,55.8,29.95,ESE,112,0.0,1.0,94,0.00,,---,0.00,VWS V14.01,2013-05-07 04:16:00,
2013-05-07 00:17:00,57.5,55.8,29.95,East,90,1.0,4.0,94,0.00,,---,0.00,VWS V14.01,2013-05-07 04:17:00,
2013-05-07 00:18:00,57.4,55.7,29.95,East,90,0.0,0.0,94,0.00,,---,0.00,VWS V14.01,2013-05-07 04:18:00,
2013-05-07 00:19:00,57.4,55.7,29.95,East,90,0.0,1.0,94,0.00,,---,0.00,VWS V14.01,2013-05-07 04:19:00,
2013-05-07 00:20:00,57.4,55.7,29.95,East,90,0.0,0.0,94,0.00,,---,0.00,VWS V14.01,2013-05-07 04:20:00,
2013-05-07 00:21:00,57.4,55.7,29.95,East,90,0.0,0.0,94,0.00,,---,0.00,VWS V14.01,2013-05-07 04:21:00,
2013-05-07 00:22:00,57.4,55.7,29.95,East,90,0.0,0.0,94,0.00,,---,0.00,VWS V14.01,2013-05-07 04:22:00,
2013-05-07 00:23:00,57.4,55.7,29.95,East,90,0.0,1.0,94,0.00,,---,0.00,VWS V14.01,2013-05-07 04:23:00,
2013-05-07 00:24:00,57.4,55.7,29.95,East,90,0.0,0.0,94,0.00,,---,0.00,VWS V14.01,2013-05-07 04:24:00,
2013-05-07 00:25:00,57.3,55.6,29.94,North,0,0.0,2.0,94,0.00,,---,0.00,VWS V14.01,2013-05-07 04:25:00,
2013-05-07 00:26:00,57.3,55.6,29.94,North,0,0.0,2.0,94,0.00,,---,0.00,VWS V14.01,2013-05-07 04:26:00,
2013-05-07 00:27:00,57.3,55.6,29.94,North,0,0.0,0.0,94,0.00,,---,0.00,VWS V14.01,2013-05-07 04:27:00,
2013-05-07 00:28:00,57.3,55.6,29.94,North,0,0.0,1.0,94,0.00,,---,0.00,VWS V14.01,2013-05-07 04:28:00,
2013-05-07 00:29:00,57.3,55.6,29.94,North,0,1.0,3.0,94,0.00,,---,0.00,VWS V14.01,2013-05-07 04:29:00,
2013-05-07 00:30:00,57.3,55.6,29.94,North,0,0.0,0.0,94,0.00,,---,0.00,VWS V14.01,2013-05-07 04:30:00,
2013-05-07 00:31:00,57.3,55.6,29.94,North,0,0.0,0.0,94,0.00,,---,0.00,VWS V14.01,2013-05-07 04:31:00,
2013-05-07 00:32:00,57.3,55.6,29.94,NNE,22,0.0,1.0,94,0.00,,---,0.00,VWS V14.01,2013-05-07 04:32:00,
2013-05-07 00:33:00,57.3,55.6,29.94,NNE,22,0.0,1.0,94,0.00,,---,0.00,VWS V14.01,2013-05-07 04:33:00,
2013-05-07 00:34:00,57.3,55.6,29.94,NNE,22,1.0,3.0,94,0.00,,---,0.00,VWS V14.01,2013-05-07 04:34:00,
2013-05-07 00:35:00,57.3,55.6,29.94,NNE,22,0.0,1.0,94,0.00,,---,0.00,VWS V14.01,2013-05-07 04:35:00,
2013-05-07 00:36:00,57.3,55.6,29.94,NE,45,1.0,2.0,94,0.00,,---,0.00,VWS V14.01,2013-05-07 04:36:00,
2013-05-07 00:37:00,57.3,55.6,29.94,NE,45,1.0,2.0,94,0.00,,---,0.00,VWS V14.01,2013-05-07 04:37:00,
2013-05-07 00:38:00,57.3,55.6,29.94,ENE,68,0.0,1.0,94,0.00,,---,0.00,VWS V14.01,2013-05-07 04:38:00,
2013-05-07 00:39:00,57.2,55.5,29.94,ENE,68,0.0,1.0,94,0.00,,---,0.00,VWS V14.01,2013-05-07 04:39:00,
2013-05-07 00:40:00,57.2,55.5,29.94,ENE,68,0.0,0.0,94,0.00,,---,0.00,VWS V14.01,2013-05-07 04:40:00,
2013-05-07 00:41:00,57.2,55.5,29.94,ENE,68,0.0,1.0,94,0.00,,---,0.00,VWS V14.01,2013-05-07 04:41:00,
2013-05-07 00:42:00,57.2,55.5,29.94,ENE,68,0.0,2.0,94,0.00,,---,0.00,VWS V14.01,2013-05-07 04:42:00,
2013-05-07 00:43:00,57.2,55.5,29.94,NNE,22,1.0,3.0,94,0.00,,---,0.00,VWS V14.01,2013-05-07 04:43:00,
2013-05-07 00:44:00,57.2,55.8,29.94,NNE,22,0.0,1.0,95,0.00,,---,0.00,VWS V14.01,2013-05-07 04:44:00,
2013-05-07 00:45:00,57.2,55.8,29.94,NE,45,0.0,1.0,95,0.00,,---,0.00,VWS V14.01,2013-05-07 04:45:00,
2013-05-07 00:46:00,57.2,55.8,29.94,NE,45,0.0,0.0,95,0.00,,---,0.00,VWS V14.01,2013-05-07 04:46:00,
2013-05-07 00:47:00,57.2,55.8,29.94,NE,45,0.0,0.0,95,0.00,,---,0.00,VWS V14.01,2013-05-07 04:47:00,
2013-05-07 00:48:00,57.2,55.8,29.94,NE,45,0.0,0.0,95,0.00,,---,0.00,VWS V14.01,2013-05-07 04:48:00,
2013-05-07 00:49:00,57.2,55.8,29.94,NE,45,0.0,0.0,95,0.00,,---,0.00,VWS V14.01,2013-05-07 04:49:00,
2013-05-07 00:50:00,57.2,55.8,29.94,NE,45,1.0,3.0,95,0.00,,---,0.00,VWS V14.01,2013-05-07 04:50:00,
2013-05-07 00:51:00,57.2,55.8,29.94,ENE,68,1.0,2.0,95,0.00,,---,0.00,VWS V14.01,2013-05-07 04:51:00,
2013-05-07 00:52:00,57.2,55.8,29.94,NE,45,0.0,2.0,95,0.00,,---,0.00,VWS V14.01,2013-05-07 04:52:00,
2013-05-07 00:53:00,57.2,55.8,29.94,NE,45,0.0,1.0,95,0.00,,---,0.00,VWS V14.01,2013-05-07 04:53:00,
2013-05-07 00:54:00,57.2,55.8,29.94,NE,45,1.0,3.0,95,0.00,,---,0.00,VWS V14.01,2013-05-07 04:54:00,
2013-05-07 00:55:00,57.2,55.8,29.94,NE,45,0.0,2.0,95,0.00,,---,0.00,VWS V14.01,2013-05-07 04:55:00,
2013-05-07 00:56:00,57.2,55.8,29.94,NE,45,0.0,0.0,95,0.00,,---,0.00,VWS V14.01,2013-05-07 04:56:00,
2013-05-07 00:57:00,57.2,55.8,29.94,NE,45,0.0,1.0,95,0.00,,---,0.00,VWS V14.01,2013-05-07 04:57:00,
2013-05-07 00:58:00,57.1,55.7,29.94,NE,45,0.0,2.0,95,0.00,,---,0.00,VWS V14.01,2013-05-07 04:58:00,
2013-05-07 00:59:00,57.1,55.7,29.94,NE,45,0.0,1.0,95,0.00,,---,0.00,VWS V14.01,2013-05-07 04:59:00,
2013-05-07 01:00:00,57.1,55.7,29.94,NE,45,0.0,0.0,95,0.00,,---,0.00,VWS V14.01,2013-05-07 05:00:00,
2013-05-07 01:01:00,57.1,55.7,29.94,NE,45,0.0,1.0,95,0.00,,---,0.00,VWS V14.01,2013-05-07 05:01:00,
2013-05-07 01:02:00,57.1,55.7,29.94,NE,45,0.0,0.0,95,0.00,,---,0.00,VWS V14.01,2013-05-07 05:02:00,
2013-05-07 01:03:00,57.1,55.7,29.94,NE,45,0.0,0.0,95,0.00,,---,0.00,VWS V14.01,2013-05-07 05:03:00,
2013-05-07 01:04:00,57.1,55.7,29.94,NE,45,0.0,0.0,95,0.00,,---,0.00,VWS V14.01,2013-05-07 05:04:00,
2013-05-07 01:05:00,57.1,55.7,29.94,NE,45,0.0,1.0,95,0.00,,---,0.00,VWS V14.01,2013-05-07 05:05:00,
2013-05-07 01:06:00,57.1,55.7,29.94,NE,45,1.0,3.0,95,0.00,,---,0.00,VWS V14.01,2013-05-07 05:06:00,
2013-05-07 01:07:00,57.1,55.7,29.94,NE,45,0.0,2.0,95,0.00,,---,0.00,VWS V14.01,2013-05-07 05:07:00,
2013-05-07 01:08:00,57.1,55.7,29.94,NE,45,0.0,1.0,95,0.00,,---,0.00,VWS V14.01,2013-05-07 05:08:00,
2013-05-07 01:09:00,57.1,55.7,29.94,NNE,22,0.0,2.0,95,0.00,,---,0.00,VWS V14.01,2013-05-07 05:09:00,
2013-05-07 01:10:00,57.1,55.7,29.94,NNE,22,0.0,1.0,95,0.00,,---,0.00,VWS V14.01,2013-05-07 05:10:00,
2013-05-07 01:11:00,57.1,55.7,29.94,NNE,22,1.0,2.0,95,0.01,,---,0.01,VWS V14.01,2013-05-07 05:11:00,
2013-05-07 01:12:00,57.1,55.7,29.94,NNE,22,0.0,0.0,95,0.01,,---,0.01,VWS V14.01,2013-05-07 05:12:00,
2013-05-07 01:13:00,57.1,55.7,29.94,NE,45,0.0,2.0,95,0.01,,---,0.01,VWS V14.01,2013-05-07 05:13:00,
2013-05-07 01:14:00,57.1,55.7,29.94,NE,45,0.0,2.0,95,0.01,,---,0.01,VWS V14.01,2013-05-07 05:14:00,
2013-05-07 01:15:00,57.1,55.7,29.94,NE,45,0.0,0.0,95,0.01,,---,0.01,VWS V14.01,2013-05-07 05:15:00,
2013-05-07 01:16:00,57.1,55.7,29.93,NE,45,0.0,1.0,95,0.01,,---,0.01,VWS V14.01,2013-05-07 05:16:00,
2013-05-07 01:17:00,57.1,55.7,29.93,NE,45,0.0,0.0,95,0.01,,---,0.01,VWS V14.01,2013-05-07 05:17:00,
2013-05-07 01:18:00,57.1,55.7,29.94,NE,45,0.0,0.0,95,0.01,,---,0.01,VWS V14.01,2013-05-07 05:18:00,
2013-05-07 01:19:00,57.1,55.7,29.94,NE,45,0.0,0.0,95,0.01,,---,0.01,VWS V14.01,2013-05-07 05:19:00,
2013-05-07 01:20:00,57.1,55.7,29.93,NE,45,1.0,2.0,95,0.01,,---,0.01,VWS V14.01,2013-05-07 05:20:00,
2013-05-07 01:21:00,57.1,55.7,29.94,NE,45,0.0,1.0,95,0.01,,---,0.01,VWS V14.01,2013-05-07 05:21:00,
2013-05-07 01:22:00,57.1,55.7,29.94,NE,45,0.0,0.0,95,0.01,,---,0.01,VWS V14.01,2013-05-07 05:22:00,
2013-05-07 01:23:00,57.1,55.7,29.93,NE,45,0.0,0.0,95,0.01,,---,0.01,VWS V14.01,2013-05-07 05:23:00,
2013-05-07 01:24:00,57.1,55.7,29.94,NE,45,0.0,0.0,95,0.01,,---,0.01,VWS V14.01,2013-05-07 05:24:00,
2013-05-07 01:25:00,57.1,55.7,29.94,NE,45,0.0,1.0,95,0.01,,---,0.01,VWS V14.01,2013-05-07 05:25:00,
2013-05-07 01:26:00,57.1,55.7,29.94,NE,45,0.0,0.0,95,0.01,,---,0.01,VWS V14.01,2013-05-07 05:26:00,
2013-05-07 01:27:00,57.1,55.7,29.94,NE,45,1.0,4.0,95,0.01,,---,0.01,VWS V14.01,2013-05-07 05:27:00,
2013-05-07 01:28:00,57.1,55.7,29.94,North,0,0.0,1.0,95,0.01,,---,0.01,VWS V14.01,2013-05-07 05:28:00,
2013-05-07 01:29:00,57.1,55.7,29.94,East,90,1.0,2.0,95,0.01,,---,0.01,VWS V14.01,2013-05-07 05:29:00,
2013-05-07 01:30:00,57.1,55.7,29.94,East,90,0.0,0.0,95,0.01,,---,0.01,VWS V14.01,2013-05-07 05:30:00,
2013-05-07 01:31:00,57.1,55.7,29.94,ENE,68,0.0,1.0,95,0.01,,---,0.01,VWS V14.01,2013-05-07 05:31:00,
2013-05-07 01:32:00,57.1,55.7,29.94,ENE,68,0.0,0.0,95,0.01,,---,0.01,VWS V14.01,2013-05-07 05:32:00,
2013-05-07 01:33:00,57.1,55.7,29.94,ENE,68,0.0,1.0,95,0.01,,---,0.01,VWS V14.01,2013-05-07 05:33:00,
2013-05-07 01:34:00,57.1,55.7,29.94,ENE,68,0.0,1.0,95,0.01,,---,0.01,VWS V14.01,2013-05-07 05:34:00,
2013-05-07 01:35:00,57.1,55.7,29.93,East,90,1.0,3.0,95,0.01,,---,0.01,VWS V14.01,2013-05-07 05:35:00,
2013-05-07 01:36:00,57.1,55.7,29.93,East,90,0.0,0.0,95,0.01,,---,0.01,VWS V14.01,2013-05-07 05:36:00,
2013-05-07 01:37:00,57.1,55.7,29.94,ENE,68,1.0,5.0,95,0.01,,---,0.01,VWS V14.01,2013-05-07 05:37:00,
2013-05-07 01:38:00,57.0,55.6,29.93,NNE,22,1.0,3.0,95,0.01,,---,0.01,VWS V14.01,2013-05-07 05:38:00,
2013-05-07 01:39:00,57.0,55.6,29.94,NNE,22,0.0,0.0,95,0.01,,---,0.01,VWS V14.01,2013-05-07 05:39:00,
2013-05-07 01:40:00,57.0,55.6,29.94,East,90,1.0,3.0,95,0.01,,---,0.01,VWS V14.01,2013-05-07 05:40:00,
2013-05-07 01:41:00,57.0,55.6,29.94,ENE,68,0.0,1.0,95,0.01,,---,0.01,VWS V14.01,2013-05-07 05:41:00,
2013-05-07 01:42:00,57.0,55.6,29.94,NNE,22,0.0,1.0,95,0.01,,---,0.01,VWS V14.01,2013-05-07 05:42:00,
2013-05-07 01:43:00,57.0,55.6,29.94,East,90,0.0,2.0,95,0.01,,---,0.01,VWS V14.01,2013-05-07 05:43:00,
2013-05-07 01:44:00,57.0,55.6,29.94,East,90,0.0,1.0,95,0.01,,---,0.01,VWS V14.01,2013-05-07 05:44:00,
2013-05-07 01:45:00,57.0,55.6,29.94,NE,45,1.0,3.0,95,0.01,,---,0.01,VWS V14.01,2013-05-07 05:45:00,
2013-05-07 01:46:00,57.0,55.6,29.93,NE,45,0.0,1.0,95,0.01,,---,0.01,VWS V14.01,2013-05-07 05:46:00,
2013-05-07 01:47:00,57.0,55.6,29.93,ENE,68,0.0,2.0,95,0.01,,---,0.01,VWS V14.01,2013-05-07 05:47:00,
2013-05-07 01:48:00,57.0,55.6,29.93,NNE,22,1.0,4.0,95,0.01,,---,0.01,VWS V14.01,2013-05-07 05:48:00,
2013-05-07 01:49:00,56.9,55.5,29.93,North,0,1.0,3.0,95,0.01,,---,0.01,VWS V14.01,2013-05-07 05:49:00,
2013-05-07 01:50:00,56.9,55.5,29.93,NE,45,1.0,5.0,95,0.01,,---,0.01,VWS V14.01,2013-05-07 05:50:00,
2013-05-07 01:51:00,56.9,55.5,29.93,NE,45,2.0,5.0,95,0.01,,---,0.01,VWS V14.01,2013-05-07 05:51:00,
2013-05-07 01:52:00,56.9,55.5,29.93,East,90,0.0,3.0,95,0.01,,---,0.01,VWS V14.01,2013-05-07 05:52:00,
2013-05-07 01:53:00,56.9,55.5,29.93,NE,45,1.0,3.0,95,0.01,,---,0.01,VWS V14.01,2013-05-07 05:53:00,
2013-05-07 01:54:00,56.9,55.5,29.93,NE,45,0.0,0.0,95,0.01,,---,0.01,VWS V14.01,2013-05-07 05:54:00,
2013-05-07 01:55:00,56.9,55.5,29.93,NE,45,0.0,1.0,95,0.01,,---,0.01,VWS V14.01,2013-05-07 05:55:00,
2013-05-07 01:56:00,56.9,55.5,29.93,NNE,22,0.0,1.0,95,0.01,,---,0.01,VWS V14.01,2013-05-07 05:56:00,
2013-05-07 01:57:00,56.9,55.5,29.93,NNE,22,0.0,0.0,95,0.01,,---,0.01,VWS V14.01,2013-05-07 05:57:00,
2013-05-07 01:58:00,56.9,55.5,29.93,NNE,22,0.0,0.0,95,0.01,,---,0.01,VWS V14.01,2013-05-07 05:58:00,
2013-05-07 01:59:00,56.9,55.5,29.93,NE,45,0.0,1.0,95,0.01,,---,0.01,VWS V14.01,2013-05-07 05:59:00,
2013-05-07 02:00:00,56.9,55.5,29.93,NE,45,0.0,1.0,95,0.01,,---,0.01,VWS V14.01,2013-05-07 06:00:00,
2013-05-07 02:01:00,56.9,55.5,29.93,NE,45,0.0,0.0,95,0.01,,---,0.01,VWS V14.01,2013-05-07 06:01:00,
2013-05-07 02:02:00,56.9,55.5,29.93,NE,45,0.0,0.0,95,0.01,,---,0.01,VWS V14.01,2013-05-07 06:02:00,
2013-05-07 02:03:00,56.8,55.4,29.93,NE,45,0.0,0.0,95,0.01,,---,0.01,VWS V14.01,2013-05-07 06:03:00,
2013-05-07 02:04:00,56.9,55.5,29.93,NE,45,0.0,0.0,95,0.01,,---,0.01,VWS V14.01,2013-05-07 06:04:00,
2013-05-07 02:05:00,56.8,55.4,29.93,NE,45,0.0,0.0,95,0.01,,---,0.01,VWS V14.01,2013-05-07 06:05:00,
2013-05-07 02:06:00,56.8,55.4,29.93,NE,45,0.0,0.0,95,0.01,,---,0.01,VWS V14.01,2013-05-07 06:06:00,
2013-05-07 02:07:00,56.8,55.4,29.92,NE,45,0.0,0.0,95,0.01,,---,0.01,VWS V14.01,2013-05-07 06:07:00,
2013-05-07 02:08:00,56.8,55.4,29.92,NE,45,0.0,0.0,95,0.01,,---,0.01,VWS V14.01,2013-05-07 06:08:00,
2013-05-07 02:09:00,56.8,55.4,29.92,NE,45,0.0,1.0,95,0.01,,---,0.01,VWS V14.01,2013-05-07 06:09:00,
2013-05-07 02:10:00,56.8,55.4,29.92,NE,45,0.0,0.0,95,0.01,,---,0.01,VWS V14.01,2013-05-07 06:10:00,
2013-05-07 02:11:00,56.8,55.4,29.92,NE,45,0.0,0.0,95,0.01,,---,0.01,VWS V14.01,2013-05-07 06:11:00,
2013-05-07 02:12:00,56.8,55.4,29.92,NE,45,0.0,0.0,95,0.00,,---,0.01,VWS V14.01,2013-05-07 06:12:00,
2013-05-07 02:13:00,56.7,55.3,29.92,NE,45,0.0,1.0,95,0.00,,---,0.01,VWS V14.01,2013-05-07 06:13:00,
2013-05-07 02:14:00,56.7,55.3,29.92,NE,45,0.0,0.0,95,0.00,,---,0.01,VWS V14.01,2013-05-07 06:14:00,
2013-05-07 02:15:00,56.7,55.3,29.92,NE,45,0.0,2.0,95,0.00,,---,0.01,VWS V14.01,2013-05-07 06:15:00,
2013-05-07 02:16:00,56.7,55.3,29.92,NE,45,0.0,2.0,95,0.00,,---,0.01,VWS V14.01,2013-05-07 06:16:00,
2013-05-07 02:17:00,56.7,55.3,29.92,NE,45,0.0,1.0,95,0.00,,---,0.01,VWS V14.01,2013-05-07 06:17:00,
2013-05-07 02:18:00,56.7,55.3,29.92,East,90,0.0,2.0,95,0.00,,---,0.01,VWS V14.01,2013-05-07 06:18:00,
2013-05-07 02:19:00,56.7,55.3,29.92,East,90,0.0,1.0,95,0.00,,---,0.01,VWS V14.01,2013-05-07 06:19:00,
2013-05-07 02:20:00,56.7,55.3,29.93,East,90,0.0,0.0,95,0.00,,---,0.01,VWS V14.01,2013-05-07 06:20:00,
2013-05-07 02:21:00,56.6,55.2,29.93,East,90,0.0,1.0,95,0.00,,---,0.01,VWS V14.01,2013-05-07 06:21:00,
2013-05-07 02:22:00,56.6,55.2,29.92,NE,45,0.0,1.0,95,0.00,,---,0.01,VWS V14.01,2013-05-07 06:22:00,
2013-05-07 02:23:00,56.6,55.2,29.92,East,90,1.0,3.0,95,0.00,,---,0.01,VWS V14.01,2013-05-07 06:23:00,
2013-05-07 02:24:00,56.6,55.2,29.92,East,90,0.0,0.0,95,0.00,,---,0.01,VWS V14.01,2013-05-07 06:24:00,
2013-05-07 02:25:00,56.6,55.2,29.92,ENE,68,0.0,2.0,95,0.00,,---,0.01,VWS V14.01,2013-05-07 06:25:00,
2013-05-07 02:26:00,56.6,55.2,29.92,ENE,68,0.0,1.0,95,0.00,,---,0.01,VWS V14.01,2013-05-07 06:26:00,
2013-05-07 02:27:00,56.6,55.2,29.92,ENE,68,2.0,3.0,95,0.00,,---,0.01,VWS V14.01,2013-05-07 06:27:00,
2013-05-07 02:28:00,56.6,55.2,29.92,ENE,68,0.0,0.0,95,0.00,,---,0.01,VWS V14.01,2013-05-07 06:28:00,
2013-05-07 02:29:00,56.5,55.1,29.92,NE,45,0.0,1.0,95,0.00,,---,0.01,VWS V14.01,2013-05-07 06:29:00,
2013-05-07 02:30:00,56.5,55.1,29.92,NE,45,0.0,2.0,95,0.00,,---,0.01,VWS V14.01,2013-05-07 06:30:00,
2013-05-07 02:31:00,56.5,55.1,29.92,NE,45,0.0,1.0,95,0.00,,---,0.01,VWS V14.01,2013-05-07 06:31:00,
2013-05-07 02:32:00,56.5,55.1,29.92,NE,45,0.0,2.0,95,0.00,,---,0.01,VWS V14.01,2013-05-07 06:32:00,
2013-05-07 02:33:00,56.5,55.1,29.92,NE,45,0.0,1.0,95,0.00,,---,0.01,VWS V14.01,2013-05-07 06:33:00,
2013-05-07 02:34:00,56.5,55.1,29.92,NE,45,0.0,0.0,95,0.00,,---,0.01,VWS V14.01,2013-05-07 06:34:00,
2013-05-07 02:35:00,56.5,55.1,29.92,NE,45,0.0,1.0,95,0.00,,---,0.01,VWS V14.01,2013-05-07 06:35:00,
2013-05-07 02:36:00,56.5,55.1,29.92,NE,45,0.0,0.0,95,0.00,,---,0.01,VWS V14.01,2013-05-07 06:36:00,
2013-05-07 02:37:00,56.5,55.1,29.92,NE,45,1.0,3.0,95,0.00,,---,0.01,VWS V14.01,2013-05-07 06:37:00,
2013-05-07 02:38:00,56.5,55.1,29.92,NE,45,0.0,1.0,95,0.00,,---,0.01,VWS V14.01,2013-05-07 06:38:00,
2013-05-07 02:39:00,56.5,55.1,29.92,ENE,68,0.0,1.0,95,0.00,,---,0.01,VWS V14.01,2013-05-07 06:39:00,
2013-05-07 02:40:00,56.5,55.1,29.92,NNE,22,2.0,4.0,95,0.00,,---,0.01,VWS V14.01,2013-05-07 06:40:00,
2013-05-07 02:41:00,56.5,55.1,29.92,ENE,68,0.0,1.0,95,0.00,,---,0.01,VWS V14.01,2013-05-07 06:41:00,
2013-05-07 02:42:00,56.5,55.1,29.92,ENE,68,0.0,0.0,95,0.00,,---,0.01,VWS V14.01,2013-05-07 06:42:00,
2013-05-07 02:43:00,56.5,55.1,29.92,ENE,68,0.0,1.0,95,0.00,,---,0.01,VWS V14.01,2013-05-07 06:43:00,
2013-05-07 02:44:00,56.5,55.1,29.92,ENE,68,0.0,0.0,95,0.00,,---,0.01,VWS V14.01,2013-05-07 06:44:00,
2013-05-07 02:45:00,56.5,55.1,29.92,NE,45,0.0,1.0,95,0.00,,---,0.01,VWS V14.01,2013-05-07 06:45:00,
2013-05-07 02:46:00,56.5,55.1,29.92,NE,45,0.0,1.0,95,0.00,,---,0.01,VWS V14.01,2013-05-07 06:46:00,
2013-05-07 02:47:00,56.5,55.1,29.92,NE,45,0.0,0.0,95,0.00,,---,0.01,VWS V14.01,2013-05-07 06:47:00,
2013-05-07 02:48:00,56.5,55.1,29.92,NNE,22,1.0,3.0,95,0.00,,---,0.01,VWS V14.01,2013-05-07 06:48:00,
2013-05-07 02:49:00,56.5,55.1,29.92,NE,45,0.0,3.0,95,0.00,,---,0.01,VWS V14.01,2013-05-07 06:49:00,
2013-05-07 02:50:00,56.5,55.1,29.92,NNE,22,1.0,3.0,95,0.00,,---,0.01,VWS V14.01,2013-05-07 06:50:00,
2013-05-07 02:51:00,56.5,55.1,29.92,NNE,22,1.0,3.0,95,0.00,,---,0.01,VWS V14.01,2013-05-07 06:51:00,
2013-05-07 02:52:00,56.5,55.1,29.92,NNE,22,0.0,0.0,95,0.00,,---,0.01,VWS V14.01,2013-05-07 06:52:00,
2013-05-07 02:53:00,56.5,55.1,29.92,East,90,0.0,2.0,95,0.00,,---,0.01,VWS V14.01,2013-05-07 06:53:00,
2013-05-07 02:54:00,56.5,55.1,29.92,ENE,68,0.0,1.0,95,0.00,,---,0.01,VWS V14.01,2013-05-07 06:54:00,
2013-05-07 02:55:00,56.5,55.1,29.92,ENE,68,0.0,0.0,95,0.00,,---,0.01,VWS V14.01,2013-05-07 06:55:00,
2013-05-07 02:56:00,56.5,55.1,29.92,ENE,68,1.0,3.0,95,0.00,,---,0.01,VWS V14.01,2013-05-07 06:56:00,
2013-05-07 02:57:00,56.5,55.1,29.92,ENE,68,0.0,0.0,95,0.00,,---,0.01,VWS V14.01,2013-05-07 06:57:00,
2013-05-07 02:58:00,56.5,55.1,29.92,North,0,1.0,4.0,95,0.00,,---,0.01,VWS V14.01,2013-05-07 06:58:00,
2013-05-07 02:59:00,56.5,55.1,29.92,NE,45,0.0,1.0,95,0.00,,---,0.01,VWS V14.01,2013-05-07 06:59:00,
2013-05-07 03:00:00,56.5,55.1,29.92,ENE,68,0.0,2.0,95,0.00,,---,0.01,VWS V14.01,2013-05-07 07:00:00,
2013-05-07 03:01:00,56.5,55.1,29.92,NE,45,0.0,1.0,95,0.00,,---,0.01,VWS V14.01,2013-05-07 07:01:00,
2013-05-07 03:02:00,56.5,55.1,29.92,NE,45,0.0,0.0,95,0.00,,---,0.01,VWS V14.01,2013-05-07 07:02:00,
2013-05-07 03:03:00,56.5,55.1,29.92,NE,45,0.0,1.0,95,0.00,,---,0.01,VWS V14.01,2013-05-07 07:03:00,
2013-05-07 03:04:00,56.5,55.1,29.92,NE,45,0.0,1.0,95,0.00,,---,0.01,VWS V14.01,2013-05-07 07:04:00,
2013-05-07 03:05:00,56.5,55.1,29.92,North,0,1.0,3.0,95,0.00,,---,0.01,VWS V14.01,2013-05-07 07:05:00,
2013-05-07 03:06:00,56.5,55.1,29.92,ENE,68,1.0,2.0,95,0.00,,---,0.01,VWS V14.01,2013-05-07 07:06:00,
2013-05-07 03:07:00,56.5,55.1,29.92,ENE,68,0.0,1.0,95,0.00,,---,0.01,VWS V14.01,2013-05-07 07:07:00,
2013-05-07 03:08:00,56.5,55.1,29.92,ENE,68,0.0,0.0,95,0.00,,---,0.01,VWS V14.01,2013-05-07 07:08:00,
2013-05-07 03:09:00,56.5,55.1,29.92,North,0,1.0,3.0,95,0.00,,---,0.01,VWS V14.01,2013-05-07 07:09:00,
2013-05-07 03:10:00,56.5,55.1,29.92,North,0,0.0,0.0,95,0.00,,---,0.01,VWS V14.01,2013-05-07 07:10:00,
2013-05-07 03:11:00,56.5,55.1,29.92,NE,45,0.0,2.0,95,0.00,,---,0.01,VWS V14.01,2013-05-07 07:11:00,
2013-05-07 03:12:00,56.5,55.1,29.92,NE,45,0.0,2.0,95,0.00,,---,0.01,VWS V14.01,2013-05-07 07:12:00,
2013-05-07 03:13:00,56.5,55.1,29.92,NE,45,1.0,2.0,95,0.00,,---,0.01,VWS V14.01,2013-05-07 07:13:00,
2013-05-07 03:14:00,56.5,55.1,29.92,NE,45,1.0,3.0,95,0.00,,---,0.01,VWS V14.01,2013-05-07 07:14:00,
2013-05-07 03:15:00,56.5,55.1,29.92,NNE,22,1.0,4.0,95,0.00,,---,0.01,VWS V14.01,2013-05-07 07:15:00,
2013-05-07 03:16:00,56.5,55.1,29.92,NNE,22,1.0,4.0,95,0.00,,---,0.01,VWS V14.01,2013-05-07 07:16:00,
2013-05-07 03:17:00,56.5,55.1,29.92,NNE,22,0.0,0.0,95,0.00,,---,0.01,VWS V14.01,2013-05-07 07:17:00,
2013-05-07 03:18:00,56.5,55.4,29.92,NNE,22,0.0,0.0,96,0.00,,---,0.01,VWS V14.01,2013-05-07 07:18:00,
2013-05-07 03:19:00,56.5,55.4,29.92,East,90,1.0,3.0,96,0.00,,---,0.01,VWS V14.01,2013-05-07 07:19:00,
2013-05-07 03:20:00,56.5,55.1,29.92,East,90,0.0,1.0,95,0.00,,---,0.01,VWS V14.01,2013-05-07 07:20:00,
2013-05-07 03:21:00,56.4,55.0,29.92,ENE,68,1.0,3.0,95,0.00,,---,0.01,VWS V14.01,2013-05-07 07:21:00,
2013-05-07 03:22:00,56.4,55.0,29.92,ENE,68,2.0,4.0,95,0.00,,---,0.01,VWS V14.01,2013-05-07 07:22:00,
2013-05-07 03:23:00,56.4,55.3,29.92,NE,45,0.0,2.0,96,0.00,,---,0.01,VWS V14.01,2013-05-07 07:23:00,
2013-05-07 03:24:00,56.4,55.0,29.92,NE,45,0.0,1.0,95,0.00,,---,0.01,VWS V14.01,2013-05-07 07:24:00,
2013-05-07 03:25:00,56.4,55.0,29.92,NE,45,0.0,0.0,95,0.00,,---,0.01,VWS V14.01,2013-05-07 07:25:00,
2013-05-07 03:26:00,56.4,55.0,29.92,NE,45,0.0,0.0,95,0.00,,---,0.01,VWS V14.01,2013-05-07 07:26:00,
2013-05-07 03:27:00,56.4,55.0,29.92,NE,45,0.0,1.0,95,0.00,,---,0.01,VWS V14.01,2013-05-07 07:27:00,
2013-05-07 03:28:00,56.4,55.0,29.92,NE,45,0.0,0.0,95,0.00,,---,0.01,VWS V14.01,2013-05-07 07:28:00,
2013-05-07 03:29:00,56.4,55.0,29.92,ENE,68,1.0,3.0,95,0.00,,---,0.01,VWS V14.01,2013-05-07 07:29:00,
2013-05-07 03:30:00,56.4,55.0,29.92,ENE,68,0.0,1.0,95,0.00,,---,0.01,VWS V14.01,2013-05-07 07:30:00,
2013-05-07 03:31:00,56.4,55.0,29.92,ENE,68,0.0,0.0,95,0.00,,---,0.01,VWS V14.01,2013-05-07 07:31:00,
2013-05-07 03:32:00,56.4,55.0,29.92,ENE,68,0.0,0.0,95,0.00,,---,0.01,VWS V14.01,2013-05-07 07:32:00,
2013-05-07 03:33:00,56.4,55.0,29.92,ENE,68,0.0,0.0,95,0.00,,---,0.01,VWS V14.01,2013-05-07 07:33:00,
2013-05-07 03:34:00,56.4,55.0,29.93,ENE,68,0.0,0.0,95,0.00,,---,0.01,VWS V14.01,2013-05-07 07:34:00,
2013-05-07 03:35:00,56.4,55.0,29.93,ENE,68,0.0,0.0,95,0.00,,---,0.01,VWS V14.01,2013-05-07 07:35:00,
2013-05-07 03:36:00,56.4,55.0,29.93,ENE,68,0.0,1.0,95,0.00,,---,0.01,VWS V14.01,2013-05-07 07:36:00,
2013-05-07 03:37:00,56.4,55.0,29.93,ENE,68,0.0,1.0,95,0.00,,---,0.01,VWS V14.01,2013-05-07 07:37:00,
2013-05-07 03:38:00,56.4,55.0,29.93,ENE,68,2.0,4.0,95,0.00,,---,0.01,VWS V14.01,2013-05-07 07:38:00,
2013-05-07 03:39:00,56.4,55.0,29.93,ENE,68,0.0,1.0,95,0.00,,---,0.01,VWS V14.01,2013-05-07 07:39:00,
2013-05-07 03:40:00,56.3,54.9,29.93,ENE,68,1.0,2.0,95,0.00,,---,0.01,VWS V14.01,2013-05-07 07:40:00,
2013-05-07 03:41:00,56.4,55.0,29.93,ENE,68,0.0,0.0,95,0.00,,---,0.01,VWS V14.01,2013-05-07 07:41:00,
2013-05-07 03:42:00,56.4,55.0,29.93,ENE,68,0.0,1.0,95,0.00,,---,0.01,VWS V14.01,2013-05-07 07:42:00,
2013-05-07 03:43:00,56.4,55.0,29.93,ENE,68,0.0,0.0,95,0.00,,---,0.01,VWS V14.01,2013-05-07 07:43:00,
2013-05-07 03:44:00,56.3,54.9,29.92,ENE,68,0.0,0.0,95,0.00,,---,0.01,VWS V14.01,2013-05-07 07:44:00,
2013-05-07 03:45:00,56.3,54.9,29.93,ENE,68,0.0,0.0,95,0.00,,---,0.01,VWS V14.01,2013-05-07 07:45:00,
2013-05-07 03:46:00,56.3,54.9,29.92,ENE,68,0.0,1.0,95,0.00,,---,0.01,VWS V14.01,2013-05-07 07:46:00,
2013-05-07 03:47:00,56.3,54.9,29.92,ENE,68,0.0,1.0,95,0.00,,---,0.01,VWS V14.01,2013-05-07 07:47:00,
2013-05-07 03:48:00,56.3,54.9,29.92,ENE,68,0.0,1.0,95,0.00,,---,0.01,VWS V14.01,2013-05-07 07:48:00,
2013-05-07 03:49:00,56.3,54.9,29.92,ENE,68,0.0,0.0,95,0.00,,---,0.01,VWS V14.01,2013-05-07 07:49:00,
2013-05-07 03:50:00,56.3,54.9,29.93,East,90,1.0,3.0,95,0.00,,---,0.01,VWS V14.01,2013-05-07 07:50:00,
2013-05-07 03:51:00,56.3,54.9,29.93,East,90,0.0,0.0,95,0.00,,---,0.01,VWS V14.01,2013-05-07 07:51:00,
2013-05-07 03:52:00,56.3,54.9,29.92,East,90,0.0,0.0,95,0.00,,---,0.01,VWS V14.01,2013-05-07 07:52:00,
2013-05-07 03:53:00,56.3,54.9,29.92,East,90,0.0,2.0,95,0.00,,---,0.01,VWS V14.01,2013-05-07 07:53:00,
2013-05-07 03:54:00,56.3,54.9,29.92,East,90,0.0,1.0,95,0.00,,---,0.01,VWS V14.01,2013-05-07 07:54:00,
2013-05-07 03:55:00,56.3,54.9,29.92,East,90,0.0,1.0,95,0.00,,---,0.01,VWS V14.01,2013-05-07 07:55:00,
2013-05-07 03:56:00,56.3,54.9,29.92,NE,45,0.0,2.0,95,0.00,,---,0.01,VWS V14.01,2013-05-07 07:56:00,
2013-05-07 03:57:00,56.3,54.9,29.92,NE,45,0.0,2.0,95,0.00,,---,0.01,VWS V14.01,2013-05-07 07:57:00,
2013-05-07 03:58:00,56.3,54.9,29.92,NE,45,0.0,0.0,95,0.00,,---,0.01,VWS V14.01,2013-05-07 07:58:00,
2013-05-07 03:59:00,56.3,54.9,29.92,NE,45,0.0,0.0,95,0.00,,---,0.01,VWS V14.01,2013-05-07 07:59:00,
2013-05-07 04:00:00,56.3,54.9,29.93,NE,45,0.0,1.0,95,0.00,,---,0.01,VWS V14.01,2013-05-07 08:00:00,
2013-05-07 04:01:00,56.3,54.9,29.92,NE,45,0.0,0.0,95,0.00,,---,0.01,VWS V14.01,2013-05-07 08:01:00,
2013-05-07 04:02:00,56.3,54.9,29.92,NE,45,0.0,0.0,95,0.00,,---,0.01,VWS V14.01,2013-05-07 08:02:00,
2013-05-07 04:03:00,56.3,54.9,29.92,NE,45,0.0,0.0,95,0.00,,---,0.01,VWS V14.01,2013-05-07 08:03:00,
2013-05-07 04:04:00,56.3,54.9,29.92,NE,45,0.0,0.0,95,0.00,,---,0.01,VWS V14.01,2013-05-07 08:04:00,
2013-05-07 04:05:00,56.2,54.8,29.92,NE,45,0.0,0.0,95,0.00,,---,0.01,VWS V14.01,2013-05-07 08:05:00,
2013-05-07 04:06:00,56.2,54.8,29.92,NE,45,0.0,0.0,95,0.00,,---,0.01,VWS V14.01,2013-05-07 08:06:00,
2013-05-07 04:07:00,56.2,54.8,29.93,NE,45,0.0,1.0,95,0.00,,---,0.01,VWS V14.01,2013-05-07 08:07:00,
2013-05-07 04:08:00,56.2,54.8,29.93,NE,45,0.0,0.0,95,0.00,,---,0.01,VWS V14.01,2013-05-07 08:08:00,
2013-05-07 04:09:00,56.2,54.8,29.93,ENE,68,0.0,1.0,95,0.00,,---,0.01,VWS V14.01,2013-05-07 08:09:00,
2013-05-07 04:10:00,56.2,54.8,29.93,ENE,68,0.0,0.0,95,0.00,,---,0.01,VWS V14.01,2013-05-07 08:10:00,
2013-05-07 04:11:00,56.2,54.8,29.93,ENE,68,0.0,0.0,95,0.00,,---,0.01,VWS V14.01,2013-05-07 08:11:00,
2013-05-07 04:12:00,56.2,54.8,29.93,ENE,68,0.0,0.0,95,0.00,,---,0.01,VWS V14.01,2013-05-07 08:12:00,
2013-05-07 04:13:00,56.2,55.1,29.93,ENE,68,0.0,0.0,96,0.00,,---,0.01,VWS V14.01,2013-05-07 08:13:00,
2013-05-07 04:14:00,56.2,55.1,29.93,ENE,68,0.0,0.0,96,0.00,,---,0.01,VWS V14.01,2013-05-07 08:14:00,
2013-05-07 04:15:00,56.2,54.8,29.93,ENE,68,0.0,0.0,95,0.00,,---,0.01,VWS V14.01,2013-05-07 08:15:00,
2013-05-07 04:16:00,56.2,55.1,29.93,ENE,68,0.0,1.0,96,0.00,,---,0.01,VWS V14.01,2013-05-07 08:16:00,
2013-05-07 04:17:00,56.1,55.0,29.93,ENE,68,0.0,0.0,96,0.00,,---,0.01,VWS V14.01,2013-05-07 08:17:00,
2013-05-07 04:18:00,56.1,55.0,29.93,ENE,68,0.0,1.0,96,0.00,,---,0.01,VWS V14.01,2013-05-07 08:18:00,
2013-05-07 04:19:00,56.1,55.0,29.93,NE,45,1.0,2.0,96,0.00,,---,0.01,VWS V14.01,2013-05-07 08:19:00,
2013-05-07 04:20:00,56.1,55.0,29.93,NNE,22,0.0,1.0,96,0.00,,---,0.01,VWS V14.01,2013-05-07 08:20:00,
2013-05-07 04:21:00,56.1,55.0,29.93,ENE,68,1.0,4.0,96,0.00,,---,0.01,VWS V14.01,2013-05-07 08:21:00,
2013-05-07 04:22:00,56.1,55.0,29.93,ENE,68,0.0,0.0,96,0.00,,---,0.01,VWS V14.01,2013-05-07 08:22:00,
2013-05-07 04:23:00,56.1,55.0,29.93,NE,45,0.0,1.0,96,0.00,,---,0.01,VWS V14.01,2013-05-07 08:23:00,
2013-05-07 04:24:00,56.1,55.0,29.93,NE,45,0.0,0.0,96,0.00,,---,0.01,VWS V14.01,2013-05-07 08:24:00,
2013-05-07 04:25:00,56.1,55.0,29.93,NE,45,0.0,0.0,96,0.00,,---,0.01,VWS V14.01,2013-05-07 08:25:00,
2013-05-07 04:26:00,56.1,55.0,29.93,NE,45,0.0,1.0,96,0.00,,---,0.01,VWS V14.01,2013-05-07 08:26:00,
2013-05-07 04:27:00,56.1,55.0,29.93,NE,45,0.0,0.0,96,0.00,,---,0.01,VWS V14.01,2013-05-07 08:27:00,
2013-05-07 04:28:00,56.0,54.9,29.93,NE,45,0.0,1.0,96,0.00,,---,0.01,VWS V14.01,2013-05-07 08:28:00,
2013-05-07 04:29:00,56.0,54.9,29.93,NE,45,0.0,1.0,96,0.00,,---,0.01,VWS V14.01,2013-05-07 08:29:00,
2013-05-07 04:30:00,56.0,54.9,29.93,NE,45,0.0,0.0,96,0.00,,---,0.01,VWS V14.01,2013-05-07 08:30:00,
2013-05-07 04:31:00,56.0,54.9,29.93,NE,45,0.0,0.0,96,0.00,,---,0.01,VWS V14.01,2013-05-07 08:31:00,
2013-05-07 04:32:00,56.0,54.9,29.93,NE,45,1.0,2.0,96,0.00,,---,0.01,VWS V14.01,2013-05-07 08:32:00,
2013-05-07 04:33:00,56.0,54.9,29.93,NE,45,0.0,0.0,96,0.00,,---,0.01,VWS V14.01,2013-05-07 08:33:00,
2013-05-07 04:34:00,56.0,54.9,29.93,NE,45,0.0,1.0,96,0.00,,---,0.01,VWS V14.01,2013-05-07 08:34:00,
2013-05-07 04:35:00,56.0,54.9,29.93,NE,45,0.0,1.0,96,0.00,,---,0.01,VWS V14.01,2013-05-07 08:35:00,
2013-05-07 04:36:00,56.0,54.9,29.93,NE,45,0.0,0.0,96,0.00,,---,0.01,VWS V14.01,2013-05-07 08:36:00,
2013-05-07 04:37:00,56.0,54.9,29.93,NE,45,0.0,0.0,96,0.00,,---,0.01,VWS V14.01,2013-05-07 08:37:00,
2013-05-07 04:38:00,56.0,54.9,29.93,East,90,1.0,4.0,96,0.00,,---,0.01,VWS V14.01,2013-05-07 08:38:00,
2013-05-07 04:39:00,56.0,54.9,29.93,East,90,1.0,2.0,96,0.00,,---,0.01,VWS V14.01,2013-05-07 08:39:00,
2013-05-07 04:40:00,55.9,54.8,29.93,East,90,2.0,5.0,96,0.00,,---,0.01,VWS V14.01,2013-05-07 08:40:00,
2013-05-07 04:41:00,55.9,54.8,29.93,ESE,112,0.0,2.0,96,0.00,,---,0.01,VWS V14.01,2013-05-07 08:41:00,
2013-05-07 04:42:00,55.9,54.8,29.93,ESE,112,0.0,1.0,96,0.00,,---,0.01,VWS V14.01,2013-05-07 08:42:00,
2013-05-07 04:43:00,55.9,54.8,29.93,East,90,0.0,4.0,96,0.00,,---,0.01,VWS V14.01,2013-05-07 08:43:00,
2013-05-07 04:44:00,55.9,54.8,29.93,ENE,68,0.0,2.0,96,0.00,,---,0.01,VWS V14.01,2013-05-07 08:44:00,
2013-05-07 04:45:00,55.9,54.8,29.93,ENE,68,1.0,3.0,96,0.00,,---,0.01,VWS V14.01,2013-05-07 08:45:00,
2013-05-07 04:46:00,55.9,54.8,29.93,ENE,68,0.0,0.0,96,0.00,,---,0.01,VWS V14.01,2013-05-07 08:46:00,
2013-05-07 04:47:00,55.9,54.8,29.93,ENE,68,0.0,0.0,96,0.00,,---,0.01,VWS V14.01,2013-05-07 08:47:00,
2013-05-07 04:48:00,55.9,54.8,29.93,ENE,68,0.0,0.0,96,0.00,,---,0.01,VWS V14.01,2013-05-07 08:48:00,
2013-05-07 04:49:00,55.9,54.8,29.93,ENE,68,0.0,0.0,96,0.00,,---,0.01,VWS V14.01,2013-05-07 08:49:00,
2013-05-07 04:50:00,55.9,54.8,29.93,ENE,68,0.0,1.0,96,0.00,,---,0.01,VWS V14.01,2013-05-07 08:50:00,
2013-05-07 04:51:00,55.9,54.8,29.93,NE,45,0.0,2.0,96,0.00,,---,0.01,VWS V14.01,2013-05-07 08:51:00,
2013-05-07 04:52:00,55.9,54.8,29.93,NE,45,0.0,1.0,96,0.00,,---,0.01,VWS V14.01,2013-05-07 08:52:00,
2013-05-07 04:53:00,55.9,54.8,29.93,NE,45,0.0,1.0,96,0.00,,---,0.01,VWS V14.01,2013-05-07 08:53:00,
2013-05-07 04:54:00,55.9,54.8,29.93,NE,45,0.0,1.0,96,0.00,,---,0.01,VWS V14.01,2013-05-07 08:54:00,
2013-05-07 04:55:00,55.9,54.8,29.93,NE,45,0.0,1.0,96,0.00,,---,0.01,VWS V14.01,2013-05-07 08:55:00,
2013-05-07 04:56:00,55.9,54.8,29.93,NE,45,0.0,1.0,96,0.00,,---,0.01,VWS V14.01,2013-05-07 08:56:00,
2013-05-07 04:57:00,55.9,54.8,29.93,NE,45,0.0,0.0,96,0.00,,---,0.01,VWS V14.01,2013-05-07 08:57:00,
2013-05-07 04:58:00,55.9,54.8,29.93,NE,45,0.0,0.0,96,0.00,,---,0.01,VWS V14.01,2013-05-07 08:58:00,
2013-05-07 04:59:00,55.9,54.8,29.93,ENE,68,0.0,1.0,96,0.00,,---,0.01,VWS V14.01,2013-05-07 08:59:00,
2013-05-07 05:00:00,55.9,54.8,29.93,ENE,68,0.0,1.0,96,0.00,,---,0.01,VWS V14.01,2013-05-07 09:00:00,
2013-05-07 05:01:00,56.0,54.9,29.93,ENE,68,0.0,0.0,96,0.00,,---,0.01,VWS V14.01,2013-05-07 09:01:00,
2013-05-07 05:02:00,55.9,54.8,29.93,ENE,68,0.0,0.0,96,0.00,,---,0.01,VWS V14.01,2013-05-07 09:02:00,
2013-05-07 05:03:00,56.0,54.9,29.93,ENE,68,0.0,1.0,96,0.00,,---,0.01,VWS V14.01,2013-05-07 09:03:00,
2013-05-07 05:04:00,55.9,54.8,29.93,ENE,68,0.0,0.0,96,0.00,,---,0.01,VWS V14.01,2013-05-07 09:04:00,
2013-05-07 05:05:00,55.9,54.8,29.93,ENE,68,0.0,0.0,96,0.00,,---,0.01,VWS V14.01,2013-05-07 09:05:00,
2013-05-07 05:06:00,55.9,54.8,29.93,North,0,0.0,2.0,96,0.00,,---,0.01,VWS V14.01,2013-05-07 09:06:00,
2013-05-07 05:07:00,55.9,54.8,29.93,East,90,0.0,1.0,96,0.00,,---,0.01,VWS V14.01,2013-05-07 09:07:00,
2013-05-07 05:08:00,55.9,54.8,29.93,NE,45,0.0,2.0,96,0.00,,---,0.01,VWS V14.01,2013-05-07 09:08:00,
2013-05-07 05:09:00,55.9,54.8,29.93,NE,45,0.0,0.0,96,0.00,,---,0.01,VWS V14.01,2013-05-07 09:09:00,
2013-05-07 05:10:00,55.9,54.8,29.93,NE,45,0.0,0.0,96,0.00,,---,0.01,VWS V14.01,2013-05-07 09:10:00,
2013-05-07 05:11:00,55.9,54.8,29.93,NE,45,0.0,2.0,96,0.00,,---,0.01,VWS V14.01,2013-05-07 09:11:00,
2013-05-07 05:12:00,55.9,54.8,29.93,NE,45,0.0,1.0,96,0.00,,---,0.01,VWS V14.01,2013-05-07 09:12:00,
2013-05-07 05:13:00,55.9,54.8,29.93,NE,45,1.0,2.0,96,0.00,,---,0.01,VWS V14.01,2013-05-07 09:13:00,
2013-05-07 05:14:00,55.9,54.8,29.93,NE,45,0.0,1.0,96,0.00,,---,0.01,VWS V14.01,2013-05-07 09:14:00,
2013-05-07 05:15:00,55.9,54.8,29.93,ENE,68,0.0,1.0,96,0.00,,---,0.01,VWS V14.01,2013-05-07 09:15:00,
2013-05-07 05:16:00,55.9,54.8,29.93,ENE,68,0.0,0.0,96,0.00,,---,0.01,VWS V14.01,2013-05-07 09:16:00,
2013-05-07 05:17:00,55.9,54.8,29.93,ENE,68,0.0,1.0,96,0.00,,---,0.01,VWS V14.01,2013-05-07 09:17:00,
2013-05-07 05:18:00,55.9,54.8,29.93,ENE,68,0.0,0.0,96,0.00,,---,0.01,VWS V14.01,2013-05-07 09:18:00,
2013-05-07 05:19:00,56.0,54.9,29.93,NE,45,1.0,3.0,96,0.00,,---,0.01,VWS V14.01,2013-05-07 09:19:00,
2013-05-07 05:20:00,56.0,54.9,29.93,NE,45,0.0,1.0,96,0.00,,---,0.01,VWS V14.01,2013-05-07 09:20:00,
2013-05-07 05:21:00,56.0,54.9,29.93,NE,45,0.0,0.0,96,0.00,,---,0.01,VWS V14.01,2013-05-07 09:21:00,
2013-05-07 05:22:00,56.0,54.9,29.93,NE,45,0.0,1.0,96,0.00,,---,0.01,VWS V14.01,2013-05-07 09:22:00,
2013-05-07 05:23:00,56.0,54.9,29.94,NE,45,0.0,1.0,96,0.00,,---,0.01,VWS V14.01,2013-05-07 09:23:00,
2013-05-07 05:24:00,56.0,54.9,29.94,NE,45,0.0,0.0,96,0.00,,---,0.01,VWS V14.01,2013-05-07 09:24:00,
2013-05-07 05:25:00,56.0,54.9,29.94,NE,45,0.0,1.0,96,0.00,,---,0.01,VWS V14.01,2013-05-07 09:25:00,
2013-05-07 05:26:00,56.0,54.9,29.94,North,0,0.0,3.0,96,0.00,,---,0.01,VWS V14.01,2013-05-07 09:26:00,
2013-05-07 05:27:00,56.0,54.9,29.94,NE,45,1.0,3.0,96,0.00,,---,0.01,VWS V14.01,2013-05-07 09:27:00,
2013-05-07 05:28:00,56.0,54.9,29.94,NE,45,0.0,1.0,96,0.00,,---,0.01,VWS V14.01,2013-05-07 09:28:00,
2013-05-07 05:29:00,56.0,54.9,29.94,NE,45,0.0,1.0,96,0.00,,---,0.01,VWS V14.01,2013-05-07 09:29:00,
2013-05-07 05:30:00,56.0,54.9,29.94,NNE,22,0.0,1.0,96,0.00,,---,0.01,VWS V14.01,2013-05-07 09:30:00,
2013-05-07 05:31:00,56.0,54.9,29.94,ENE,68,1.0,4.0,96,0.00,,---,0.01,VWS V14.01,2013-05-07 09:31:00,
2013-05-07 05:32:00,56.0,54.9,29.94,East,90,1.0,4.0,96,0.00,,---,0.01,VWS V14.01,2013-05-07 09:32:00,
2013-05-07 05:33:00,56.0,54.9,29.94,East,90,0.0,0.0,96,0.00,,---,0.01,VWS V14.01,2013-05-07 09:33:00,
2013-05-07 05:34:00,56.0,54.9,29.94,East,90,0.0,2.0,96,0.00,,---,0.01,VWS V14.01,2013-05-07 09:34:00,
2013-05-07 05:35:00,56.0,54.9,29.94,East,90,1.0,3.0,96,0.00,,---,0.01,VWS V14.01,2013-05-07 09:35:00,
2013-05-07 05:36:00,56.0,54.9,29.94,ESE,112,1.0,5.0,96,0.00,,---,0.01,VWS V14.01,2013-05-07 09:36:00,
2013-05-07 05:37:00,56.0,54.9,29.94,ESE,112,0.0,1.0,96,0.00,,---,0.01,VWS V14.01,2013-05-07 09:37:00,
2013-05-07 05:38:00,56.0,54.6,29.94,ESE,112,0.0,2.0,95,0.00,,---,0.01,VWS V14.01,2013-05-07 09:38:00,
2013-05-07 05:39:00,56.0,54.6,29.94,ESE,112,0.0,2.0,95,0.00,,---,0.01,VWS V14.01,2013-05-07 09:39:00,
2013-05-07 05:40:00,56.0,54.6,29.94,ESE,112,4.0,8.0,95,0.00,,---,0.01,VWS V14.01,2013-05-07 09:40:00,
2013-05-07 05:41:00,56.0,54.6,29.94,ESE,112,0.0,8.0,95,0.00,,---,0.01,VWS V14.01,2013-05-07 09:41:00,
2013-05-07 05:42:00,56.0,54.6,29.94,East,90,0.0,1.0,95,0.00,,---,0.01,VWS V14.01,2013-05-07 09:42:00,
2013-05-07 05:43:00,56.0,54.6,29.94,ESE,112,2.0,4.0,95,0.00,,---,0.01,VWS V14.01,2013-05-07 09:43:00,
2013-05-07 05:44:00,56.0,54.6,29.94,SSE,158,0.0,2.0,95,0.00,,---,0.01,VWS V14.01,2013-05-07 09:44:00,
2013-05-07 05:45:00,56.0,54.6,29.94,SSE,158,0.0,0.0,95,0.00,,---,0.01,VWS V14.01,2013-05-07 09:45:00,
2013-05-07 05:46:00,56.0,54.6,29.94,East,90,0.0,1.0,95,0.00,,---,0.01,VWS V14.01,2013-05-07 09:46:00,
2013-05-07 05:47:00,56.0,54.6,29.94,ENE,68,1.0,4.0,95,0.00,,---,0.01,VWS V14.01,2013-05-07 09:47:00,
2013-05-07 05:48:00,56.0,54.6,29.95,SE,135,1.0,6.0,95,0.00,,---,0.01,VWS V14.01,2013-05-07 09:48:00,
2013-05-07 05:49:00,56.0,54.6,29.95,SE,135,0.0,0.0,95,0.00,,---,0.01,VWS V14.01,2013-05-07 09:49:00,
2013-05-07 05:50:00,56.0,54.6,29.95,SE,135,0.0,0.0,95,0.00,,---,0.01,VWS V14.01,2013-05-07 09:50:00,
2013-05-07 05:51:00,56.0,54.6,29.95,SE,135,0.0,1.0,95,0.00,,---,0.01,VWS V14.01,2013-05-07 09:51:00,
2013-05-07 05:52:00,56.0,54.6,29.95,SE,135,0.0,0.0,95,0.00,,---,0.01,VWS V14.01,2013-05-07 09:52:00,
2013-05-07 05:53:00,56.0,54.6,29.95,NNE,22,2.0,5.0,95,0.00,,---,0.01,VWS V14.01,2013-05-07 09:53:00,
2013-05-07 05:54:00,56.0,54.6,29.95,ENE,68,1.0,3.0,95,0.00,,---,0.01,VWS V14.01,2013-05-07 09:54:00,
2013-05-07 05:55:00,56.1,54.7,29.95,NE,45,0.0,1.0,95,0.00,,---,0.01,VWS V14.01,2013-05-07 09:55:00,
2013-05-07 05:56:00,56.1,54.7,29.95,NE,45,0.0,2.0,95,0.00,,---,0.01,VWS V14.01,2013-05-07 09:56:00,
2013-05-07 05:57:00,56.1,54.7,29.95,NE,45,0.0,0.0,95,0.00,,---,0.01,VWS V14.01,2013-05-07 09:57:00,
2013-05-07 05:58:00,56.1,54.7,29.95,NE,45,0.0,0.0,95,0.00,,---,0.01,VWS V14.01,2013-05-07 09:58:00,
2013-05-07 05:59:00,56.1,54.7,29.95,NE,45,0.0,1.0,95,0.00,,---,0.01,VWS V14.01,2013-05-07 09:59:00,
2013-05-07 06:00:00,56.1,54.7,29.95,East,90,0.0,2.0,95,0.00,,---,0.01,VWS V14.01,2013-05-07 10:00:00,
2013-05-07 06:01:00,56.1,54.7,29.95,NNW,338,0.0,1.0,95,0.00,,---,0.01,VWS V14.01,2013-05-07 10:01:00,
2013-05-07 06:02:00,56.1,54.7,29.95,NNE,22,1.0,3.0,95,0.00,,---,0.01,VWS V14.01,2013-05-07 10:02:00,
2013-05-07 06:03:00,56.1,54.7,29.95,NE,45,0.0,1.0,95,0.00,,---,0.01,VWS V14.01,2013-05-07 10:03:00,
2013-05-07 06:04:00,56.1,54.7,29.95,NE,45,0.0,0.0,95,0.00,,---,0.01,VWS V14.01,2013-05-07 10:04:00,
2013-05-07 06:05:00,56.1,54.7,29.95,NE,45,0.0,1.0,95,0.00,,---,0.01,VWS V14.01,2013-05-07 10:05:00,
2013-05-07 06:06:00,56.1,54.7,29.95,NE,45,0.0,0.0,95,0.00,,---,0.01,VWS V14.01,2013-05-07 10:06:00,
2013-05-07 06:07:00,56.1,54.7,29.95,NE,45,0.0,0.0,95,0.00,,---,0.01,VWS V14.01,2013-05-07 10:07:00,
2013-05-07 06:08:00,56.1,54.7,29.95,East,90,0.0,1.0,95,0.00,,---,0.01,VWS V14.01,2013-05-07 10:08:00,
2013-05-07 06:09:00,56.1,54.7,29.95,East,90,0.0,0.0,95,0.00,,---,0.01,VWS V14.01,2013-05-07 10:09:00,
2013-05-07 06:10:00,56.1,54.7,29.95,East,90,0.0,3.0,95,0.00,,---,0.01,VWS V14.01,2013-05-07 10:10:00,
2013-05-07 06:11:00,56.1,54.7,29.95,NE,45,2.0,5.0,95,0.00,,---,0.01,VWS V14.01,2013-05-07 10:11:00,
2013-05-07 06:12:00,56.1,54.7,29.95,East,90,1.0,2.0,95,0.00,,---,0.01,VWS V14.01,2013-05-07 10:12:00,
2013-05-07 06:13:00,56.1,54.7,29.94,East,90,0.0,1.0,95,0.00,,---,0.01,VWS V14.01,2013-05-07 10:13:00,
2013-05-07 06:14:00,56.1,54.7,29.94,East,90,0.0,1.0,95,0.00,,---,0.01,VWS V14.01,2013-05-07 10:14:00,
2013-05-07 06:15:00,56.1,54.7,29.95,ENE,68,1.0,5.0,95,0.00,,---,0.01,VWS V14.01,2013-05-07 10:15:00,
2013-05-07 06:16:00,56.1,54.7,29.95,ENE,68,1.0,2.0,95,0.00,,---,0.01,VWS V14.01,2013-05-07 10:16:00,
2013-05-07 06:17:00,56.1,54.7,29.95,ENE,68,0.0,0.0,95,0.00,,---,0.01,VWS V14.01,2013-05-07 10:17:00,
2013-05-07 06:18:00,56.1,54.7,29.95,ENE,68,0.0,1.0,95,0.00,,---,0.01,VWS V14.01,2013-05-07 10:18:00,
2013-05-07 06:19:00,56.1,54.7,29.95,ENE,68,0.0,0.0,95,0.00,,---,0.01,VWS V14.01,2013-05-07 10:19:00,
2013-05-07 06:20:00,56.1,54.7,29.95,NE,45,1.0,3.0,95,0.00,,---,0.01,VWS V14.01,2013-05-07 10:20:00,
2013-05-07 06:21:00,56.1,54.7,29.95,NE,45,0.0,0.0,95,0.00,,---,0.01,VWS V14.01,2013-05-07 10:21:00,
2013-05-07 06:22:00,56.1,54.7,29.95,NE,45,0.0,1.0,95,0.00,,---,0.01,VWS V14.01,2013-05-07 10:22:00,
2013-05-07 06:23:00,56.1,54.7,29.95,NE,45,0.0,0.0,95,0.00,,---,0.01,VWS V14.01,2013-05-07 10:23:00,
2013-05-07 06:24:00,56.1,54.7,29.95,NE,45,0.0,1.0,95,0.00,,---,0.01,VWS V14.01,2013-05-07 10:24:00,
2013-05-07 06:25:00,56.1,54.7,29.95,NE,45,0.0,0.0,95,0.00,,---,0.01,VWS V14.01,2013-05-07 10:25:00,
2013-05-07 06:26:00,56.1,54.7,29.95,NE,45,0.0,1.0,95,0.00,,---,0.01,VWS V14.01,2013-05-07 10:26:00,
2013-05-07 06:27:00,56.1,54.7,29.95,ENE,68,0.0,1.0,95,0.00,,---,0.01,VWS V14.01,2013-05-07 10:27:00,
2013-05-07 06:28:00,56.1,54.7,29.95,ENE,68,1.0,3.0,95,0.00,,---,0.01,VWS V14.01,2013-05-07 10:28:00,
2013-05-07 06:29:00,56.1,54.7,29.95,NE,45,0.0,1.0,95,0.00,,---,0.01,VWS V14.01,2013-05-07 10:29:00,
2013-05-07 06:30:00,56.1,54.7,29.95,ENE,68,1.0,2.0,95,0.00,,---,0.01,VWS V14.01,2013-05-07 10:30:00,
2013-05-07 06:31:00,56.0,54.6,29.95,ENE,68,0.0,4.0,95,0.00,,---,0.01,VWS V14.01,2013-05-07 10:31:00,
2013-05-07 06:32:00,56.0,54.6,29.96,ESE,112,0.0,2.0,95,0.00,,---,0.01,VWS V14.01,2013-05-07 10:32:00,
2013-05-07 06:33:00,56.0,54.6,29.95,ESE,112,0.0,0.0,95,0.00,,---,0.01,VWS V14.01,2013-05-07 10:33:00,
2013-05-07 06:34:00,56.0,54.6,29.96,ESE,112,0.0,0.0,95,0.00,,---,0.01,VWS V14.01,2013-05-07 10:34:00,
2013-05-07 06:35:00,56.0,54.6,29.96,ESE,112,0.0,0.0,95,0.00,,---,0.01,VWS V14.01,2013-05-07 10:35:00,
2013-05-07 06:36:00,56.0,54.6,29.96,East,90,0.0,1.0,95,0.00,,---,0.01,VWS V14.01,2013-05-07 10:36:00,
2013-05-07 06:37:00,56.0,54.6,29.96,East,90,0.0,1.0,95,0.00,,---,0.01,VWS V14.01,2013-05-07 10:37:00,
2013-05-07 06:38:00,56.0,54.6,29.96,East,90,0.0,0.0,95,0.00,,---,0.01,VWS V14.01,2013-05-07 10:38:00,
2013-05-07 06:39:00,56.0,54.6,29.96,East,90,0.0,0.0,95,0.00,,---,0.01,VWS V14.01,2013-05-07 10:39:00,
2013-05-07 06:40:00,56.0,54.6,29.96,East,90,0.0,0.0,95,0.00,,---,0.01,VWS V14.01,2013-05-07 10:40:00,
2013-05-07 06:41:00,56.0,54.6,29.96,East,90,0.0,1.0,95,0.00,,---,0.01,VWS V14.01,2013-05-07 10:41:00,
2013-05-07 06:42:00,56.0,54.6,29.96,East,90,0.0,0.0,95,0.00,,---,0.01,VWS V14.01,2013-05-07 10:42:00,
2013-05-07 06:43:00,56.0,54.6,29.96,East,90,0.0,1.0,95,0.00,,---,0.01,VWS V14.01,2013-05-07 10:43:00,
2013-05-07 06:44:00,56.0,54.6,29.96,East,90,0.0,0.0,95,0.00,,---,0.01,VWS V14.01,2013-05-07 10:44:00,
2013-05-07 06:45:00,56.0,54.6,29.96,East,90,0.0,0.0,95,0.00,,---,0.01,VWS V14.01,2013-05-07 10:45:00,
2013-05-07 06:46:00,56.0,54.6,29.96,East,90,0.0,0.0,95,0.00,,---,0.01,VWS V14.01,2013-05-07 10:46:00,
2013-05-07 06:47:00,56.0,54.6,29.96,East,90,0.0,0.0,95,0.00,,---,0.01,VWS V14.01,2013-05-07 10:47:00,
2013-05-07 06:48:00,56.0,54.6,29.97,East,90,0.0,0.0,95,0.00,,---,0.01,VWS V14.01,2013-05-07 10:48:00,
2013-05-07 06:49:00,56.0,54.6,29.96,East,90,0.0,0.0,95,0.00,,---,0.01,VWS V14.01,2013-05-07 10:49:00,
2013-05-07 06:50:00,56.0,54.6,29.97,East,90,0.0,0.0,95,0.00,,---,0.01,VWS V14.01,2013-05-07 10:50:00,
2013-05-07 06:51:00,56.0,54.6,29.96,East,90,0.0,1.0,95,0.00,,---,0.01,VWS V14.01,2013-05-07 10:51:00,
2013-05-07 06:52:00,56.0,54.6,29.96,East,90,0.0,0.0,95,0.00,,---,0.01,VWS V14.01,2013-05-07 10:52:00,
2013-05-07 06:53:00,55.9,54.5,29.96,East,90,0.0,0.0,95,0.00,,---,0.01,VWS V14.01,2013-05-07 10:53:00,
2013-05-07 06:54:00,55.9,54.5,29.96,East,90,0.0,0.0,95,0.00,,---,0.01,VWS V14.01,2013-05-07 10:54:00,
2013-05-07 06:55:00,55.9,54.5,29.96,East,90,0.0,1.0,95,0.00,,---,0.01,VWS V14.01,2013-05-07 10:55:00,
2013-05-07 06:56:00,55.9,54.5,29.96,East,90,0.0,0.0,95,0.00,,---,0.01,VWS V14.01,2013-05-07 10:56:00,
2013-05-07 06:57:00,55.9,54.5,29.96,East,90,0.0,0.0,95,0.00,,---,0.01,VWS V14.01,2013-05-07 10:57:00,
2013-05-07 06:58:00,55.9,54.5,29.96,East,90,0.0,0.0,95,0.00,,---,0.01,VWS V14.01,2013-05-07 10:58:00,
2013-05-07 06:59:00,55.9,54.5,29.97,East,90,0.0,1.0,95,0.00,,---,0.01,VWS V14.01,2013-05-07 10:59:00,
2013-05-07 07:00:00,55.9,54.5,29.96,East,90,0.0,0.0,95,0.00,,---,0.01,VWS V14.01,2013-05-07 11:00:00,
2013-05-07 07:01:00,55.9,54.5,29.96,East,90,0.0,0.0,95,0.00,,---,0.01,VWS V14.01,2013-05-07 11:01:00,
2013-05-07 07:02:00,55.9,54.5,29.96,East,90,0.0,0.0,95,0.00,,---,0.01,VWS V14.01,2013-05-07 11:02:00,
2013-05-07 07:03:00,55.9,54.5,29.97,East,90,0.0,0.0,95,0.00,,---,0.01,VWS V14.01,2013-05-07 11:03:00,
2013-05-07 07:04:00,55.9,54.5,29.97,East,90,0.0,0.0,95,0.00,,---,0.01,VWS V14.01,2013-05-07 11:04:00,
2013-05-07 07:05:00,55.9,54.5,29.97,East,90,0.0,0.0,95,0.00,,---,0.01,VWS V14.01,2013-05-07 11:05:00,
2013-05-07 07:06:00,55.9,54.5,29.97,East,90,0.0,0.0,95,0.00,,---,0.01,VWS V14.01,2013-05-07 11:06:00,
2013-05-07 07:07:00,55.9,54.5,29.97,East,90,0.0,0.0,95,0.00,,---,0.01,VWS V14.01,2013-05-07 11:07:00,
2013-05-07 07:08:00,55.9,54.5,29.97,East,90,0.0,0.0,95,0.00,,---,0.01,VWS V14.01,2013-05-07 11:08:00,
2013-05-07 07:09:00,55.9,54.5,29.97,East,90,0.0,0.0,95,0.00,,---,0.01,VWS V14.01,2013-05-07 11:09:00,
2013-05-07 07:10:00,55.9,54.5,29.97,East,90,0.0,0.0,95,0.00,,---,0.01,VWS V14.01,2013-05-07 11:10:00,
2013-05-07 07:11:00,55.9,54.5,29.97,East,90,0.0,1.0,95,0.00,,---,0.01,VWS V14.01,2013-05-07 11:11:00,
2013-05-07 07:12:00,55.9,54.5,29.97,East,90,0.0,0.0,95,0.00,,---,0.01,VWS V14.01,2013-05-07 11:12:00,
2013-05-07 07:13:00,55.9,54.5,29.97,East,90,0.0,0.0,95,0.00,,---,0.01,VWS V14.01,2013-05-07 11:13:00,
2013-05-07 07:14:00,55.9,54.5,29.97,East,90,0.0,0.0,95,0.00,,---,0.01,VWS V14.01,2013-05-07 11:14:00,
2013-05-07 07:15:00,55.9,54.5,29.97,East,90,0.0,0.0,95,0.00,,---,0.01,VWS V14.01,2013-05-07 11:15:00,
2013-05-07 07:16:00,55.9,54.5,29.97,East,90,0.0,0.0,95,0.00,,---,0.01,VWS V14.01,2013-05-07 11:16:00,
2013-05-07 07:17:00,55.9,54.5,29.97,East,90,0.0,0.0,95,0.00,,---,0.01,VWS V14.01,2013-05-07 11:17:00,
2013-05-07 07:18:00,55.9,54.5,29.97,East,90,0.0,0.0,95,0.00,,---,0.01,VWS V14.01,2013-05-07 11:18:00,
2013-05-07 07:19:00,55.9,54.5,29.97,East,90,0.0,0.0,95,0.00,,---,0.01,VWS V14.01,2013-05-07 11:19:00,
2013-05-07 07:20:00,55.9,54.5,29.97,East,90,0.0,0.0,95,0.00,,---,0.01,VWS V14.01,2013-05-07 11:20:00,
2013-05-07 07:21:00,55.9,54.5,29.97,East,90,0.0,0.0,95,0.00,,---,0.01,VWS V14.01,2013-05-07 11:21:00,
2013-05-07 07:22:00,55.9,54.5,29.97,East,90,0.0,0.0,95,0.00,,---,0.01,VWS V14.01,2013-05-07 11:22:00,
2013-05-07 07:23:00,56.0,54.6,29.97,East,90,0.0,0.0,95,0.00,,---,0.01,VWS V14.01,2013-05-07 11:23:00,
2013-05-07 07:24:00,56.0,54.6,29.97,East,90,0.0,0.0,95,0.00,,---,0.01,VWS V14.01,2013-05-07 11:24:00,
2013-05-07 07:25:00,56.0,54.6,29.98,East,90,0.0,1.0,95,0.00,,---,0.01,VWS V14.01,2013-05-07 11:25:00,
2013-05-07 07:26:00,56.0,54.6,29.98,East,90,0.0,0.0,95,0.00,,---,0.01,VWS V14.01,2013-05-07 11:26:00,
2013-05-07 07:27:00,56.0,54.6,29.98,East,90,0.0,0.0,95,0.00,,---,0.01,VWS V14.01,2013-05-07 11:27:00,
2013-05-07 07:28:00,56.0,54.6,29.98,East,90,0.0,0.0,95,0.00,,---,0.01,VWS V14.01,2013-05-07 11:28:00,
2013-05-07 07:29:00,56.0,54.6,29.98,East,90,0.0,0.0,95,0.00,,---,0.01,VWS V14.01,2013-05-07 11:29:00,
2013-05-07 07:30:00,56.0,54.6,29.98,East,90,0.0,0.0,95,0.00,,---,0.01,VWS V14.01,2013-05-07 11:30:00,
2013-05-07 07:31:00,56.0,54.6,29.98,East,90,0.0,0.0,95,0.00,,---,0.01,VWS V14.01,2013-05-07 11:31:00,
2013-05-07 07:32:00,56.0,54.6,29.98,East,90,0.0,0.0,95,0.00,,---,0.01,VWS V14.01,2013-05-07 11:32:00,
2013-05-07 07:33:00,56.1,54.7,29.98,East,90,0.0,0.0,95,0.00,,---,0.01,VWS V14.01,2013-05-07 11:33:00,
2013-05-07 07:34:00,56.1,54.7,29.98,East,90,0.0,0.0,95,0.00,,---,0.01,VWS V14.01,2013-05-07 11:34:00,
2013-05-07 07:35:00,56.1,54.7,29.98,East,90,0.0,1.0,95,0.00,,---,0.01,VWS V14.01,2013-05-07 11:35:00,
2013-05-07 07:36:00,56.1,54.7,29.98,East,90,0.0,0.0,95,0.00,,---,0.01,VWS V14.01,2013-05-07 11:36:00,
2013-05-07 07:37:00,56.2,54.8,29.98,East,90,0.0,0.0,95,0.00,,---,0.01,VWS V14.01,2013-05-07 11:37:00,
2013-05-07 07:38:00,56.2,54.8,29.98,East,90,0.0,1.0,95,0.00,,---,0.01,VWS V14.01,2013-05-07 11:38:00,
2013-05-07 07:41:00,56.2,54.8,29.98,East,90,0.0,1.0,95,0.00,,---,0.01,VWS V14.01,2013-05-07 11:41:00,
2013-05-07 07:42:00,56.4,55.3,29.98,East,82,0.0,0.0,96,0.00,,---,0.01,VWS V14.01,2013-05-07 11:42:00,
2013-05-07 07:43:00,56.4,55.3,29.98,East,82,0.0,0.0,96,0.00,,---,0.01,VWS V14.01,2013-05-07 11:43:00,
2013-05-07 07:44:00,56.5,55.4,29.98,East,82,0.0,0.0,96,0.00,,---,0.01,VWS V14.01,2013-05-07 11:44:00,
2013-05-07 07:45:00,56.6,55.5,29.98,East,82,0.0,0.0,96,0.00,,---,0.01,VWS V14.01,2013-05-07 11:45:00,
2013-05-07 07:46:00,56.6,55.5,29.98,East,82,0.0,1.0,96,0.00,,---,0.01,VWS V14.01,2013-05-07 11:46:00,
2013-05-07 07:47:00,56.6,55.5,29.98,ENE,67,0.0,1.0,96,0.00,,---,0.01,VWS V14.01,2013-05-07 11:47:00,
2013-05-07 07:48:00,56.7,55.6,29.98,ENE,67,0.0,0.0,96,0.00,,---,0.01,VWS V14.01,2013-05-07 11:48:00,
2013-05-07 07:49:00,56.7,55.6,29.98,East,92,0.0,2.0,96,0.00,,---,0.01,VWS V14.01,2013-05-07 11:49:00,
2013-05-07 07:50:00,56.7,55.6,29.98,East,92,0.0,2.0,96,0.00,,---,0.01,VWS V14.01,2013-05-07 11:50:00,
2013-05-07 07:51:00,56.7,55.6,29.98,East,92,0.0,0.0,96,0.00,,---,0.01,VWS V14.01,2013-05-07 11:51:00,
2013-05-07 07:52:00,56.8,55.4,29.98,East,92,0.0,0.0,95,0.00,,---,0.01,VWS V14.01,2013-05-07 11:52:00,
2013-05-07 07:53:00,56.8,55.4,29.98,East,92,0.0,0.0,95,0.00,,---,0.01,VWS V14.01,2013-05-07 11:53:00,
2013-05-07 07:54:00,56.8,55.4,29.98,East,88,0.0,0.0,95,0.00,,---,0.01,VWS V14.01,2013-05-07 11:54:00,
2013-05-07 07:55:00,56.9,55.5,29.98,North,10,0.0,1.0,95,0.00,,---,0.01,VWS V14.01,2013-05-07 11:55:00,
2013-05-07 07:56:00,56.9,55.5,29.98,North,10,0.0,1.0,95,0.00,,---,0.01,VWS V14.01,2013-05-07 11:56:00,
2013-05-07 07:57:00,56.9,55.5,29.98,North,10,0.0,1.0,95,0.00,,---,0.01,VWS V14.01,2013-05-07 11:57:00,
2013-05-07 07:58:00,56.9,55.5,29.98,North,10,0.0,0.0,95,0.00,,---,0.01,VWS V14.01,2013-05-07 11:58:00,
2013-05-07 07:59:00,56.9,55.5,29.98,North,10,0.0,0.0,95,0.00,,---,0.01,VWS V14.01,2013-05-07 11:59:00,
2013-05-07 08:00:00,57.0,55.6,29.98,North,10,0.0,0.0,95,0.00,,---,0.01,VWS V14.01,2013-05-07 12:00:00,
2013-05-07 08:01:00,57.0,55.6,29.98,North,10,0.0,0.0,95,0.00,,---,0.01,VWS V14.01,2013-05-07 12:01:00,
2013-05-07 08:02:00,57.0,55.6,29.98,North,10,0.0,0.0,95,0.00,,---,0.01,VWS V14.01,2013-05-07 12:02:00,
2013-05-07 08:03:00,57.1,55.7,29.98,North,10,0.0,0.0,95,0.00,,---,0.01,VWS V14.01,2013-05-07 12:03:00,
2013-05-07 08:04:00,57.1,55.7,29.98,North,10,2.0,2.0,95,0.00,,---,0.01,VWS V14.01,2013-05-07 12:04:00,
2013-05-07 08:05:00,57.2,55.8,29.98,NNE,12,0.0,0.0,95,0.00,,---,0.01,VWS V14.01,2013-05-07 12:05:00,
2013-05-07 08:06:00,57.2,55.8,29.98,NNE,12,0.0,0.0,95,0.00,,---,0.01,VWS V14.01,2013-05-07 12:06:00,
2013-05-07 08:07:00,57.2,55.8,29.98,NNE,12,0.0,0.0,95,0.00,,---,0.01,VWS V14.01,2013-05-07 12:07:00,
2013-05-07 08:08:00,57.3,55.9,29.98,NNE,12,0.0,1.0,95,0.00,,---,0.01,VWS V14.01,2013-05-07 12:08:00,
2013-05-07 08:09:00,57.4,56.0,29.98,NNE,12,0.0,0.0,95,0.00,,---,0.01,VWS V14.01,2013-05-07 12:09:00,
2013-05-07 08:10:00,57.4,56.0,29.98,NNE,12,0.0,1.0,95,0.00,,---,0.01,VWS V14.01,2013-05-07 12:10:00,
2013-05-07 08:11:00,57.5,56.1,29.98,NNE,12,0.0,0.0,95,0.00,,---,0.01,VWS V14.01,2013-05-07 12:11:00,
2013-05-07 08:12:00,57.5,56.1,29.98,NNE,12,0.0,0.0,95,0.00,,---,0.01,VWS V14.01,2013-05-07 12:12:00,
2013-05-07 08:13:00,57.5,56.1,29.98,NNE,12,0.0,0.0,95,0.00,,---,0.01,VWS V14.01,2013-05-07 12:13:00,
2013-05-07 08:14:00,57.6,56.2,29.98,NNE,12,0.0,2.0,95,0.00,,---,0.01,VWS V14.01,2013-05-07 12:14:00,
2013-05-07 08:15:00,57.6,56.2,29.98,NNE,12,0.0,1.0,95,0.00,,---,0.01,VWS V14.01,2013-05-07 12:15:00,
2013-05-07 08:16:00,57.8,56.4,29.98,North,5,0.0,2.0,95,0.00,,---,0.01,VWS V14.01,2013-05-07 12:16:00,
2013-05-07 08:17:00,57.8,56.4,29.98,North,5,0.0,2.0,95,0.00,,---,0.01,VWS V14.01,2013-05-07 12:17:00,
2013-05-07 08:18:00,57.8,56.4,29.98,NNE,32,0.0,0.0,95,0.00,,---,0.01,VWS V14.01,2013-05-07 12:18:00,
2013-05-07 08:19:00,57.8,56.1,29.98,NNE,31,0.0,1.0,94,0.00,,---,0.01,VWS V14.01,2013-05-07 12:19:00,
2013-05-07 08:20:00,57.8,56.1,29.98,NE,34,0.0,1.0,94,0.00,,---,0.01,VWS V14.01,2013-05-07 12:20:00,
2013-05-07 08:21:00,57.8,56.1,29.98,NE,34,0.0,0.0,94,0.00,,---,0.01,VWS V14.01,2013-05-07 12:21:00,
2013-05-07 08:22:00,57.8,56.1,29.98,NE,34,0.0,0.0,94,0.00,,---,0.01,VWS V14.01,2013-05-07 12:22:00,
2013-05-07 08:23:00,57.8,56.1,29.98,NE,34,0.0,0.0,94,0.00,,---,0.01,VWS V14.01,2013-05-07 12:23:00,
2013-05-07 08:24:00,57.9,56.2,29.98,North,360,0.0,2.0,94,0.00,,---,0.01,VWS V14.01,2013-05-07 12:24:00,
2013-05-07 08:25:00,57.9,56.2,29.98,North,5,0.0,1.0,94,0.00,,---,0.01,VWS V14.01,2013-05-07 12:25:00,
2013-05-07 08:26:00,57.9,56.2,29.98,North,5,0.0,0.0,94,0.00,,---,0.01,VWS V14.01,2013-05-07 12:26:00,
2013-05-07 08:27:00,57.9,56.2,29.98,North,5,0.0,0.0,94,0.00,,---,0.01,VWS V14.01,2013-05-07 12:27:00,
2013-05-07 08:28:00,58.0,56.3,29.98,North,5,1.0,1.0,94,0.00,,---,0.01,VWS V14.01,2013-05-07 12:28:00,
2013-05-07 08:29:00,58.0,56.3,29.98,ENE,63,0.0,1.0,94,0.00,,---,0.01,VWS V14.01,2013-05-07 12:29:00,
2013-05-07 08:30:00,58.0,56.3,29.98,North,5,0.0,3.0,94,0.00,,---,0.01,VWS V14.01,2013-05-07 12:30:00,
2013-05-07 08:31:00,58.0,56.3,29.98,North,5,0.0,0.0,94,0.00,,---,0.01,VWS V14.01,2013-05-07 12:31:00,
2013-05-07 08:32:00,58.0,56.0,29.98,North,11,0.0,3.0,93,0.00,,---,0.01,VWS V14.01,2013-05-07 12:32:00,
2013-05-07 08:33:00,58.0,56.0,29.98,North,11,0.0,3.0,93,0.00,,---,0.01,VWS V14.01,2013-05-07 12:33:00,
2013-05-07 08:34:00,58.0,56.0,29.98,North,11,0.0,1.0,93,0.00,,---,0.01,VWS V14.01,2013-05-07 12:34:00,
2013-05-07 08:35:00,58.1,56.1,29.98,NNE,13,0.0,1.0,93,0.00,,---,0.01,VWS V14.01,2013-05-07 12:35:00,
2013-05-07 08:36:00,58.1,56.1,29.98,NNE,13,0.0,0.0,93,0.00,,---,0.01,VWS V14.01,2013-05-07 12:36:00,
2013-05-07 08:37:00,58.1,56.1,29.98,NNE,13,0.0,0.0,93,0.00,,---,0.01,VWS V14.01,2013-05-07 12:37:00,
2013-05-07 08:38:00,58.1,56.1,29.98,NNE,13,0.0,0.0,93,0.00,,---,0.01,VWS V14.01,2013-05-07 12:38:00,
2013-05-07 08:39:00,58.2,56.2,29.98,NE,45,3.0,4.0,93,0.00,,---,0.01,VWS V14.01,2013-05-07 12:39:00,
2013-05-07 08:40:00,58.2,56.2,29.98,NNE,19,0.0,3.0,93,0.00,,---,0.01,VWS V14.01,2013-05-07 12:40:00,
2013-05-07 08:41:00,58.3,56.3,29.98,NNE,19,0.0,0.0,93,0.00,,---,0.01,VWS V14.01,2013-05-07 12:41:00,
2013-05-07 08:42:00,58.4,56.4,29.98,ESE,123,0.0,4.0,93,0.00,,---,0.01,VWS V14.01,2013-05-07 12:42:00,
2013-05-07 08:43:00,58.4,56.4,29.98,ESE,123,0.0,4.0,93,0.00,,---,0.01,VWS V14.01,2013-05-07 12:43:00,
2013-05-07 08:44:00,58.5,56.5,29.98,ENE,59,0.0,2.0,93,0.00,,---,0.01,VWS V14.01,2013-05-07 12:44:00,
2013-05-07 08:45:00,58.6,56.6,29.98,ESE,107,0.0,1.0,93,0.00,,---,0.01,VWS V14.01,2013-05-07 12:45:00,
2013-05-07 08:46:00,58.7,56.7,29.98,ENE,57,1.0,1.0,93,0.00,,---,0.01,VWS V14.01,2013-05-07 12:46:00,
2013-05-07 08:47:00,58.9,56.6,29.98,East,99,0.0,2.0,92,0.00,,---,0.01,VWS V14.01,2013-05-07 12:47:00,
2013-05-07 08:48:00,58.9,56.6,29.98,East,99,0.0,2.0,92,0.00,,---,0.01,VWS V14.01,2013-05-07 12:48:00,
2013-05-07 08:49:00,59.0,57.0,29.98,East,93,0.0,1.0,93,0.00,,---,0.01,VWS V14.01,2013-05-07 12:49:00,
2013-05-07 08:50:00,59.1,56.8,29.98,East,92,0.0,1.0,92,0.00,,---,0.01,VWS V14.01,2013-05-07 12:50:00,
2013-05-07 08:51:00,59.3,57.0,29.98,East,92,0.0,0.0,92,0.00,,---,0.01,VWS V14.01,2013-05-07 12:51:00,
2013-05-07 08:52:00,59.4,57.1,29.98,East,93,0.0,1.0,92,0.00,,---,0.01,VWS V14.01,2013-05-07 12:52:00,
2013-05-07 08:53:00,59.6,57.0,29.98,SE,130,0.0,2.0,91,0.00,,---,0.01,VWS V14.01,2013-05-07 12:53:00,
2013-05-07 08:54:00,59.6,57.0,29.98,SE,130,0.0,2.0,91,0.00,,---,0.01,VWS V14.01,2013-05-07 12:54:00,
2013-05-07 08:55:00,59.7,57.1,29.98,SE,127,0.0,1.0,91,0.00,,---,0.01,VWS V14.01,2013-05-07 12:55:00,
2013-05-07 08:56:00,59.8,57.2,29.98,ESE,102,0.0,0.0,91,0.00,,---,0.01,VWS V14.01,2013-05-07 12:56:00,
2013-05-07 08:57:00,59.8,56.9,29.99,East,101,0.0,0.0,90,0.00,,---,0.01,VWS V14.01,2013-05-07 12:57:00,
2013-05-07 08:58:00,59.9,57.0,29.99,East,101,0.0,0.0,90,0.00,,---,0.01,VWS V14.01,2013-05-07 12:58:00,
2013-05-07 08:59:00,59.9,57.0,29.99,East,101,0.0,0.0,90,0.00,,---,0.01,VWS V14.01,2013-05-07 12:59:00,
2013-05-07 09:00:00,60.0,57.1,29.99,East,101,0.0,0.0,90,0.00,,---,0.01,VWS V14.01,2013-05-07 13:00:00,
2013-05-07 09:01:00,60.0,57.1,29.99,East,84,0.0,1.0,90,0.00,,---,0.01,VWS V14.01,2013-05-07 13:01:00,
2013-05-07 09:02:00,60.1,57.2,29.99,East,86,0.0,0.0,90,0.00,,---,0.01,VWS V14.01,2013-05-07 13:02:00,
2013-05-07 09:03:00,60.1,56.8,29.99,ENE,76,0.0,1.0,89,0.00,,---,0.01,VWS V14.01,2013-05-07 13:03:00,
2013-05-07 09:04:00,60.1,56.8,29.99,ENE,76,0.0,1.0,89,0.00,,---,0.01,VWS V14.01,2013-05-07 13:04:00,
2013-05-07 09:05:00,60.1,56.8,29.99,East,80,0.0,1.0,89,0.00,,---,0.01,VWS V14.01,2013-05-07 13:05:00,
2013-05-07 09:06:00,60.1,56.8,29.99,ENE,78,2.0,4.0,89,0.00,,---,0.01,VWS V14.01,2013-05-07 13:06:00,
2013-05-07 09:07:00,60.1,56.5,29.99,ESE,108,1.0,2.0,88,0.00,,---,0.01,VWS V14.01,2013-05-07 13:07:00,
2013-05-07 09:08:00,60.0,56.4,29.99,East,86,0.0,0.0,88,0.00,,---,0.01,VWS V14.01,2013-05-07 13:08:00,
2013-05-07 09:09:00,60.0,56.4,29.99,East,86,0.0,0.0,88,0.00,,---,0.01,VWS V14.01,2013-05-07 13:09:00,
2013-05-07 09:10:00,60.0,56.4,29.99,ENE,71,2.0,3.0,88,0.00,,---,0.01,VWS V14.01,2013-05-07 13:10:00,
2013-05-07 09:11:00,59.9,56.3,29.99,ENE,60,0.0,4.0,88,0.00,,---,0.01,VWS V14.01,2013-05-07 13:11:00,
2013-05-07 09:12:00,59.9,56.3,29.99,NE,49,0.0,1.0,88,0.00,,---,0.01,VWS V14.01,2013-05-07 13:12:00,
2013-05-07 09:13:00,59.9,56.3,29.99,East,81,4.0,6.0,88,0.00,,---,0.01,VWS V14.01,2013-05-07 13:13:00,
2013-05-07 09:14:00,59.9,56.3,29.99,East,81,4.0,6.0,88,0.00,,---,0.01,VWS V14.01,2013-05-07 13:14:00,
2013-05-07 09:15:00,59.9,56.3,29.99,NW,326,0.0,5.0,88,0.00,,---,0.01,VWS V14.01,2013-05-07 13:15:00,
2013-05-07 09:16:00,60.0,56.4,29.99,ENE,60,0.0,1.0,88,0.00,,---,0.01,VWS V14.01,2013-05-07 13:16:00,
2013-05-07 09:17:00,60.0,56.4,29.99,ENE,60,0.0,1.0,88,0.00,,---,0.01,VWS V14.01,2013-05-07 13:17:00,
2013-05-07 09:18:00,60.2,57.0,29.99,NNE,15,0.0,2.0,89,0.00,,---,0.01,VWS V14.01,2013-05-07 13:18:00,
2013-05-07 09:19:00,60.2,57.0,29.99,NNE,15,0.0,2.0,89,0.00,,---,0.01,VWS V14.01,2013-05-07 13:19:00,
2013-05-07 09:20:00,60.3,57.0,29.98,NNE,12,4.0,6.0,89,0.00,,---,0.01,VWS V14.01,2013-05-07 13:20:00,
2013-05-07 09:21:00,60.3,56.7,29.98,North,5,4.0,4.0,88,0.00,,---,0.01,VWS V14.01,2013-05-07 13:21:00,
2013-05-07 09:22:00,60.4,56.8,29.98,ENE,63,1.0,4.0,88,0.00,,---,0.01,VWS V14.01,2013-05-07 13:22:00,
2013-05-07 09:23:00,60.6,57.0,29.98,East,89,4.0,6.0,88,0.00,,---,0.01,VWS V14.01,2013-05-07 13:23:00,
2013-05-07 09:24:00,60.6,57.0,29.98,East,89,4.0,6.0,88,0.00,,---,0.01,VWS V14.01,2013-05-07 13:24:00,
2013-05-07 09:25:00,60.6,56.7,29.98,NE,35,0.0,4.0,87,0.00,,---,0.01,VWS V14.01,2013-05-07 13:25:00,
2013-05-07 09:26:00,60.7,56.8,29.98,NE,50,0.0,1.0,87,0.00,,---,0.01,VWS V14.01,2013-05-07 13:26:00,
2013-05-07 09:27:00,60.7,56.8,29.98,NE,51,1.0,1.0,87,0.00,,---,0.01,VWS V14.01,2013-05-07 13:27:00,
2013-05-07 09:28:00,60.8,56.6,29.98,ENE,78,1.0,1.0,86,0.00,,---,0.01,VWS V14.01,2013-05-07 13:28:00,
2013-05-07 09:29:00,60.8,56.6,29.98,ENE,78,1.0,1.0,86,0.00,,---,0.01,VWS V14.01,2013-05-07 13:29:00,
2013-05-07 09:30:00,60.9,56.7,29.98,NNE,22,1.0,4.0,86,0.00,,---,0.01,VWS V14.01,2013-05-07 13:30:00,
2013-05-07 09:31:00,60.9,56.7,29.98,NE,35,2.0,3.0,86,0.00,,---,0.01,VWS V14.01,2013-05-07 13:31:00,
2013-05-07 09:32:00,60.9,56.7,29.98,East,92,0.0,2.0,86,0.00,,---,0.01,VWS V14.01,2013-05-07 13:32:00,
2013-05-07 09:33:00,61.0,56.8,29.98,ENE,70,0.0,3.0,86,0.00,,---,0.01,VWS V14.01,2013-05-07 13:33:00,
2013-05-07 09:34:00,61.1,56.9,29.98,ENE,71,0.0,1.0,86,0.00,,---,0.01,VWS V14.01,2013-05-07 13:34:00,
2013-05-07 09:35:00,61.1,56.9,29.98,ENE,71,0.0,1.0,86,0.00,,---,0.01,VWS V14.01,2013-05-07 13:35:00,
2013-05-07 09:36:00,61.1,56.9,29.98,ENE,71,0.0,0.0,86,0.00,,---,0.01,VWS V14.01,2013-05-07 13:36:00,
2013-05-07 09:37:00,61.2,57.3,29.98,ENE,71,0.0,0.0,87,0.00,,---,0.01,VWS V14.01,2013-05-07 13:37:00,
2013-05-07 09:38:00,61.2,57.3,29.98,ENE,75,0.0,0.0,87,0.00,,---,0.01,VWS V14.01,2013-05-07 13:38:00,
2013-05-07 09:39:00,61.3,57.4,29.98,NE,49,0.0,1.0,87,0.00,,---,0.01,VWS V14.01,2013-05-07 13:39:00,
2013-05-07 09:40:00,61.3,57.1,29.98,East,84,0.0,3.0,86,0.00,,---,0.01,VWS V14.01,2013-05-07 13:40:00,
2013-05-07 09:41:00,61.3,57.1,29.98,East,84,0.0,3.0,86,0.00,,---,0.01,VWS V14.01,2013-05-07 13:41:00,
2013-05-07 09:42:00,61.3,56.8,29.98,East,83,0.0,1.0,85,0.00,,---,0.01,VWS V14.01,2013-05-07 13:42:00,
2013-05-07 09:43:00,61.3,56.8,29.98,East,83,0.0,1.0,85,0.00,,---,0.01,VWS V14.01,2013-05-07 13:43:00,
2013-05-07 09:44:00,61.3,56.8,29.98,East,83,0.0,0.0,85,0.00,,---,0.01,VWS V14.01,2013-05-07 13:44:00,
2013-05-07 09:45:00,61.3,56.8,29.99,ENE,74,0.0,1.0,85,0.00,,---,0.01,VWS V14.01,2013-05-07 13:45:00,
2013-05-07 09:46:00,61.3,56.8,29.99,ENE,74,0.0,1.0,85,0.00,,---,0.01,VWS V14.01,2013-05-07 13:46:00,
2013-05-07 09:47:00,61.3,56.8,29.98,ENE,74,0.0,1.0,85,0.00,,---,0.01,VWS V14.01,2013-05-07 13:47:00,
2013-05-07 09:48:00,61.3,56.8,29.98,ENE,74,0.0,0.0,85,0.00,,---,0.01,VWS V14.01,2013-05-07 13:48:00,
2013-05-07 09:49:00,61.3,56.8,29.98,ENE,74,0.0,0.0,85,0.00,,---,0.01,VWS V14.01,2013-05-07 13:49:00,
2013-05-07 09:50:00,61.3,56.8,29.98,ENE,73,0.0,0.0,85,0.00,,---,0.01,VWS V14.01,2013-05-07 13:50:00,
2013-05-07 09:51:00,61.4,57.2,29.99,North,5,0.0,1.0,86,0.00,,---,0.01,VWS V14.01,2013-05-07 13:51:00,
2013-05-07 09:52:00,61.4,57.2,29.99,North,5,0.0,1.0,86,0.00,,---,0.01,VWS V14.01,2013-05-07 13:52:00,
2013-05-07 09:53:00,61.5,57.0,29.99,North,9,2.0,3.0,85,0.00,,---,0.01,VWS V14.01,2013-05-07 13:53:00,
2013-05-07 09:54:00,61.6,57.0,29.99,North,355,0.0,2.0,85,0.00,,---,0.01,VWS V14.01,2013-05-07 13:54:00,
2013-05-07 09:55:00,61.7,57.2,29.99,North,5,2.0,4.0,85,0.00,,---,0.01,VWS V14.01,2013-05-07 13:55:00,
2013-05-07 09:56:00,61.8,57.2,29.98,NE,51,0.0,2.0,85,0.00,,---,0.01,VWS V14.01,2013-05-07 13:56:00,
2013-05-07 09:57:00,61.8,57.2,29.98,NE,51,0.0,2.0,85,0.00,,---,0.01,VWS V14.01,2013-05-07 13:57:00,
2013-05-07 09:58:00,61.9,57.3,29.99,NE,51,0.0,1.0,85,0.00,,---,0.01,VWS V14.01,2013-05-07 13:58:00,
2013-05-07 09:59:00,62.0,57.4,29.99,SE,135,2.0,2.0,85,0.00,,---,0.01,VWS V14.01,2013-05-07 13:59:00,
2013-05-07 10:00:00,62.2,57.6,29.99,SE,133,0.0,4.0,85,0.00,,---,0.01,VWS V14.01,2013-05-07 14:00:00,
2013-05-07 10:01:00,62.3,57.7,29.99,ESE,106,2.0,2.0,85,0.00,,---,0.01,VWS V14.01,2013-05-07 14:01:00,
2013-05-07 10:02:00,62.6,57.4,29.99,ENE,77,0.0,5.0,83,0.00,,---,0.01,VWS V14.01,2013-05-07 14:02:00,
2013-05-07 10:03:00,62.6,57.4,29.99,ENE,77,0.0,5.0,83,0.00,,---,0.01,VWS V14.01,2013-05-07 14:03:00,
2013-05-07 10:04:00,62.7,57.5,29.99,ENE,76,0.0,0.0,83,0.00,,---,0.01,VWS V14.01,2013-05-07 14:04:00,
2013-05-07 10:05:00,62.9,58.0,29.98,East,91,0.0,0.0,84,0.00,,---,0.01,VWS V14.01,2013-05-07 14:05:00,
2013-05-07 10:06:00,62.9,58.0,29.99,SE,128,2.0,6.0,84,0.00,,---,0.01,VWS V14.01,2013-05-07 14:06:00,
2013-05-07 10:07:00,62.9,57.3,29.99,SE,128,0.0,2.0,82,0.00,,---,0.01,VWS V14.01,2013-05-07 14:07:00,
2013-05-07 10:08:00,62.9,57.0,29.99,NNE,25,3.0,4.0,81,0.00,,---,0.01,VWS V14.01,2013-05-07 14:08:00,
2013-05-07 10:09:00,62.9,57.0,29.99,NNE,25,3.0,4.0,81,0.00,,---,0.01,VWS V14.01,2013-05-07 14:09:00,
2013-05-07 10:10:00,62.8,56.9,29.99,ENE,78,1.0,4.0,81,0.00,,---,0.01,VWS V14.01,2013-05-07 14:10:00,
2013-05-07 10:11:00,62.7,56.8,29.98,North,5,1.0,3.0,81,0.00,,---,0.01,VWS V14.01,2013-05-07 14:11:00,
2013-05-07 10:12:00,62.7,57.1,29.98,North,5,3.0,3.0,82,0.00,,---,0.01,VWS V14.01,2013-05-07 14:12:00,
2013-05-07 10:13:00,62.6,56.7,29.98,North,355,2.0,3.0,81,0.00,,---,0.01,VWS V14.01,2013-05-07 14:13:00,
2013-05-07 10:14:00,62.4,56.5,29.98,North,351,1.0,1.0,81,0.00,,---,0.01,VWS V14.01,2013-05-07 14:14:00,
2013-05-07 10:15:00,62.4,56.5,29.98,North,351,1.0,1.0,81,0.00,,---,0.01,VWS V14.01,2013-05-07 14:15:00,
2013-05-07 10:16:00,62.4,56.8,29.98,NW,323,1.0,1.0,82,0.00,,---,0.01,VWS V14.01,2013-05-07 14:16:00,
2013-05-07 10:17:00,62.4,57.2,29.98,NNE,13,1.0,2.0,83,0.00,,---,0.01,VWS V14.01,2013-05-07 14:17:00,
2013-05-07 10:18:00,62.4,56.8,29.98,ENE,67,0.0,1.0,82,0.00,,---,0.01,VWS V14.01,2013-05-07 14:18:00,
2013-05-07 10:19:00,62.4,56.8,29.98,NNE,30,2.0,2.0,82,0.00,,---,0.01,VWS V14.01,2013-05-07 14:19:00,
2013-05-07 10:20:00,62.5,56.9,29.98,NE,48,0.0,3.0,82,0.00,,---,0.01,VWS V14.01,2013-05-07 14:20:00,
2013-05-07 10:21:00,62.5,56.9,29.98,NE,48,0.0,3.0,82,0.00,,---,0.01,VWS V14.01,2013-05-07 14:21:00,
2013-05-07 10:22:00,62.5,56.9,29.98,NNE,27,0.0,5.0,82,0.00,,---,0.01,VWS V14.01,2013-05-07 14:22:00,
2013-05-07 10:23:00,62.5,56.6,29.98,NE,38,0.0,1.0,81,0.00,,---,0.01,VWS V14.01,2013-05-07 14:23:00,
2013-05-07 10:24:00,62.5,56.6,29.98,NE,47,0.0,2.0,81,0.00,,---,0.01,VWS V14.01,2013-05-07 14:24:00,
2013-05-07 10:25:00,62.5,56.6,29.98,East,81,1.0,2.0,81,0.00,,---,0.01,VWS V14.01,2013-05-07 14:25:00,
2013-05-07 10:26:00,62.5,56.6,29.98,East,80,1.0,2.0,81,0.00,,---,0.01,VWS V14.01,2013-05-07 14:26:00,
2013-05-07 10:27:00,62.5,56.6,29.98,East,80,1.0,2.0,81,0.00,,---,0.01,VWS V14.01,2013-05-07 14:27:00,
2013-05-07 10:28:00,62.5,56.9,29.98,ESE,122,0.0,4.0,82,0.00,,---,0.01,VWS V14.01,2013-05-07 14:28:00,
2013-05-07 10:29:00,62.5,56.9,29.98,ESE,120,0.0,0.0,82,0.00,,---,0.01,VWS V14.01,2013-05-07 14:29:00,
2013-05-07 10:30:00,62.6,57.4,29.99,NNE,32,0.0,1.0,83,0.00,,---,0.01,VWS V14.01,2013-05-07 14:30:00,
2013-05-07 10:31:00,62.7,57.1,29.98,ENE,69,0.0,3.0,82,0.00,,---,0.01,VWS V14.01,2013-05-07 14:31:00,
2013-05-07 10:32:00,62.7,57.1,29.98,ENE,69,0.0,3.0,82,0.00,,---,0.01,VWS V14.01,2013-05-07 14:32:00,
2013-05-07 10:33:00,62.8,57.2,29.98,ENE,63,2.0,3.0,82,0.00,,---,0.01,VWS V14.01,2013-05-07 14:33:00,
2013-05-07 10:34:00,62.8,56.9,29.98,ENE,65,1.0,2.0,81,0.00,,---,0.01,VWS V14.01,2013-05-07 14:34:00,
2013-05-07 10:35:00,62.9,57.0,29.99,North,355,0.0,3.0,81,0.00,,---,0.01,VWS V14.01,2013-05-07 14:35:00,
2013-05-07 10:36:00,62.9,57.3,29.99,NNE,31,0.0,1.0,82,0.00,,---,0.01,VWS V14.01,2013-05-07 14:36:00,
2013-05-07 10:37:00,62.9,57.3,29.99,NNE,31,0.0,1.0,82,0.00,,---,0.01,VWS V14.01,2013-05-07 14:37:00,
2013-05-07 10:38:00,62.9,57.3,29.99,East,85,1.0,5.0,82,0.00,,---,0.01,VWS V14.01,2013-05-07 14:38:00,
2013-05-07 10:39:00,62.9,57.0,29.99,NE,40,1.0,5.0,81,0.00,,---,0.01,VWS V14.01,2013-05-07 14:39:00,
2013-05-07 10:40:00,63.0,56.7,29.99,ENE,70,4.0,4.0,80,0.00,,---,0.01,VWS V14.01,2013-05-07 14:40:00,
2013-05-07 10:41:00,63.0,57.1,29.99,NE,55,0.0,1.0,81,0.00,,---,0.01,VWS V14.01,2013-05-07 14:41:00,
2013-05-07 10:42:00,63.0,57.1,29.99,NE,55,0.0,1.0,81,0.00,,---,0.01,VWS V14.01,2013-05-07 14:42:00,
2013-05-07 10:43:00,63.1,57.2,29.99,NNE,19,0.0,2.0,81,0.00,,---,0.01,VWS V14.01,2013-05-07 14:43:00,
2013-05-07 10:44:00,63.2,57.3,29.99,NNE,28,0.0,3.0,81,0.00,,---,0.01,VWS V14.01,2013-05-07 14:44:00,
2013-05-07 10:45:00,63.3,57.4,29.99,NNE,13,0.0,1.0,81,0.00,,---,0.01,VWS V14.01,2013-05-07 14:45:00,
2013-05-07 10:46:00,63.6,57.3,29.99,ENE,57,3.0,6.0,80,0.00,,---,0.01,VWS V14.01,2013-05-07 14:46:00,
2013-05-07 10:47:00,63.6,57.3,29.99,ENE,57,3.0,6.0,80,0.00,,---,0.01,VWS V14.01,2013-05-07 14:47:00,
2013-05-07 10:48:00,63.7,57.4,29.99,SE,127,0.0,5.0,80,0.00,,---,0.01,VWS V14.01,2013-05-07 14:48:00,
2013-05-07 10:49:00,63.9,58.0,29.99,SE,142,0.0,4.0,81,0.00,,---,0.01,VWS V14.01,2013-05-07 14:49:00,
2013-05-07 10:50:00,64.1,58.2,29.99,ESE,119,0.0,4.0,81,0.00,,---,0.01,VWS V14.01,2013-05-07 14:50:00,
2013-05-07 10:51:00,64.3,58.3,29.99,SSE,151,6.0,6.0,81,0.00,,---,0.01,VWS V14.01,2013-05-07 14:51:00,
2013-05-07 10:52:00,64.4,57.4,29.98,East,94,4.0,4.0,78,0.00,,---,0.01,VWS V14.01,2013-05-07 14:52:00,
2013-05-07 10:53:00,64.4,57.4,29.98,East,94,4.0,4.0,78,0.00,,---,0.01,VWS V14.01,2013-05-07 14:53:00,
2013-05-07 10:54:00,64.4,57.0,29.98,East,85,1.0,5.0,77,0.00,,---,0.01,VWS V14.01,2013-05-07 14:54:00,
2013-05-07 10:55:00,64.4,56.7,29.98,NE,53,0.0,2.0,76,0.00,,---,0.01,VWS V14.01,2013-05-07 14:55:00,
2013-05-07 10:56:00,64.4,57.0,29.98,East,98,0.0,1.0,77,0.00,,---,0.01,VWS V14.01,2013-05-07 14:56:00,
2013-05-07 10:57:00,64.3,56.9,29.98,East,90,0.0,1.0,77,0.00,,---,0.01,VWS V14.01,2013-05-07 14:57:00,
2013-05-07 10:58:00,64.2,56.8,29.99,ENE,71,0.0,0.0,77,0.00,,---,0.01,VWS V14.01,2013-05-07 14:58:00,
2013-05-07 10:59:00,64.2,56.8,29.99,ENE,71,0.0,0.0,77,0.00,,---,0.01,VWS V14.01,2013-05-07 14:59:00,
2013-05-07 11:00:00,64.1,57.1,29.98,ESE,107,0.0,1.0,78,0.00,,---,0.01,VWS V14.01,2013-05-07 15:00:00,
2013-05-07 11:01:00,64.1,57.1,29.99,East,94,0.0,1.0,78,0.00,,---,0.01,VWS V14.01,2013-05-07 15:01:00,
2013-05-07 11:02:00,64.1,57.1,29.98,SE,145,1.0,5.0,78,0.00,,---,0.01,VWS V14.01,2013-05-07 15:02:00,
2013-05-07 11:03:00,64.1,57.5,29.99,ESE,105,0.0,1.0,79,0.00,,---,0.01,VWS V14.01,2013-05-07 15:03:00,
2013-05-07 11:04:00,64.2,57.6,29.99,East,79,0.0,1.0,79,0.00,,---,0.01,VWS V14.01,2013-05-07 15:04:00,
2013-05-07 11:05:00,64.2,57.6,29.99,East,79,0.0,1.0,79,0.00,,---,0.01,VWS V14.01,2013-05-07 15:05:00,
2013-05-07 11:06:00,64.2,57.6,29.99,NNE,15,3.0,4.0,79,0.00,,---,0.01,VWS V14.01,2013-05-07 15:06:00,
2013-05-07 11:07:00,64.3,57.7,29.98,North,5,0.0,4.0,79,0.00,,---,0.01,VWS V14.01,2013-05-07 15:07:00,
2013-05-07 11:08:00,64.4,57.8,29.98,East,101,1.0,5.0,79,0.00,,---,0.01,VWS V14.01,2013-05-07 15:08:00,
2013-05-07 11:09:00,64.6,57.2,29.98,ESE,102,0.0,1.0,77,0.00,,---,0.01,VWS V14.01,2013-05-07 15:09:00,
2013-05-07 11:10:00,64.6,57.2,29.98,ESE,102,0.0,1.0,77,0.00,,---,0.01,VWS V14.01,2013-05-07 15:10:00,
2013-05-07 11:11:00,64.8,57.4,29.98,NNE,15,1.0,1.0,77,0.00,,---,0.01,VWS V14.01,2013-05-07 15:11:00,
2013-05-07 11:12:00,65.0,58.0,29.98,NE,52,0.0,2.0,78,0.00,,---,0.01,VWS V14.01,2013-05-07 15:12:00,
2013-05-07 11:13:00,65.1,58.1,29.98,ESE,102,2.0,4.0,78,0.00,,---,0.01,VWS V14.01,2013-05-07 15:13:00,
2013-05-07 11:14:00,65.4,57.7,29.98,SE,138,7.0,7.0,76,0.00,,---,0.01,VWS V14.01,2013-05-07 15:14:00,
2013-05-07 11:15:00,65.4,57.7,29.98,SE,138,7.0,7.0,76,0.00,,---,0.01,VWS V14.01,2013-05-07 15:15:00,
2013-05-07 11:16:00,65.4,57.3,29.98,ESE,102,0.0,7.0,75,0.00,,---,0.01,VWS V14.01,2013-05-07 15:16:00,
2013-05-07 11:17:00,65.4,57.3,29.98,NE,46,0.0,1.0,75,0.00,,---,0.01,VWS V14.01,2013-05-07 15:17:00,
2013-05-07 11:18:00,65.4,57.3,29.98,NE,48,0.0,1.0,75,0.00,,---,0.01,VWS V14.01,2013-05-07 15:18:00,
2013-05-07 11:19:00,65.3,57.2,29.98,NNE,21,0.0,3.0,75,0.00,,---,0.01,VWS V14.01,2013-05-07 15:19:00,
2013-05-07 11:20:00,65.3,57.2,29.98,NNE,21,0.0,3.0,75,0.00,,---,0.01,VWS V14.01,2013-05-07 15:20:00,
2013-05-07 11:21:00,65.3,57.9,29.98,East,84,2.0,3.0,77,0.00,,---,0.01,VWS V14.01,2013-05-07 15:21:00,
2013-05-07 11:22:00,65.2,57.1,29.98,NE,45,1.0,5.0,75,0.00,,---,0.01,VWS V14.01,2013-05-07 15:22:00,
2013-05-07 11:23:00,65.2,56.7,29.98,NNE,32,1.0,3.0,74,0.00,,---,0.01,VWS V14.01,2013-05-07 15:23:00,
2013-05-07 11:24:00,65.1,56.6,29.98,NE,40,0.0,4.0,74,0.00,,---,0.01,VWS V14.01,2013-05-07 15:24:00,
2013-05-07 11:25:00,65.0,56.9,29.98,NE,38,0.0,0.0,75,0.00,,---,0.01,VWS V14.01,2013-05-07 15:25:00,
2013-05-07 11:26:00,65.0,56.9,29.98,NE,38,0.0,0.0,75,0.00,,---,0.01,VWS V14.01,2013-05-07 15:26:00,
2013-05-07 11:27:00,65.0,57.3,29.98,East,81,0.0,1.0,76,0.00,,---,0.01,VWS V14.01,2013-05-07 15:27:00,
2013-05-07 11:28:00,65.0,56.9,29.98,ENE,61,2.0,2.0,75,0.00,,---,0.01,VWS V14.01,2013-05-07 15:28:00,
2013-05-07 11:29:00,64.9,56.8,29.98,NE,46,2.0,3.0,75,0.00,,---,0.01,VWS V14.01,2013-05-07 15:29:00,
2013-05-07 11:30:00,65.0,57.3,29.98,NE,56,3.0,4.0,76,0.00,,---,0.01,VWS V14.01,2013-05-07 15:30:00,
2013-05-07 11:31:00,65.0,57.3,29.98,NE,56,3.0,4.0,76,0.00,,---,0.01,VWS V14.01,2013-05-07 15:31:00,
2013-05-07 11:32:00,65.0,57.3,29.98,NNE,28,0.0,3.0,76,0.00,,---,0.01,VWS V14.01,2013-05-07 15:32:00,
2013-05-07 11:33:00,65.0,57.3,29.98,NNE,29,0.0,1.0,76,0.00,,---,0.01,VWS V14.01,2013-05-07 15:33:00,
2013-05-07 11:34:00,65.2,57.8,29.98,NNW,348,0.0,4.0,77,0.00,,---,0.01,VWS V14.01,2013-05-07 15:34:00,
2013-05-07 11:35:00,65.4,58.0,29.98,North,350,2.0,2.0,77,0.00,,---,0.01,VWS V14.01,2013-05-07 15:35:00,
2013-05-07 11:36:00,65.4,58.0,29.98,North,350,2.0,2.0,77,0.00,,---,0.01,VWS V14.01,2013-05-07 15:36:00,
2013-05-07 11:37:00,65.5,57.4,29.98,North,350,0.0,2.0,75,0.00,,---,0.01,VWS V14.01,2013-05-07 15:37:00,
2013-05-07 11:38:00,65.6,57.8,29.98,North,350,0.0,1.0,76,0.00,,---,0.01,VWS V14.01,2013-05-07 15:38:00,
2013-05-07 11:39:00,65.7,58.3,29.98,North,350,0.0,0.0,77,0.00,,---,0.01,VWS V14.01,2013-05-07 15:39:00,
2013-05-07 11:40:00,65.9,58.8,29.97,North,350,0.0,1.0,78,0.00,,---,0.01,VWS V14.01,2013-05-07 15:40:00,
2013-05-07 11:41:00,66.1,57.6,29.98,WNW,298,0.0,2.0,74,0.00,,---,0.01,VWS V14.01,2013-05-07 15:41:00,
2013-05-07 11:42:00,66.1,57.6,29.98,WNW,298,0.0,2.0,74,0.00,,---,0.01,VWS V14.01,2013-05-07 15:42:00,
2013-05-07 11:43:00,66.0,57.5,29.98,WNW,298,0.0,0.0,74,0.00,,---,0.01,VWS V14.01,2013-05-07 15:43:00,
2013-05-07 11:44:00,66.0,57.9,29.98,WNW,298,0.0,1.0,75,0.00,,---,0.01,VWS V14.01,2013-05-07 15:44:00,
2013-05-07 11:45:00,65.9,57.4,29.98,North,9,0.0,3.0,74,0.00,,---,0.01,VWS V14.01,2013-05-07 15:45:00,
2013-05-07 11:46:00,65.8,57.3,29.98,WNW,297,0.0,2.0,74,0.00,,---,0.01,VWS V14.01,2013-05-07 15:46:00,
2013-05-07 11:47:00,65.8,57.3,29.98,WNW,297,0.0,2.0,74,0.00,,---,0.01,VWS V14.01,2013-05-07 15:47:00,
2013-05-07 11:48:00,65.6,56.7,29.98,NW,315,0.0,2.0,73,0.00,,---,0.01,VWS V14.01,2013-05-07 15:48:00,
2013-05-07 11:49:00,65.5,57.0,29.98,WNW,293,0.0,1.0,74,0.00,,---,0.01,VWS V14.01,2013-05-07 15:49:00,
2013-05-07 11:50:00,65.5,57.0,29.98,WNW,293,0.0,0.0,74,0.00,,---,0.01,VWS V14.01,2013-05-07 15:50:00,
2013-05-07 11:51:00,65.4,57.3,29.98,NNE,32,1.0,3.0,75,0.00,,---,0.01,VWS V14.01,2013-05-07 15:51:00,
2013-05-07 11:52:00,65.4,57.3,29.98,NNE,32,1.0,3.0,75,0.00,,---,0.01,VWS V14.01,2013-05-07 15:52:00,
2013-05-07 11:53:00,65.4,56.9,29.98,NNW,342,2.0,5.0,74,0.00,,---,0.01,VWS V14.01,2013-05-07 15:53:00,
2013-05-07 11:54:00,65.4,56.9,29.98,North,355,0.0,2.0,74,0.00,,---,0.01,VWS V14.01,2013-05-07 15:54:00,
2013-05-07 11:55:00,65.4,56.9,29.98,North,360,0.0,4.0,74,0.00,,---,0.01,VWS V14.01,2013-05-07 15:55:00,
2013-05-07 11:56:00,65.4,56.9,29.98,ENE,59,0.0,3.0,74,0.00,,---,0.01,VWS V14.01,2013-05-07 15:56:00,
2013-05-07 11:57:00,65.4,56.9,29.98,ENE,59,0.0,3.0,74,0.00,,---,0.01,VWS V14.01,2013-05-07 15:57:00,
2013-05-07 11:58:00,65.4,56.9,29.98,ENE,66,1.0,1.0,74,0.00,,---,0.01,VWS V14.01,2013-05-07 15:58:00,
2013-05-07 11:59:00,65.5,57.0,29.98,ENE,59,0.0,2.0,74,0.00,,---,0.01,VWS V14.01,2013-05-07 15:59:00,
2013-05-07 12:00:00,65.4,56.9,29.98,NNW,344,4.0,4.0,74,0.00,,---,0.01,VWS V14.01,2013-05-07 16:00:00,
2013-05-07 12:01:00,65.4,56.9,29.98,NNW,344,0.0,3.0,74,0.00,,---,0.01,VWS V14.01,2013-05-07 16:01:00,
2013-05-07 12:02:00,65.4,56.9,29.98,NNW,344,0.0,3.0,74,0.00,,---,0.01,VWS V14.01,2013-05-07 16:02:00,
2013-05-07 12:03:00,65.3,56.8,29.98,NNW,338,0.0,1.0,74,0.00,,---,0.01,VWS V14.01,2013-05-07 16:03:00,
2013-05-07 12:04:00,65.3,57.2,29.98,NNW,342,0.0,1.0,75,0.00,,---,0.01,VWS V14.01,2013-05-07 16:04:00,
2013-05-07 12:05:00,65.3,57.2,29.98,NE,45,0.0,2.0,75,0.00,,---,0.01,VWS V14.01,2013-05-07 16:05:00,
2013-05-07 12:06:00,65.3,57.2,29.98,NNE,24,0.0,2.0,75,0.00,,---,0.01,VWS V14.01,2013-05-07 16:06:00,
2013-05-07 12:07:00,65.3,57.2,29.98,NNE,24,0.0,2.0,75,0.00,,---,0.01,VWS V14.01,2013-05-07 16:07:00,
2013-05-07 12:08:00,65.3,56.8,29.98,North,351,0.0,4.0,74,0.00,,---,0.01,VWS V14.01,2013-05-07 16:08:00,
2013-05-07 12:09:00,65.3,56.4,29.98,North,355,0.0,3.0,73,0.00,,---,0.01,VWS V14.01,2013-05-07 16:09:00,
2013-05-07 12:10:00,65.3,56.4,29.98,North,360,0.0,3.0,73,0.00,,---,0.01,VWS V14.01,2013-05-07 16:10:00,
2013-05-07 12:11:00,65.4,56.9,29.98,NNW,340,0.0,1.0,74,0.00,,---,0.01,VWS V14.01,2013-05-07 16:11:00,
2013-05-07 12:12:00,65.4,56.9,29.98,NNW,340,0.0,1.0,74,0.00,,---,0.01,VWS V14.01,2013-05-07 16:12:00,
2013-05-07 12:13:00,65.4,56.9,29.98,NE,46,0.0,1.0,74,0.00,,---,0.01,VWS V14.01,2013-05-07 16:13:00,
2013-05-07 12:14:00,65.4,56.5,29.98,NE,46,0.0,1.0,73,0.00,,---,0.01,VWS V14.01,2013-05-07 16:14:00,
2013-05-07 12:15:00,65.4,56.9,29.98,NNW,338,2.0,4.0,74,0.00,,---,0.01,VWS V14.01,2013-05-07 16:15:00,
2013-05-07 12:16:00,65.5,57.4,29.98,NNW,346,0.0,1.0,75,0.00,,---,0.01,VWS V14.01,2013-05-07 16:16:00,
2013-05-07 12:17:00,65.5,57.4,29.98,NNW,346,0.0,1.0,75,0.00,,---,0.01,VWS V14.01,2013-05-07 16:17:00,
2013-05-07 12:18:00,65.6,57.5,29.98,NNW,346,0.0,0.0,75,0.00,,---,0.01,VWS V14.01,2013-05-07 16:18:00,
2013-05-07 12:19:00,65.6,57.5,29.98,ENE,67,0.0,1.0,75,0.00,,---,0.01,VWS V14.01,2013-05-07 16:19:00,
2013-05-07 12:20:00,65.7,57.6,29.98,NE,56,0.0,1.0,75,0.00,,---,0.01,VWS V14.01,2013-05-07 16:20:00,
2013-05-07 12:21:00,65.8,57.3,29.98,NNE,22,0.0,2.0,74,0.00,,---,0.01,VWS V14.01,2013-05-07 16:21:00,
2013-05-07 12:22:00,65.8,57.3,29.98,NNE,22,0.0,2.0,74,0.00,,---,0.01,VWS V14.01,2013-05-07 16:22:00,
2013-05-07 12:23:00,65.8,57.3,29.98,ENE,61,0.0,3.0,74,0.00,,---,0.01,VWS V14.01,2013-05-07 16:23:00,
2013-05-07 12:24:00,65.9,57.4,29.98,ENE,61,0.0,1.0,74,0.00,,---,0.01,VWS V14.01,2013-05-07 16:24:00,
2013-05-07 12:25:00,65.9,57.8,29.98,NNW,339,4.0,4.0,75,0.00,,---,0.01,VWS V14.01,2013-05-07 16:25:00,
2013-05-07 12:26:00,65.9,57.0,29.98,North,360,0.0,3.0,73,0.00,,---,0.01,VWS V14.01,2013-05-07 16:26:00,
2013-05-07 12:27:00,65.9,57.0,29.98,North,360,0.0,3.0,73,0.00,,---,0.01,VWS V14.01,2013-05-07 16:27:00,
2013-05-07 12:28:00,65.9,57.0,29.98,NNW,329,5.0,5.0,73,0.00,,---,0.01,VWS V14.01,2013-05-07 16:28:00,
2013-05-07 12:29:00,65.8,56.9,29.98,NNW,331,0.0,5.0,73,0.00,,---,0.01,VWS V14.01,2013-05-07 16:29:00,
2013-05-07 12:30:00,65.7,56.8,29.98,NNW,342,0.0,1.0,73,0.00,,---,0.01,VWS V14.01,2013-05-07 16:30:00,
2013-05-07 12:31:00,65.6,56.7,29.98,NNE,13,0.0,3.0,73,0.00,,---,0.01,VWS V14.01,2013-05-07 16:31:00,
2013-05-07 12:32:00,65.6,56.7,29.98,NNE,13,0.0,3.0,73,0.00,,---,0.01,VWS V14.01,2013-05-07 16:32:00,
2013-05-07 12:33:00,65.5,56.6,29.98,ENE,61,2.0,6.0,73,0.00,,---,0.01,VWS V14.01,2013-05-07 16:33:00,
2013-05-07 12:34:00,65.4,56.9,29.98,NNE,25,0.0,2.0,74,0.00,,---,0.01,VWS V14.01,2013-05-07 16:34:00,
2013-05-07 12:35:00,65.3,56.8,29.98,NNW,340,0.0,7.0,74,0.00,,---,0.01,VWS V14.01,2013-05-07 16:35:00,
2013-05-07 12:36:00,65.2,56.7,29.98,North,349,0.0,1.0,74,0.00,,---,0.01,VWS V14.01,2013-05-07 16:36:00,
2013-05-07 12:37:00,65.2,56.7,29.98,North,349,0.0,1.0,74,0.00,,---,0.01,VWS V14.01,2013-05-07 16:37:00,
2013-05-07 12:38:00,65.2,56.7,29.98,North,5,0.0,3.0,74,0.00,,---,0.01,VWS V14.01,2013-05-07 16:38:00,
2013-05-07 12:39:00,65.1,56.6,29.98,North,5,0.0,1.0,74,0.00,,---,0.01,VWS V14.01,2013-05-07 16:39:00,
2013-05-07 12:40:00,65.1,56.2,29.98,NE,48,2.0,4.0,73,0.00,,---,0.01,VWS V14.01,2013-05-07 16:40:00,
2013-05-07 12:41:00,65.1,56.6,29.98,ENE,61,0.0,1.0,74,0.00,,---,0.01,VWS V14.01,2013-05-07 16:41:00,
2013-05-07 12:42:00,65.1,56.6,29.98,ENE,61,0.0,1.0,74,0.00,,---,0.01,VWS V14.01,2013-05-07 16:42:00,
2013-05-07 12:43:00,65.1,56.6,29.98,ENE,59,0.0,2.0,74,0.00,,---,0.01,VWS V14.01,2013-05-07 16:43:00,
2013-05-07 12:44:00,65.2,56.7,29.98,East,84,0.0,1.0,74,0.00,,---,0.01,VWS V14.01,2013-05-07 16:44:00,
2013-05-07 12:45:00,65.2,57.1,29.98,East,84,0.0,0.0,75,0.00,,---,0.01,VWS V14.01,2013-05-07 16:45:00,
2013-05-07 12:46:00,65.3,57.2,29.98,East,88,0.0,1.0,75,0.00,,---,0.01,VWS V14.01,2013-05-07 16:46:00,
2013-05-07 12:47:00,65.5,56.6,29.98,North,350,0.0,1.0,73,0.00,,---,0.01,VWS V14.01,2013-05-07 16:47:00,
2013-05-07 12:48:00,65.5,56.6,29.98,North,350,0.0,1.0,73,0.00,,---,0.01,VWS V14.01,2013-05-07 16:48:00,
2013-05-07 12:49:00,65.5,56.6,29.98,ENE,62,0.0,3.0,73,0.00,,---,0.01,VWS V14.01,2013-05-07 16:49:00,
2013-05-07 12:50:00,65.5,56.2,29.98,ENE,64,0.0,1.0,72,0.00,,---,0.01,VWS V14.01,2013-05-07 16:50:00,
2013-05-07 12:51:00,65.6,56.7,29.98,NE,53,0.0,1.0,73,0.00,,---,0.01,VWS V14.01,2013-05-07 16:51:00,
2013-05-07 12:52:00,65.6,57.1,29.98,NE,53,0.0,1.0,74,0.00,,---,0.01,VWS V14.01,2013-05-07 16:52:00,
2013-05-07 12:53:00,65.8,56.5,29.98,NNE,29,0.0,4.0,72,0.00,,---,0.01,VWS V14.01,2013-05-07 16:53:00,
2013-05-07 12:54:00,65.8,56.5,29.98,NNE,29,0.0,4.0,72,0.00,,---,0.01,VWS V14.01,2013-05-07 16:54:00,
2013-05-07 12:55:00,65.8,56.5,29.98,NNE,24,0.0,5.0,72,0.00,,---,0.01,VWS V14.01,2013-05-07 16:55:00,
2013-05-07 12:56:00,65.8,56.5,29.98,NE,51,3.0,5.0,72,0.00,,---,0.01,VWS V14.01,2013-05-07 16:56:00,
2013-05-07 12:57:00,65.8,56.5,29.98,NE,49,0.0,3.0,72,0.00,,---,0.01,VWS V14.01,2013-05-07 16:57:00,
2013-05-07 12:58:00,65.8,56.5,29.98,NNE,30,0.0,2.0,72,0.00,,---,0.01,VWS V14.01,2013-05-07 16:58:00,
2013-05-07 12:59:00,65.9,57.0,29.98,ENE,63,2.0,3.0,73,0.00,,---,0.01,VWS V14.01,2013-05-07 16:59:00,
2013-05-07 13:00:00,65.9,57.0,29.98,ENE,63,2.0,3.0,73,0.00,,---,0.01,VWS V14.01,2013-05-07 17:00:00,
2013-05-07 13:01:00,66.0,57.5,29.98,NE,52,0.0,2.0,74,0.00,,---,0.01,VWS V14.01,2013-05-07 17:01:00,
2013-05-07 13:02:00,66.0,57.1,29.98,East,79,0.0,1.0,73,0.00,,---,0.01,VWS V14.01,2013-05-07 17:02:00,
2013-05-07 13:03:00,66.0,56.7,29.98,East,89,0.0,2.0,72,0.00,,---,0.01,VWS V14.01,2013-05-07 17:03:00,
2013-05-07 13:04:00,66.1,56.8,29.98,ENE,68,0.0,3.0,72,0.00,,---,0.01,VWS V14.01,2013-05-07 17:04:00,
2013-05-07 13:05:00,66.1,56.8,29.98,ENE,68,0.0,3.0,72,0.00,,---,0.01,VWS V14.01,2013-05-07 17:05:00,
2013-05-07 13:06:00,66.1,56.8,29.98,ENE,74,1.0,2.0,72,0.00,,---,0.01,VWS V14.01,2013-05-07 17:06:00,
2013-05-07 13:07:00,66.1,56.8,29.98,East,80,0.0,3.0,72,0.00,,---,0.01,VWS V14.01,2013-05-07 17:07:00,
2013-05-07 13:08:00,66.0,56.3,29.98,NNE,31,0.0,1.0,71,0.00,,---,0.01,VWS V14.01,2013-05-07 17:08:00,
2013-05-07 13:09:00,66.0,56.0,29.98,ENE,77,0.0,4.0,70,0.00,,---,0.01,VWS V14.01,2013-05-07 17:09:00,
2013-05-07 13:10:00,66.0,56.0,29.98,NE,54,4.0,6.0,70,0.00,,---,0.01,VWS V14.01,2013-05-07 17:10:00,
2013-05-07 13:11:00,66.0,56.0,29.98,NE,54,4.0,6.0,70,0.00,,---,0.01,VWS V14.01,2013-05-07 17:11:00,
2013-05-07 13:12:00,66.0,56.0,29.98,ESE,120,4.0,5.0,70,0.00,,---,0.01,VWS V14.01,2013-05-07 17:12:00,
2013-05-07 13:13:00,65.9,56.2,29.98,ESE,105,0.0,4.0,71,0.00,,---,0.01,VWS V14.01,2013-05-07 17:13:00,
2013-05-07 13:14:00,65.9,56.2,29.98,East,79,1.0,4.0,71,0.00,,---,0.01,VWS V14.01,2013-05-07 17:14:00,
2013-05-07 13:15:00,65.9,56.6,29.98,North,355,4.0,4.0,72,0.00,,---,0.01,VWS V14.01,2013-05-07 17:15:00,
2013-05-07 13:16:00,65.9,56.6,29.98,ESE,115,0.0,2.0,72,0.00,,---,0.01,VWS V14.01,2013-05-07 17:16:00,
2013-05-07 13:17:00,65.9,56.6,29.98,ESE,115,0.0,2.0,72,0.00,,---,0.01,VWS V14.01,2013-05-07 17:17:00,
2013-05-07 13:18:00,66.0,56.7,29.98,East,92,0.0,1.0,72,0.00,,---,0.01,VWS V14.01,2013-05-07 17:18:00,
2013-05-07 13:19:00,66.0,56.7,29.98,East,91,0.0,1.0,72,0.00,,---,0.01,VWS V14.01,2013-05-07 17:19:00,
2013-05-07 13:20:00,66.0,56.7,29.98,East,96,0.0,2.0,72,0.00,,---,0.01,VWS V14.01,2013-05-07 17:20:00,
2013-05-07 13:21:00,66.1,56.4,29.98,NE,55,0.0,1.0,71,0.00,,---,0.01,VWS V14.01,2013-05-07 17:21:00,
2013-05-07 13:22:00,66.1,56.4,29.98,NE,55,0.0,1.0,71,0.00,,---,0.01,VWS V14.01,2013-05-07 17:22:00,
2013-05-07 13:23:00,66.1,56.8,29.98,NNE,30,1.0,1.0,72,0.00,,---,0.01,VWS V14.01,2013-05-07 17:23:00,
2013-05-07 13:24:00,66.1,56.4,29.98,NNE,22,1.0,3.0,71,0.00,,---,0.01,VWS V14.01,2013-05-07 17:24:00,
2013-05-07 13:25:00,66.1,56.4,29.98,ENE,61,1.0,4.0,71,0.00,,---,0.01,VWS V14.01,2013-05-07 17:25:00,
2013-05-07 13:26:00,66.1,56.4,29.98,ENE,73,1.0,3.0,71,0.00,,---,0.01,VWS V14.01,2013-05-07 17:26:00,
2013-05-07 13:27:00,66.1,56.4,29.98,ENE,73,1.0,3.0,71,0.00,,---,0.01,VWS V14.01,2013-05-07 17:27:00,
2013-05-07 13:28:00,66.1,56.4,29.98,NE,46,1.0,2.0,71,0.00,,---,0.01,VWS V14.01,2013-05-07 17:28:00,
2013-05-07 13:29:00,66.1,56.0,29.98,NE,42,0.0,4.0,70,0.00,,---,0.01,VWS V14.01,2013-05-07 17:29:00,
2013-05-07 13:30:00,66.1,56.4,29.98,NNW,345,3.0,4.0,71,0.00,,---,0.01,VWS V14.01,2013-05-07 17:30:00,
2013-05-07 13:31:00,66.1,56.4,29.97,East,93,0.0,3.0,71,0.00,,---,0.01,VWS V14.01,2013-05-07 17:31:00,
2013-05-07 13:32:00,66.1,56.8,29.98,NNE,28,0.0,1.0,72,0.00,,---,0.01,VWS V14.01,2013-05-07 17:32:00,
2013-05-07 13:33:00,66.1,56.8,29.98,NNE,28,0.0,1.0,72,0.00,,---,0.01,VWS V14.01,2013-05-07 17:33:00,
2013-05-07 13:34:00,66.1,56.8,29.98,ENE,60,0.0,3.0,72,0.00,,---,0.01,VWS V14.01,2013-05-07 17:34:00,
2013-05-07 13:35:00,66.1,57.2,29.97,ENE,60,0.0,0.0,73,0.00,,---,0.01,VWS V14.01,2013-05-07 17:35:00,
2013-05-07 13:36:00,66.2,57.3,29.97,NE,36,0.0,2.0,73,0.00,,---,0.01,VWS V14.01,2013-05-07 17:36:00,
2013-05-07 13:37:00,66.2,56.9,29.98,NE,37,0.0,0.0,72,0.00,,---,0.01,VWS V14.01,2013-05-07 17:37:00,
2013-05-07 13:38:00,66.3,57.0,29.97,NE,37,0.0,0.0,72,0.00,,---,0.01,VWS V14.01,2013-05-07 17:38:00,
2013-05-07 13:39:00,66.3,57.0,29.97,NE,37,0.0,0.0,72,0.00,,---,0.01,VWS V14.01,2013-05-07 17:39:00,
2013-05-07 13:40:00,66.3,57.4,29.97,NE,37,0.0,0.0,73,0.00,,---,0.01,VWS V14.01,2013-05-07 17:40:00,
2013-05-07 13:41:00,66.4,57.1,29.97,East,96,0.0,2.0,72,0.00,,---,0.01,VWS V14.01,2013-05-07 17:41:00,
2013-05-07 13:42:00,66.4,57.5,29.97,ESE,111,1.0,2.0,73,0.00,,---,0.01,VWS V14.01,2013-05-07 17:42:00,
2013-05-07 13:43:00,66.5,57.2,29.97,East,101,4.0,4.0,72,0.00,,---,0.01,VWS V14.01,2013-05-07 17:43:00,
2013-05-07 13:44:00,66.5,56.8,29.97,ENE,78,4.0,4.0,71,0.00,,---,0.01,VWS V14.01,2013-05-07 17:44:00,
2013-05-07 13:45:00,66.5,56.8,29.97,ENE,78,4.0,4.0,71,0.00,,---,0.01,VWS V14.01,2013-05-07 17:45:00,
2013-05-07 13:46:00,66.5,56.8,29.97,East,79,0.0,4.0,71,0.00,,---,0.01,VWS V14.01,2013-05-07 17:46:00,
2013-05-07 13:47:00,66.5,56.8,29.97,East,81,0.0,1.0,71,0.00,,---,0.01,VWS V14.01,2013-05-07 17:47:00,
2013-05-07 13:48:00,66.6,57.3,29.97,ESE,103,4.0,4.0,72,0.00,,---,0.01,VWS V14.01,2013-05-07 17:48:00,
2013-05-07 13:49:00,66.8,57.5,29.97,NNE,33,1.0,2.0,72,0.00,,---,0.01,VWS V14.01,2013-05-07 17:49:00,
2013-05-07 13:50:00,66.8,57.5,29.97,NNE,33,1.0,2.0,72,0.00,,---,0.01,VWS V14.01,2013-05-07 17:50:00,
2013-05-07 13:51:00,66.9,57.2,29.97,East,81,2.0,4.0,71,0.00,,---,0.01,VWS V14.01,2013-05-07 17:51:00,
2013-05-07 13:52:00,67.0,57.7,29.97,NE,43,0.0,2.0,72,0.00,,---,0.01,VWS V14.01,2013-05-07 17:52:00,
2013-05-07 13:53:00,67.2,57.9,29.97,North,10,0.0,1.0,72,0.00,,---,0.01,VWS V14.01,2013-05-07 17:53:00,
2013-05-07 13:54:00,67.4,58.1,29.97,North,5,3.0,4.0,72,0.00,,---,0.01,VWS V14.01,2013-05-07 17:54:00,
2013-05-07 13:55:00,67.4,58.1,29.97,North,5,3.0,4.0,72,0.00,,---,0.01,VWS V14.01,2013-05-07 17:55:00,
2013-05-07 13:56:00,67.5,57.0,29.97,NNW,337,0.0,4.0,69,0.00,,---,0.01,VWS V14.01,2013-05-07 17:56:00,
2013-05-07 13:57:00,67.6,57.5,29.97,NW,317,0.0,2.0,70,0.00,,---,0.01,VWS V14.01,2013-05-07 17:57:00,
2013-05-07 13:58:00,67.7,57.2,29.97,WNW,298,1.0,3.0,69,0.00,,---,0.01,VWS V14.01,2013-05-07 17:58:00,
2013-05-07 13:59:00,67.8,58.1,29.97,SSE,147,7.0,7.0,71,0.00,,---,0.01,VWS V14.01,2013-05-07 17:59:00,
2013-05-07 14:00:00,67.8,58.1,29.97,SSE,147,7.0,7.0,71,0.00,,---,0.01,VWS V14.01,2013-05-07 18:00:00,
2013-05-07 14:01:00,67.9,57.8,29.97,East,100,1.0,7.0,70,0.00,,---,0.01,VWS V14.01,2013-05-07 18:01:00,
2013-05-07 14:02:00,67.9,57.4,29.97,East,86,0.0,6.0,69,0.00,,---,0.01,VWS V14.01,2013-05-07 18:02:00,
2013-05-07 14:03:00,68.0,57.9,29.97,East,86,0.0,1.0,70,0.00,,---,0.01,VWS V14.01,2013-05-07 18:03:00,
2013-05-07 14:04:00,68.1,58.0,29.97,ENE,71,3.0,3.0,70,0.00,,---,0.01,VWS V14.01,2013-05-07 18:04:00,
2013-05-07 14:05:00,68.2,57.7,29.97,ENE,57,0.0,3.0,69,0.00,,---,0.01,VWS V14.01,2013-05-07 18:05:00,
2013-05-07 14:06:00,68.2,57.7,29.97,ENE,57,0.0,3.0,69,0.00,,---,0.01,VWS V14.01,2013-05-07 18:06:00,
2013-05-07 14:07:00,68.2,58.0,29.97,ESE,106,4.0,5.0,70,0.00,,---,0.01,VWS V14.01,2013-05-07 18:07:00,
2013-05-07 14:08:00,68.3,57.8,29.97,SE,130,5.0,5.0,69,0.00,,---,0.01,VWS V14.01,2013-05-07 18:08:00,
2013-05-07 14:09:00,68.3,57.8,29.97,ESE,112,1.0,5.0,69,0.00,,---,0.01,VWS V14.01,2013-05-07 18:09:00,
2013-05-07 14:10:00,68.2,57.2,29.97,ENE,69,0.0,1.0,68,0.00,,---,0.01,VWS V14.01,2013-05-07 18:10:00,
2013-05-07 14:11:00,68.2,57.2,29.97,ENE,69,0.0,1.0,68,0.00,,---,0.01,VWS V14.01,2013-05-07 18:11:00,
2013-05-07 14:12:00,68.2,57.7,29.97,ENE,69,0.0,0.0,69,0.00,,---,0.01,VWS V14.01,2013-05-07 18:12:00,
2013-05-07 14:13:00,68.2,57.7,29.97,SE,136,4.0,4.0,69,0.00,,---,0.01,VWS V14.01,2013-05-07 18:13:00,
2013-05-07 14:14:00,68.2,57.7,29.97,SE,128,0.0,6.0,69,0.00,,---,0.01,VWS V14.01,2013-05-07 18:14:00,
2013-05-07 14:15:00,68.3,58.2,29.97,SE,134,4.0,5.0,70,0.00,,---,0.01,VWS V14.01,2013-05-07 18:15:00,
2013-05-07 14:16:00,68.3,58.2,29.97,SE,134,4.0,5.0,70,0.00,,---,0.01,VWS V14.01,2013-05-07 18:16:00,
2013-05-07 14:17:00,68.3,58.2,29.97,ENE,63,2.0,5.0,70,0.00,,---,0.01,VWS V14.01,2013-05-07 18:17:00,
2013-05-07 14:18:00,68.4,58.2,29.97,North,360,1.0,4.0,70,0.00,,---,0.01,VWS V14.01,2013-05-07 18:18:00,
2013-05-07 14:19:00,68.6,59.2,29.97,ENE,67,0.0,2.0,72,0.00,,---,0.01,VWS V14.01,2013-05-07 18:19:00,
2013-05-07 14:20:00,68.9,58.7,29.97,NNE,23,4.0,6.0,70,0.00,,---,0.01,VWS V14.01,2013-05-07 18:20:00,
2013-05-07 14:21:00,68.9,58.7,29.97,NNE,23,4.0,6.0,70,0.00,,---,0.01,VWS V14.01,2013-05-07 18:21:00,
2013-05-07 14:22:00,69.0,58.0,29.97,North,9,3.0,5.0,68,0.00,,---,0.01,VWS V14.01,2013-05-07 18:22:00,
2013-05-07 14:23:00,69.0,58.0,29.97,North,360,1.0,4.0,68,0.00,,---,0.01,VWS V14.01,2013-05-07 18:23:00,
2013-05-07 14:24:00,69.1,57.7,29.97,NNE,15,0.0,2.0,67,0.00,,---,0.01,VWS V14.01,2013-05-07 18:24:00,
2013-05-07 14:25:00,69.2,58.2,29.97,NNW,334,2.0,2.0,68,0.00,,---,0.01,VWS V14.01,2013-05-07 18:25:00,
2013-05-07 14:26:00,69.3,58.7,29.96,NW,325,0.0,1.0,69,0.00,,---,0.01,VWS V14.01,2013-05-07 18:26:00,
2013-05-07 14:27:00,69.3,58.7,29.96,NW,325,0.0,1.0,69,0.00,,---,0.01,VWS V14.01,2013-05-07 18:27:00,
2013-05-07 14:28:00,69.3,57.9,29.96,NW,317,0.0,2.0,67,0.00,,---,0.01,VWS V14.01,2013-05-07 18:28:00,
2013-05-07 14:29:00,69.3,57.9,29.97,ENE,76,0.0,1.0,67,0.00,,---,0.01,VWS V14.01,2013-05-07 18:29:00,
2013-05-07 14:30:00,69.2,57.8,29.96,ESE,115,1.0,9.0,67,0.00,,---,0.01,VWS V14.01,2013-05-07 18:30:00,
2013-05-07 14:31:00,69.2,57.8,29.96,SSE,153,5.0,7.0,67,0.00,,---,0.01,VWS V14.01,2013-05-07 18:31:00,
2013-05-07 14:32:00,69.2,57.8,29.96,SSE,153,5.0,7.0,67,0.00,,---,0.01,VWS V14.01,2013-05-07 18:32:00,
2013-05-07 14:33:00,69.1,57.3,29.96,ESE,108,0.0,6.0,66,0.00,,---,0.01,VWS V14.01,2013-05-07 18:33:00,
2013-05-07 14:34:00,69.0,57.2,29.96,ESE,109,0.0,1.0,66,0.00,,---,0.01,VWS V14.01,2013-05-07 18:34:00,
2013-05-07 14:35:00,69.0,57.6,29.96,SE,138,2.0,8.0,67,0.00,,---,0.01,VWS V14.01,2013-05-07 18:35:00,
2013-05-07 14:36:00,68.9,57.1,29.96,East,90,1.0,4.0,66,0.00,,---,0.01,VWS V14.01,2013-05-07 18:36:00,
2013-05-07 14:37:00,68.7,57.3,29.96,East,96,0.0,0.0,67,0.00,,---,0.01,VWS V14.01,2013-05-07 18:37:00,
2013-05-07 14:38:00,68.7,57.3,29.96,East,96,0.0,0.0,67,0.00,,---,0.01,VWS V14.01,2013-05-07 18:38:00,
2013-05-07 14:39:00,68.7,57.7,29.96,East,96,0.0,1.0,68,0.00,,---,0.01,VWS V14.01,2013-05-07 18:39:00,
2013-05-07 14:40:00,68.7,57.3,29.96,East,96,0.0,1.0,67,0.00,,---,0.01,VWS V14.01,2013-05-07 18:40:00,
2013-05-07 14:41:00,68.6,57.2,29.96,ENE,73,0.0,1.0,67,0.00,,---,0.01,VWS V14.01,2013-05-07 18:41:00,
2013-05-07 14:42:00,68.7,57.7,29.96,NNW,345,2.0,2.0,68,0.00,,---,0.01,VWS V14.01,2013-05-07 18:42:00,
2013-05-07 14:43:00,68.7,57.7,29.96,NNW,345,2.0,2.0,68,0.00,,---,0.01,VWS V14.01,2013-05-07 18:43:00,
2013-05-07 14:44:00,68.8,57.8,29.96,ENE,66,3.0,4.0,68,0.00,,---,0.01,VWS V14.01,2013-05-07 18:44:00,
2013-05-07 14:45:00,68.8,57.8,29.96,NNE,21,0.0,3.0,68,0.00,,---,0.01,VWS V14.01,2013-05-07 18:45:00,
2013-05-07 14:46:00,69.0,58.4,29.96,North,355,0.0,2.0,69,0.00,,---,0.01,VWS V14.01,2013-05-07 18:46:00,
2013-05-07 14:47:00,69.2,58.6,29.96,NNW,347,0.0,4.0,69,0.00,,---,0.01,VWS V14.01,2013-05-07 18:47:00,
2013-05-07 14:48:00,69.4,58.0,29.96,NNE,20,1.0,2.0,67,0.00,,---,0.01,VWS V14.01,2013-05-07 18:48:00,
2013-05-07 14:49:00,69.4,58.0,29.96,NNE,20,1.0,2.0,67,0.00,,---,0.01,VWS V14.01,2013-05-07 18:49:00,
2013-05-07 14:50:00,69.5,58.1,29.96,ENE,73,4.0,6.0,67,0.00,,---,0.01,VWS V14.01,2013-05-07 18:50:00,
2013-05-07 14:51:00,69.7,57.8,29.96,North,11,0.0,4.0,66,0.00,,---,0.01,VWS V14.01,2013-05-07 18:51:00,
2013-05-07 14:52:00,69.8,57.9,29.96,NNE,26,0.0,3.0,66,0.00,,---,0.01,VWS V14.01,2013-05-07 18:52:00,
2013-05-07 14:53:00,70.0,57.7,29.96,NE,36,0.0,6.0,65,0.00,,---,0.01,VWS V14.01,2013-05-07 18:53:00,
2013-05-07 14:54:00,70.3,57.6,29.96,ENE,75,0.0,5.0,64,0.00,,---,0.01,VWS V14.01,2013-05-07 18:54:00,
2013-05-07 14:55:00,70.3,57.6,29.96,ENE,75,0.0,5.0,64,0.00,,---,0.01,VWS V14.01,2013-05-07 18:55:00,
2013-05-07 14:56:00,70.4,57.7,29.96,North,360,1.0,1.0,64,0.00,,---,0.01,VWS V14.01,2013-05-07 18:56:00,
2013-05-07 14:57:00,70.5,58.2,29.96,East,94,1.0,4.0,65,0.00,,---,0.01,VWS V14.01,2013-05-07 18:57:00,
2013-05-07 14:58:00,70.6,58.3,29.95,NE,54,1.0,1.0,65,0.00,,---,0.01,VWS V14.01,2013-05-07 18:58:00,
2013-05-07 14:59:00,70.8,58.0,29.95,SE,126,6.0,7.0,64,0.00,,---,0.01,VWS V14.01,2013-05-07 18:59:00,
2013-05-07 15:00:00,70.8,58.0,29.95,SE,126,6.0,7.0,64,0.00,,---,0.01,VWS V14.01,2013-05-07 19:00:00,
2013-05-07 15:01:00,70.8,58.0,29.95,NE,49,1.0,6.0,64,0.00,,---,0.01,VWS V14.01,2013-05-07 19:01:00,
2013-05-07 15:02:00,70.9,57.7,29.95,ENE,62,0.0,4.0,63,0.00,,---,0.01,VWS V14.01,2013-05-07 19:02:00,
2013-05-07 15:03:00,70.9,59.0,29.95,NNE,14,0.0,1.0,66,0.00,,---,0.01,VWS V14.01,2013-05-07 19:03:00,
2013-05-07 15:04:00,71.1,57.9,29.95,East,100,0.0,3.0,63,0.00,,---,0.01,VWS V14.01,2013-05-07 19:04:00,
2013-05-07 15:05:00,71.1,57.9,29.95,East,100,0.0,3.0,63,0.00,,---,0.01,VWS V14.01,2013-05-07 19:05:00,
2013-05-07 15:06:00,71.1,57.4,29.95,ENE,62,1.0,4.0,62,0.00,,---,0.01,VWS V14.01,2013-05-07 19:06:00,
2013-05-07 15:07:00,71.1,57.9,29.95,ENE,57,0.0,3.0,63,0.00,,---,0.01,VWS V14.01,2013-05-07 19:07:00,
2013-05-07 15:08:00,71.1,58.3,29.95,NNE,14,2.0,2.0,64,0.00,,---,0.01,VWS V14.01,2013-05-07 19:08:00,
2013-05-07 15:09:00,71.2,58.0,29.95,NNE,12,0.0,3.0,63,0.00,,---,0.01,VWS V14.01,2013-05-07 19:09:00,
2013-05-07 15:10:00,71.2,58.0,29.95,NNE,12,0.0,3.0,63,0.00,,---,0.01,VWS V14.01,2013-05-07 19:10:00,
2013-05-07 15:11:00,71.2,58.0,29.95,North,5,0.0,1.0,63,0.00,,---,0.01,VWS V14.01,2013-05-07 19:11:00,
2013-05-07 15:12:00,71.3,58.9,29.95,NNW,332,1.0,1.0,65,0.00,,---,0.01,VWS V14.01,2013-05-07 19:12:00,
2013-05-07 15:13:00,71.5,58.7,29.95,NE,49,0.0,5.0,64,0.00,,---,0.01,VWS V14.01,2013-05-07 19:13:00,
2013-05-07 15:14:00,71.6,58.8,29.95,NNW,345,3.0,3.0,64,0.00,,---,0.01,VWS V14.01,2013-05-07 19:14:00,
2013-05-07 15:15:00,71.8,57.6,29.95,ENE,61,0.0,2.0,61,0.00,,---,0.01,VWS V14.01,2013-05-07 19:15:00,
2013-05-07 15:16:00,71.8,57.6,29.95,ENE,61,0.0,2.0,61,0.00,,---,0.01,VWS V14.01,2013-05-07 19:16:00,
2013-05-07 15:17:00,71.9,57.7,29.95,ENE,61,0.0,1.0,61,0.00,,---,0.01,VWS V14.01,2013-05-07 19:17:00,
2013-05-07 15:18:00,71.9,57.7,29.95,East,91,0.0,1.0,61,0.00,,---,0.01,VWS V14.01,2013-05-07 19:18:00,
2013-05-07 15:19:00,71.9,57.7,29.95,ESE,108,2.0,7.0,61,0.00,,---,0.01,VWS V14.01,2013-05-07 19:19:00,
2013-05-07 15:20:00,71.6,57.5,29.95,SSE,164,0.0,2.0,61,0.00,,---,0.01,VWS V14.01,2013-05-07 19:20:00,
2013-05-07 15:21:00,71.6,57.5,29.95,SSE,164,0.0,2.0,61,0.00,,---,0.01,VWS V14.01,2013-05-07 19:21:00,
2013-05-07 15:22:00,71.5,57.8,29.95,ESE,121,0.0,4.0,62,0.00,,---,0.01,VWS V14.01,2013-05-07 19:22:00,
2013-05-07 15:23:00,71.3,57.2,29.95,ENE,77,0.0,1.0,61,0.00,,---,0.01,VWS V14.01,2013-05-07 19:23:00,
2013-05-07 15:24:00,71.2,57.5,29.95,SSE,148,0.0,5.0,62,0.00,,---,0.01,VWS V14.01,2013-05-07 19:24:00,
2013-05-07 15:25:00,71.1,57.9,29.95,NE,52,0.0,1.0,63,0.00,,---,0.01,VWS V14.01,2013-05-07 19:25:00,
2013-05-07 15:26:00,70.9,57.2,29.95,East,86,0.0,4.0,62,0.00,,---,0.01,VWS V14.01,2013-05-07 19:26:00,
2013-05-07 15:27:00,70.9,57.2,29.95,East,86,0.0,4.0,62,0.00,,---,0.01,VWS V14.01,2013-05-07 19:27:00,
2013-05-07 15:28:00,70.8,58.0,29.95,SSE,147,6.0,6.0,64,0.00,,---,0.01,VWS V14.01,2013-05-07 19:28:00,
2013-05-07 15:29:00,70.8,57.6,29.94,East,87,0.0,6.0,63,0.00,,---,0.01,VWS V14.01,2013-05-07 19:29:00,
2013-05-07 15:30:00,70.7,57.5,29.94,ENE,57,2.0,2.0,63,0.00,,---,0.01,VWS V14.01,2013-05-07 19:30:00,
2013-05-07 15:31:00,70.6,57.4,29.95,NNE,16,1.0,3.0,63,0.00,,---,0.01,VWS V14.01,2013-05-07 19:31:00,
2013-05-07 15:32:00,70.5,56.9,29.94,NE,36,0.0,1.0,62,0.00,,---,0.01,VWS V14.01,2013-05-07 19:32:00,
2013-05-07 15:33:00,70.5,56.9,29.94,NE,36,0.0,1.0,62,0.00,,---,0.01,VWS V14.01,2013-05-07 19:33:00,
2013-05-07 15:34:00,70.4,57.7,29.94,North,5,3.0,3.0,64,0.00,,---,0.01,VWS V14.01,2013-05-07 19:34:00,
2013-05-07 15:35:00,70.4,57.2,29.94,NNE,30,0.0,3.0,63,0.00,,---,0.01,VWS V14.01,2013-05-07 19:35:00,
2013-05-07 15:36:00,70.4,57.7,29.94,WNW,293,0.0,1.0,64,0.00,,---,0.01,VWS V14.01,2013-05-07 19:36:00,
2013-05-07 15:37:00,70.4,57.7,29.94,NW,323,4.0,4.0,64,0.00,,---,0.01,VWS V14.01,2013-05-07 19:37:00,
2013-05-07 15:38:00,70.6,57.8,29.94,North,349,2.0,3.0,64,0.00,,---,0.01,VWS V14.01,2013-05-07 19:38:00,
2013-05-07 15:39:00,70.6,57.8,29.94,North,349,2.0,3.0,64,0.00,,---,0.01,VWS V14.01,2013-05-07 19:39:00,
2013-05-07 15:40:00,70.6,57.8,29.94,North,355,0.0,5.0,64,0.00,,---,0.01,VWS V14.01,2013-05-07 19:40:00,
2013-05-07 15:41:00,70.7,58.4,29.94,NNE,15,3.0,3.0,65,0.00,,---,0.01,VWS V14.01,2013-05-07 19:41:00,
2013-05-07 15:42:00,70.7,57.9,29.94,NNW,342,0.0,4.0,64,0.00,,---,0.01,VWS V14.01,2013-05-07 19:42:00,
2013-05-07 15:43:00,70.8,58.5,29.94,NE,39,0.0,1.0,65,0.00,,---,0.01,VWS V14.01,2013-05-07 19:43:00,
2013-05-07 15:44:00,71.0,58.2,29.94,NE,45,0.0,1.0,64,0.00,,---,0.01,VWS V14.01,2013-05-07 19:44:00,
2013-05-07 15:45:00,71.0,58.2,29.94,NE,45,0.0,1.0,64,0.00,,---,0.01,VWS V14.01,2013-05-07 19:45:00,
2013-05-07 15:46:00,71.1,58.8,29.94,NNE,18,0.0,3.0,65,0.00,,---,0.01,VWS V14.01,2013-05-07 19:46:00,
2013-05-07 15:47:00,71.2,58.4,29.94,North,355,0.0,1.0,64,0.00,,---,0.01,VWS V14.01,2013-05-07 19:47:00,
2013-05-07 15:48:00,71.2,58.4,29.94,NNW,340,0.0,1.0,64,0.00,,---,0.01,VWS V14.01,2013-05-07 19:48:00,
2013-05-07 15:49:00,71.3,58.5,29.94,North,355,0.0,1.0,64,0.00,,---,0.01,VWS V14.01,2013-05-07 19:49:00,
2013-05-07 15:50:00,71.4,58.2,29.94,WNW,283,0.0,2.0,63,0.00,,---,0.01,VWS V14.01,2013-05-07 19:50:00,
2013-05-07 15:51:00,71.4,58.2,29.94,WNW,283,0.0,2.0,63,0.00,,---,0.01,VWS V14.01,2013-05-07 19:51:00,
2013-05-07 15:52:00,71.5,58.7,29.94,WNW,285,0.0,1.0,64,0.00,,---,0.01,VWS V14.01,2013-05-07 19:52:00,
2013-05-07 15:53:00,71.5,59.1,29.94,SW,222,0.0,1.0,65,0.00,,---,0.01,VWS V14.01,2013-05-07 19:53:00,
2013-05-07 15:54:00,71.6,58.3,29.94,North,360,0.0,2.0,63,0.00,,---,0.01,VWS V14.01,2013-05-07 19:54:00,
2013-05-07 15:55:00,71.8,58.1,29.94,NNE,33,0.0,1.0,62,0.00,,---,0.01,VWS V14.01,2013-05-07 19:55:00,
2013-05-07 15:56:00,71.8,58.1,29.94,NNE,33,0.0,1.0,62,0.00,,---,0.01,VWS V14.01,2013-05-07 19:56:00,
2013-05-07 15:57:00,71.9,58.6,29.94,NE,56,1.0,1.0,63,0.00,,---,0.01,VWS V14.01,2013-05-07 19:57:00,
2013-05-07 15:58:00,72.1,58.4,29.94,East,82,0.0,2.0,62,0.00,,---,0.01,VWS V14.01,2013-05-07 19:58:00,
2013-05-07 15:59:00,72.2,57.6,29.94,NE,46,0.0,3.0,60,0.00,,---,0.01,VWS V14.01,2013-05-07 19:59:00,
2013-05-07 16:00:00,72.5,56.4,29.94,ENE,71,0.0,2.0,57,0.00,,---,0.01,VWS V14.01,2013-05-07 20:00:00,
2013-05-07 16:01:00,72.5,56.4,29.94,ENE,71,0.0,2.0,57,0.00,,---,0.01,VWS V14.01,2013-05-07 20:01:00,
2013-05-07 16:02:00,72.5,56.9,29.94,ENE,71,0.0,0.0,58,0.00,,---,0.01,VWS V14.01,2013-05-07 20:02:00,
2013-05-07 16:03:00,72.5,57.4,29.94,ENE,71,0.0,1.0,59,0.00,,---,0.01,VWS V14.01,2013-05-07 20:03:00,
2013-05-07 16:04:00,72.6,57.5,29.94,East,87,0.0,1.0,59,0.00,,---,0.01,VWS V14.01,2013-05-07 20:04:00,
2013-05-07 16:05:00,72.7,58.0,29.93,NNW,340,0.0,1.0,60,0.00,,---,0.01,VWS V14.01,2013-05-07 20:05:00,
2013-05-07 16:06:00,72.7,58.0,29.93,NNW,340,0.0,1.0,60,0.00,,---,0.01,VWS V14.01,2013-05-07 20:06:00,
2013-05-07 16:07:00,72.8,58.6,29.93,NNW,336,0.0,4.0,61,0.00,,---,0.01,VWS V14.01,2013-05-07 20:07:00,
2013-05-07 16:08:00,72.8,58.1,29.93,NNE,19,0.0,3.0,60,0.00,,---,0.01,VWS V14.01,2013-05-07 20:08:00,
2013-05-07 16:09:00,72.8,58.1,29.93,North,360,0.0,1.0,60,0.00,,---,0.01,VWS V14.01,2013-05-07 20:09:00,
2013-05-07 16:10:00,72.9,58.2,29.93,NNW,334,0.0,1.0,60,0.00,,---,0.01,VWS V14.01,2013-05-07 20:10:00,
2013-05-07 16:11:00,73.0,58.3,29.93,NNW,346,0.0,1.0,60,0.00,,---,0.01,VWS V14.01,2013-05-07 20:11:00,
2013-05-07 16:12:00,73.0,58.3,29.93,NNW,346,0.0,1.0,60,0.00,,---,0.01,VWS V14.01,2013-05-07 20:12:00,
2013-05-07 16:13:00,73.0,57.8,29.94,NNW,344,0.0,1.0,59,0.00,,---,0.01,VWS V14.01,2013-05-07 20:13:00,
2013-05-07 16:14:00,73.0,57.4,29.93,NNW,344,0.0,0.0,58,0.00,,---,0.01,VWS V14.01,2013-05-07 20:14:00,
2013-05-07 16:15:00,73.1,57.5,29.93,SE,130,0.0,1.0,58,0.00,,---,0.01,VWS V14.01,2013-05-07 20:15:00,
2013-05-07 16:16:00,73.1,57.5,29.93,North,9,0.0,1.0,58,0.00,,---,0.01,VWS V14.01,2013-05-07 20:16:00,
2013-05-07 16:17:00,73.1,57.5,29.93,North,9,0.0,1.0,58,0.00,,---,0.01,VWS V14.01,2013-05-07 20:17:00,
2013-05-07 16:18:00,73.1,58.4,29.93,North,11,0.0,1.0,60,0.00,,---,0.01,VWS V14.01,2013-05-07 20:18:00,
2013-05-07 16:19:00,73.1,58.4,29.93,NNE,31,0.0,5.0,60,0.00,,---,0.01,VWS V14.01,2013-05-07 20:19:00,
2013-05-07 16:20:00,73.1,57.9,29.93,NNW,327,0.0,3.0,59,0.00,,---,0.01,VWS V14.01,2013-05-07 20:20:00,
2013-05-07 16:21:00,73.1,57.5,29.93,NNW,345,0.0,3.0,58,0.00,,---,0.01,VWS V14.01,2013-05-07 20:21:00,
2013-05-07 16:22:00,73.2,59.0,29.93,North,5,0.0,1.0,61,0.00,,---,0.01,VWS V14.01,2013-05-07 20:22:00,
2013-05-07 16:23:00,73.2,59.0,29.93,North,5,0.0,1.0,61,0.00,,---,0.01,VWS V14.01,2013-05-07 20:23:00,
2013-05-07 16:24:00,73.2,58.5,29.93,North,5,0.0,1.0,60,0.00,,---,0.01,VWS V14.01,2013-05-07 20:24:00,
2013-05-07 16:25:00,73.3,58.6,29.93,NE,53,1.0,5.0,60,0.00,,---,0.01,VWS V14.01,2013-05-07 20:25:00,
2013-05-07 16:26:00,73.3,57.7,29.93,NNW,341,0.0,4.0,58,0.00,,---,0.01,VWS V14.01,2013-05-07 20:26:00,
2013-05-07 16:27:00,73.2,58.0,29.93,North,5,0.0,3.0,59,0.00,,---,0.01,VWS V14.01,2013-05-07 20:27:00,
2013-05-07 16:28:00,73.2,58.0,29.93,North,5,0.0,3.0,59,0.00,,---,0.01,VWS V14.01,2013-05-07 20:28:00,
2013-05-07 16:29:00,73.2,58.5,29.93,NNE,19,0.0,1.0,60,0.00,,---,0.01,VWS V14.01,2013-05-07 20:29:00,
2013-05-07 16:30:00,73.2,58.0,29.93,NNW,338,0.0,1.0,59,0.00,,---,0.01,VWS V14.01,2013-05-07 20:30:00,
2013-05-07 16:31:00,73.3,58.1,29.93,NNW,338,0.0,0.0,59,0.00,,---,0.01,VWS V14.01,2013-05-07 20:31:00,
2013-05-07 16:32:00,73.4,58.2,29.93,North,5,0.0,1.0,59,0.00,,---,0.01,VWS V14.01,2013-05-07 20:32:00,
2013-05-07 16:33:00,73.4,58.2,29.93,North,5,0.0,1.0,59,0.00,,---,0.01,VWS V14.01,2013-05-07 20:33:00,
2013-05-07 16:34:00,73.5,58.3,29.93,NE,34,2.0,2.0,59,0.00,,---,0.01,VWS V14.01,2013-05-07 20:34:00,
2013-05-07 16:35:00,73.6,58.4,29.93,North,5,0.0,2.0,59,0.00,,---,0.01,VWS V14.01,2013-05-07 20:35:00,
2013-05-07 16:36:00,73.6,58.9,29.93,NNE,18,0.0,1.0,60,0.00,,---,0.01,VWS V14.01,2013-05-07 20:36:00,
2013-05-07 16:37:00,73.8,58.6,29.93,ENE,71,0.0,1.0,59,0.00,,---,0.01,VWS V14.01,2013-05-07 20:37:00,
2013-05-07 16:38:00,73.8,58.6,29.93,ENE,71,0.0,1.0,59,0.00,,---,0.01,VWS V14.01,2013-05-07 20:38:00,
2013-05-07 16:39:00,73.9,57.7,29.93,East,83,1.0,6.0,57,0.00,,---,0.01,VWS V14.01,2013-05-07 20:39:00,
2013-05-07 16:40:00,74.0,57.8,29.93,ENE,66,0.0,3.0,57,0.00,,---,0.01,VWS V14.01,2013-05-07 20:40:00,
2013-05-07 16:41:00,74.0,58.3,29.93,ENE,74,1.0,1.0,58,0.00,,---,0.01,VWS V14.01,2013-05-07 20:41:00,
2013-05-07 16:42:00,74.0,58.8,29.93,NW,325,0.0,2.0,59,0.00,,---,0.01,VWS V14.01,2013-05-07 20:42:00,
2013-05-07 16:43:00,74.0,58.8,29.93,NW,325,0.0,2.0,59,0.00,,---,0.01,VWS V14.01,2013-05-07 20:43:00,
2013-05-07 16:44:00,74.0,58.8,29.93,NNW,333,0.0,1.0,59,0.00,,---,0.01,VWS V14.01,2013-05-07 20:44:00,
2013-05-07 16:45:00,74.0,58.8,29.93,North,360,0.0,1.0,59,0.00,,---,0.01,VWS V14.01,2013-05-07 20:45:00,
2013-05-07 16:46:00,74.1,59.3,29.93,NNE,30,0.0,1.0,60,0.00,,---,0.01,VWS V14.01,2013-05-07 20:46:00,
2013-05-07 16:47:00,74.2,59.4,29.93,West,281,4.0,4.0,60,0.00,,---,0.01,VWS V14.01,2013-05-07 20:47:00,
2013-05-07 16:48:00,74.2,58.0,29.93,WNW,294,0.0,3.0,57,0.00,,---,0.01,VWS V14.01,2013-05-07 20:48:00,
2013-05-07 16:49:00,74.2,58.0,29.93,WNW,294,0.0,3.0,57,0.00,,---,0.01,VWS V14.01,2013-05-07 20:49:00,
2013-05-07 16:50:00,74.2,58.5,29.93,WNW,296,0.0,1.0,58,0.00,,---,0.01,VWS V14.01,2013-05-07 20:50:00,
2013-05-07 16:51:00,74.1,57.9,29.93,NW,312,0.0,2.0,57,0.00,,---,0.01,VWS V14.01,2013-05-07 20:51:00,
2013-05-07 16:52:00,74.0,58.3,29.93,NW,312,0.0,0.0,58,0.00,,---,0.01,VWS V14.01,2013-05-07 20:52:00,
2013-05-07 16:53:00,74.0,58.3,29.92,North,5,0.0,1.0,58,0.00,,---,0.01,VWS V14.01,2013-05-07 20:53:00,
2013-05-07 16:54:00,74.0,58.3,29.92,North,5,0.0,1.0,58,0.00,,---,0.01,VWS V14.01,2013-05-07 20:54:00,
2013-05-07 16:55:00,74.0,58.3,29.92,ENE,67,0.0,2.0,58,0.00,,---,0.01,VWS V14.01,2013-05-07 20:55:00,
2013-05-07 16:56:00,74.0,59.2,29.93,North,5,2.0,4.0,60,0.00,,---,0.01,VWS V14.01,2013-05-07 20:56:00,
2013-05-07 16:57:00,74.0,57.8,29.92,North,5,0.0,3.0,57,0.00,,---,0.01,VWS V14.01,2013-05-07 20:57:00,
2013-05-07 16:58:00,73.8,57.6,29.92,North,5,0.0,4.0,57,0.00,,---,0.01,VWS V14.01,2013-05-07 20:58:00,
2013-05-07 16:59:00,73.8,57.6,29.92,North,5,0.0,4.0,57,0.00,,---,0.01,VWS V14.01,2013-05-07 20:59:00,
2013-05-07 17:00:00,73.7,57.5,29.92,NNW,336,0.0,1.0,57,0.00,,---,0.01,VWS V14.01,2013-05-07 21:00:00,
2013-05-07 17:01:00,73.6,57.4,29.92,NNW,331,0.0,3.0,57,0.00,,---,0.01,VWS V14.01,2013-05-07 21:01:00,
2013-05-07 17:02:00,73.4,57.3,29.92,NNW,344,0.0,1.0,57,0.00,,---,0.01,VWS V14.01,2013-05-07 21:02:00,
2013-05-07 17:03:00,73.1,57.5,29.92,NNW,344,0.0,2.0,58,0.00,,---,0.01,VWS V14.01,2013-05-07 21:03:00,
2013-05-07 17:04:00,73.1,57.5,29.92,NNW,344,0.0,2.0,58,0.00,,---,0.01,VWS V14.01,2013-05-07 21:04:00,
2013-05-07 17:05:00,73.0,57.8,29.92,NW,319,0.0,1.0,59,0.00,,---,0.01,VWS V14.01,2013-05-07 21:05:00,
2013-05-07 17:06:00,72.9,57.8,29.92,ENE,60,2.0,2.0,59,0.00,,---,0.01,VWS V14.01,2013-05-07 21:06:00,
2013-05-07 17:07:00,72.8,57.2,29.92,NE,43,0.0,3.0,58,0.00,,---,0.01,VWS V14.01,2013-05-07 21:07:00,
2013-05-07 17:08:00,72.6,57.9,29.92,North,360,2.0,2.0,60,0.00,,---,0.01,VWS V14.01,2013-05-07 21:08:00,
2013-05-07 17:09:00,72.6,57.9,29.92,North,360,2.0,2.0,60,0.00,,---,0.01,VWS V14.01,2013-05-07 21:09:00,
2013-05-07 17:10:00,72.6,57.5,29.92,NNW,337,0.0,2.0,59,0.00,,---,0.01,VWS V14.01,2013-05-07 21:10:00,
2013-05-07 17:11:00,72.5,56.9,29.92,WNW,283,0.0,2.0,58,0.00,,---,0.01,VWS V14.01,2013-05-07 21:11:00,
2013-05-07 17:12:00,72.5,57.4,29.92,WNW,283,0.0,0.0,59,0.00,,---,0.01,VWS V14.01,2013-05-07 21:12:00,
2013-05-07 17:13:00,72.4,58.7,29.92,North,5,0.0,1.0,62,0.00,,---,0.01,VWS V14.01,2013-05-07 21:13:00,
2013-05-07 17:14:00,72.4,58.7,29.92,North,5,0.0,1.0,62,0.00,,---,0.01,VWS V14.01,2013-05-07 21:14:00,
2013-05-07 17:15:00,72.5,57.8,29.92,NNE,24,0.0,1.0,60,0.00,,---,0.01,VWS V14.01,2013-05-07 21:15:00,
2013-05-07 17:16:00,72.5,58.3,29.92,NE,34,0.0,1.0,61,0.00,,---,0.01,VWS V14.01,2013-05-07 21:16:00,
2013-05-07 17:17:00,72.6,57.9,29.92,North,355,0.0,1.0,60,0.00,,---,0.01,VWS V14.01,2013-05-07 21:17:00,
2013-05-07 17:18:00,72.8,58.1,29.92,NNE,24,0.0,1.0,60,0.00,,---,0.01,VWS V14.01,2013-05-07 21:18:00,
2013-05-07 17:19:00,72.8,58.1,29.92,NNE,24,0.0,1.0,60,0.00,,---,0.01,VWS V14.01,2013-05-07 21:19:00,
2013-05-07 17:20:00,73.0,57.8,29.92,NE,40,0.0,1.0,59,0.00,,---,0.01,VWS V14.01,2013-05-07 21:20:00,
2013-05-07 17:21:00,73.1,57.9,29.92,WNW,292,1.0,1.0,59,0.00,,---,0.01,VWS V14.01,2013-05-07 21:21:00,
2013-05-07 17:22:00,73.1,57.0,29.92,WNW,294,0.0,2.0,57,0.00,,---,0.01,VWS V14.01,2013-05-07 21:22:00,
2013-05-07 17:23:00,73.2,57.1,29.92,WNW,296,0.0,4.0,57,0.00,,---,0.01,VWS V14.01,2013-05-07 21:23:00,
2013-05-07 17:24:00,73.2,57.1,29.92,WNW,296,0.0,4.0,57,0.00,,---,0.01,VWS V14.01,2013-05-07 21:24:00,
2013-05-07 17:25:00,73.2,56.6,29.92,NE,38,1.0,1.0,56,0.00,,---,0.01,VWS V14.01,2013-05-07 21:25:00,
2013-05-07 17:26:00,73.2,56.1,29.92,NNW,348,0.0,4.0,55,0.00,,---,0.01,VWS V14.01,2013-05-07 21:26:00,
2013-05-07 17:27:00,73.2,56.6,29.92,NNW,348,0.0,0.0,56,0.00,,---,0.01,VWS V14.01,2013-05-07 21:27:00,
2013-05-07 17:28:00,73.2,56.6,29.92,NNW,348,0.0,0.0,56,0.00,,---,0.01,VWS V14.01,2013-05-07 21:28:00,
2013-05-07 17:29:00,73.2,56.6,29.92,NNW,348,0.0,0.0,56,0.00,,---,0.01,VWS V14.01,2013-05-07 21:29:00,
2013-05-07 17:30:00,73.3,57.2,29.92,NNW,348,0.0,0.0,57,0.00,,---,0.01,VWS V14.01,2013-05-07 21:30:00,
2013-05-07 17:31:00,73.3,58.1,29.92,NNW,348,0.0,0.0,59,0.00,,---,0.01,VWS V14.01,2013-05-07 21:31:00,
2013-05-07 17:32:00,73.4,57.3,29.92,NNW,342,0.0,2.0,57,0.00,,---,0.01,VWS V14.01,2013-05-07 21:32:00,
2013-05-07 17:33:00,73.6,57.4,29.92,NNW,340,0.0,4.0,57,0.00,,---,0.01,VWS V14.01,2013-05-07 21:33:00,
2013-05-07 17:34:00,73.6,57.4,29.92,NNW,340,0.0,4.0,57,0.00,,---,0.01,VWS V14.01,2013-05-07 21:34:00,
2013-05-07 17:35:00,73.6,57.0,29.92,NNW,348,2.0,4.0,56,0.00,,---,0.01,VWS V14.01,2013-05-07 21:35:00,
2013-05-07 17:36:00,73.5,56.9,29.92,North,9,0.0,3.0,56,0.00,,---,0.01,VWS V14.01,2013-05-07 21:36:00,
2013-05-07 17:37:00,73.4,56.8,29.92,North,349,2.0,3.0,56,0.00,,---,0.01,VWS V14.01,2013-05-07 21:37:00,
2013-05-07 17:38:00,73.2,56.1,29.92,NNW,335,0.0,2.0,55,0.00,,---,0.01,VWS V14.01,2013-05-07 21:38:00,
2013-05-07 17:39:00,72.9,56.3,29.92,NNW,333,0.0,1.0,56,0.00,,---,0.01,VWS V14.01,2013-05-07 21:39:00,
2013-05-07 17:40:00,72.9,56.3,29.92,NNW,333,0.0,1.0,56,0.00,,---,0.01,VWS V14.01,2013-05-07 21:40:00,
2013-05-07 17:41:00,72.8,56.7,29.92,NNW,348,0.0,1.0,57,0.00,,---,0.01,VWS V14.01,2013-05-07 21:41:00,
2013-05-07 17:42:00,72.7,56.6,29.92,North,10,1.0,1.0,57,0.00,,---,0.01,VWS V14.01,2013-05-07 21:42:00,
2013-05-07 17:43:00,72.7,56.6,29.92,NNE,13,0.0,1.0,57,0.00,,---,0.01,VWS V14.01,2013-05-07 21:43:00,
2013-05-07 17:44:00,72.6,56.5,29.92,North,5,0.0,1.0,57,0.00,,---,0.01,VWS V14.01,2013-05-07 21:44:00,
2013-05-07 17:45:00,72.6,56.5,29.92,North,5,0.0,1.0,57,0.00,,---,0.01,VWS V14.01,2013-05-07 21:45:00,
2013-05-07 17:46:00,72.5,55.9,29.92,North,360,0.0,2.0,56,0.00,,---,0.01,VWS V14.01,2013-05-07 21:46:00,
2013-05-07 17:47:00,72.5,56.4,29.92,North,360,0.0,0.0,57,0.00,,---,0.01,VWS V14.01,2013-05-07 21:47:00,
2013-05-07 17:48:00,72.4,56.8,29.92,North,360,0.0,1.0,58,0.00,,---,0.01,VWS V14.01,2013-05-07 21:48:00,
2013-05-07 17:49:00,72.3,56.7,29.92,North,360,0.0,1.0,58,0.00,,---,0.01,VWS V14.01,2013-05-07 21:49:00,
2013-05-07 17:50:00,72.2,56.1,29.92,North,360,0.0,1.0,57,0.00,,---,0.01,VWS V14.01,2013-05-07 21:50:00,
2013-05-07 17:51:00,72.2,56.1,29.92,North,360,0.0,1.0,57,0.00,,---,0.01,VWS V14.01,2013-05-07 21:51:00,
2013-05-07 17:52:00,72.1,56.0,29.92,North,360,0.0,0.0,57,0.00,,---,0.01,VWS V14.01,2013-05-07 21:52:00,
2013-05-07 17:53:00,72.1,56.5,29.92,North,360,0.0,0.0,58,0.00,,---,0.01,VWS V14.01,2013-05-07 21:53:00,
2013-05-07 17:54:00,72.1,57.0,29.92,North,360,0.0,1.0,59,0.00,,---,0.01,VWS V14.01,2013-05-07 21:54:00,
2013-05-07 17:55:00,72.1,56.5,29.92,North,360,0.0,0.0,58,0.00,,---,0.01,VWS V14.01,2013-05-07 21:55:00,
2013-05-07 17:56:00,72.0,56.4,29.92,North,360,0.0,0.0,58,0.00,,---,0.01,VWS V14.01,2013-05-07 21:56:00,
2013-05-07 17:57:00,72.0,56.4,29.92,North,360,0.0,0.0,58,0.00,,---,0.01,VWS V14.01,2013-05-07 21:57:00,
2013-05-07 17:58:00,71.9,57.3,29.92,North,360,0.0,0.0,60,0.00,,---,0.01,VWS V14.01,2013-05-07 21:58:00,
2013-05-07 17:59:00,71.9,56.3,29.92,North,360,0.0,0.0,58,0.00,,---,0.01,VWS V14.01,2013-05-07 21:59:00,
2013-05-07 18:00:00,71.9,56.8,29.92,North,360,0.0,0.0,59,0.00,,---,0.01,VWS V14.01,2013-05-07 22:00:00,
2013-05-07 18:01:00,71.8,57.2,29.92,North,360,0.0,0.0,60,0.00,,---,0.01,VWS V14.01,2013-05-07 22:01:00,
2013-05-07 18:02:00,71.8,57.2,29.92,North,360,0.0,0.0,60,0.00,,---,0.01,VWS V14.01,2013-05-07 22:02:00,
2013-05-07 18:03:00,71.8,57.6,29.92,North,5,0.0,0.0,61,0.00,,---,0.01,VWS V14.01,2013-05-07 22:03:00,
2013-05-07 18:04:00,71.8,57.6,29.92,North,355,0.0,1.0,61,0.00,,---,0.01,VWS V14.01,2013-05-07 22:04:00,
2013-05-07 18:05:00,71.8,57.2,29.92,NNW,342,0.0,3.0,60,0.00,,---,0.01,VWS V14.01,2013-05-07 22:05:00,
2013-05-07 18:06:00,71.7,56.6,29.92,North,360,0.0,1.0,59,0.00,,---,0.01,VWS V14.01,2013-05-07 22:06:00,
2013-05-07 18:07:00,71.7,56.6,29.92,North,360,0.0,1.0,59,0.00,,---,0.01,VWS V14.01,2013-05-07 22:07:00,
2013-05-07 18:08:00,71.6,57.0,29.92,North,360,0.0,0.0,60,0.00,,---,0.01,VWS V14.01,2013-05-07 22:08:00,
2013-05-07 18:09:00,71.6,57.0,29.92,North,360,0.0,1.0,60,0.00,,---,0.01,VWS V14.01,2013-05-07 22:09:00,
2013-05-07 18:10:00,71.5,56.9,29.92,North,349,0.0,2.0,60,0.00,,---,0.01,VWS V14.01,2013-05-07 22:10:00,
2013-05-07 18:11:00,71.3,57.2,29.92,North,355,0.0,1.0,61,0.00,,---,0.01,VWS V14.01,2013-05-07 22:11:00,
2013-05-07 18:12:00,71.3,57.2,29.92,North,355,0.0,1.0,61,0.00,,---,0.01,VWS V14.01,2013-05-07 22:12:00,
2013-05-07 18:13:00,71.2,58.0,29.92,North,355,0.0,0.0,63,0.00,,---,0.01,VWS V14.01,2013-05-07 22:13:00,
2013-05-07 18:14:00,71.1,58.8,29.92,North,5,0.0,1.0,65,0.00,,---,0.01,VWS V14.01,2013-05-07 22:14:00,
2013-05-07 18:15:00,71.0,59.1,29.92,North,5,0.0,1.0,66,0.01,,---,0.02,VWS V14.01,2013-05-07 22:15:00,
2013-05-07 18:16:00,70.7,59.2,29.92,NNE,13,0.0,0.0,67,0.01,,---,0.02,VWS V14.01,2013-05-07 22:16:00,
2013-05-07 18:17:00,70.7,59.2,29.92,NNE,13,0.0,0.0,67,0.01,,---,0.02,VWS V14.01,2013-05-07 22:17:00,
2013-05-07 18:18:00,70.6,59.5,29.92,NNE,13,0.0,0.0,68,0.01,,---,0.02,VWS V14.01,2013-05-07 22:18:00,
2013-05-07 18:19:00,70.5,59.8,29.92,NNE,13,0.0,0.0,69,0.01,,---,0.02,VWS V14.01,2013-05-07 22:19:00,
2013-05-07 18:20:00,70.4,59.8,29.92,NNE,13,0.0,0.0,69,0.01,,---,0.02,VWS V14.01,2013-05-07 22:20:00,
2013-05-07 18:21:00,70.3,60.1,29.92,NNE,13,0.0,0.0,70,0.01,,---,0.02,VWS V14.01,2013-05-07 22:21:00,
2013-05-07 18:22:00,70.1,59.9,29.92,NNE,13,0.0,0.0,70,0.01,,---,0.02,VWS V14.01,2013-05-07 22:22:00,
2013-05-07 18:23:00,70.1,59.9,29.92,NNE,13,0.0,0.0,70,0.01,,---,0.02,VWS V14.01,2013-05-07 22:23:00,
2013-05-07 18:24:00,69.9,60.1,29.92,NNE,13,0.0,0.0,71,0.01,,---,0.02,VWS V14.01,2013-05-07 22:24:00,
2013-05-07 18:25:00,69.7,60.3,29.92,NNE,13,0.0,0.0,72,0.02,,---,0.03,VWS V14.01,2013-05-07 22:25:00,
2013-05-07 18:26:00,69.4,60.0,29.92,NNE,13,0.0,0.0,72,0.02,,---,0.03,VWS V14.01,2013-05-07 22:26:00,
2013-05-07 18:27:00,69.3,59.9,29.92,NNE,13,0.0,0.0,72,0.03,,---,0.04,VWS V14.01,2013-05-07 22:27:00,
2013-05-07 18:28:00,68.8,59.8,29.92,NNE,13,0.0,0.0,73,0.03,,---,0.04,VWS V14.01,2013-05-07 22:28:00,
2013-05-07 18:29:00,68.8,59.8,29.92,NNE,13,0.0,0.0,73,0.03,,---,0.04,VWS V14.01,2013-05-07 22:29:00,
2013-05-07 18:30:00,68.6,60.0,29.92,NNE,13,0.0,0.0,74,0.03,,---,0.04,VWS V14.01,2013-05-07 22:30:00,
2013-05-07 18:31:00,68.4,60.5,29.92,NNE,13,0.0,0.0,76,0.04,,---,0.05,VWS V14.01,2013-05-07 22:31:00,
2013-05-07 18:32:00,68.1,60.6,29.92,NNE,13,0.0,0.0,77,0.04,,---,0.05,VWS V14.01,2013-05-07 22:32:00,
2013-05-07 18:33:00,67.6,60.9,29.92,NNE,13,0.0,0.0,79,0.04,,---,0.05,VWS V14.01,2013-05-07 22:33:00,
2013-05-07 18:34:00,67.6,60.9,29.92,NNE,13,0.0,0.0,79,0.04,,---,0.05,VWS V14.01,2013-05-07 22:34:00,
2013-05-07 18:35:00,67.4,60.7,29.92,NNE,13,0.0,0.0,79,0.04,,---,0.05,VWS V14.01,2013-05-07 22:35:00,
2013-05-07 18:36:00,67.1,60.7,29.92,NNE,13,0.0,0.0,80,0.04,,---,0.05,VWS V14.01,2013-05-07 22:36:00,
2013-05-07 18:37:00,66.9,60.5,29.92,NNE,13,0.0,0.0,80,0.04,,---,0.05,VWS V14.01,2013-05-07 22:37:00,
2013-05-07 18:38:00,66.7,60.3,29.92,NNE,13,0.0,0.0,80,0.04,,---,0.05,VWS V14.01,2013-05-07 22:38:00,
2013-05-07 18:39:00,66.2,60.2,29.92,NNE,13,0.0,0.0,81,0.04,,---,0.05,VWS V14.01,2013-05-07 22:39:00,
2013-05-07 18:40:00,66.2,60.2,29.92,NNE,13,0.0,0.0,81,0.04,,---,0.05,VWS V14.01,2013-05-07 22:40:00,
2013-05-07 18:41:00,66.1,60.1,29.92,NNE,13,0.0,0.0,81,0.04,,---,0.05,VWS V14.01,2013-05-07 22:41:00,
2013-05-07 18:42:00,65.9,60.3,29.92,NNE,13,0.0,0.0,82,0.04,,---,0.05,VWS V14.01,2013-05-07 22:42:00,
2013-05-07 18:43:00,65.7,60.1,29.92,NNE,13,0.0,0.0,82,0.04,,---,0.05,VWS V14.01,2013-05-07 22:43:00,
2013-05-07 18:44:00,65.4,60.1,29.92,NNE,13,0.0,1.0,83,0.04,,---,0.05,VWS V14.01,2013-05-07 22:44:00,
2013-05-07 18:45:00,65.4,60.1,29.92,NNE,13,0.0,1.0,83,0.04,,---,0.05,VWS V14.01,2013-05-07 22:45:00,
2013-05-07 18:46:00,65.2,60.2,29.92,ESE,123,2.0,4.0,84,0.04,,---,0.05,VWS V14.01,2013-05-07 22:46:00,
2013-05-07 18:47:00,65.0,60.0,29.92,SE,125,2.0,4.0,84,0.04,,---,0.05,VWS V14.01,2013-05-07 22:47:00,
2013-05-07 18:48:00,64.9,60.3,29.93,SE,145,2.0,4.0,85,0.04,,---,0.05,VWS V14.01,2013-05-07 22:48:00,
2013-05-07 18:49:00,64.6,60.0,29.93,SSE,159,1.0,5.0,85,0.04,,---,0.05,VWS V14.01,2013-05-07 22:49:00,
2013-05-07 18:50:00,64.6,60.0,29.93,SSE,159,1.0,5.0,85,0.04,,---,0.05,VWS V14.01,2013-05-07 22:50:00,
2013-05-07 18:51:00,64.4,59.8,29.93,SE,130,2.0,4.0,85,0.04,,---,0.05,VWS V14.01,2013-05-07 22:51:00,
2013-05-07 18:52:00,64.3,59.4,29.93,SE,140,4.0,6.0,84,0.05,,---,0.06,VWS V14.01,2013-05-07 22:52:00,
2013-05-07 18:53:00,64.2,59.3,29.93,SSE,147,5.0,5.0,84,0.06,,---,0.07,VWS V14.01,2013-05-07 22:53:00,
2013-05-07 18:54:00,64.0,59.4,29.93,SSE,151,4.0,7.0,85,0.07,,---,0.08,VWS V14.01,2013-05-07 22:54:00,
2013-05-07 18:55:00,64.0,59.4,29.93,SSE,151,4.0,7.0,85,0.07,,---,0.08,VWS V14.01,2013-05-07 22:55:00,
2013-05-07 18:56:00,63.9,59.3,29.93,SE,139,2.0,5.0,85,0.08,,---,0.09,VWS V14.01,2013-05-07 22:56:00,
2013-05-07 18:57:00,63.8,59.5,29.93,SSE,149,4.0,5.0,86,0.09,,---,0.10,VWS V14.01,2013-05-07 22:57:00,
2013-05-07 18:58:00,63.6,59.3,29.94,SE,144,0.0,5.0,86,0.10,,---,0.11,VWS V14.01,2013-05-07 22:58:00,
2013-05-07 18:59:00,63.4,59.5,29.94,NNE,31,1.0,1.0,87,0.11,,---,0.12,VWS V14.01,2013-05-07 22:59:00,
2013-05-07 19:00:00,63.4,59.5,29.94,NNE,31,1.0,1.0,87,0.11,,---,0.12,VWS V14.01,2013-05-07 23:00:00,
2013-05-07 19:01:00,63.4,59.8,29.95,East,80,0.0,3.0,88,0.12,,---,0.13,VWS V14.01,2013-05-07 23:01:00,
2013-05-07 19:02:00,63.4,59.8,29.95,North,355,2.0,7.0,88,0.13,,---,0.14,VWS V14.01,2013-05-07 23:02:00,
2013-05-07 19:03:00,63.2,59.6,29.95,NNW,335,1.0,5.0,88,0.15,,---,0.16,VWS V14.01,2013-05-07 23:03:00,
2013-05-07 19:04:00,63.0,59.7,29.95,East,83,0.0,7.0,89,0.18,,---,0.19,VWS V14.01,2013-05-07 23:04:00,
2013-05-07 19:05:00,63.0,59.7,29.95,East,83,0.0,7.0,89,0.18,,---,0.19,VWS V14.01,2013-05-07 23:05:00,
2013-05-07 19:06:00,62.8,59.2,29.95,South,180,2.0,5.0,88,0.19,,---,0.20,VWS V14.01,2013-05-07 23:06:00,
2013-05-07 19:07:00,62.6,59.0,29.95,East,96,0.0,5.0,88,0.20,,---,0.21,VWS V14.01,2013-05-07 23:07:00,
2013-05-07 19:08:00,62.5,59.2,29.95,ESE,103,0.0,6.0,89,0.21,,---,0.22,VWS V14.01,2013-05-07 23:08:00,
2013-05-07 19:09:00,62.1,58.8,29.95,ESE,113,0.0,2.0,89,0.21,,---,0.22,VWS V14.01,2013-05-07 23:09:00,
2013-05-07 19:10:00,62.1,58.8,29.95,ESE,113,0.0,2.0,89,0.21,,---,0.22,VWS V14.01,2013-05-07 23:10:00,
2013-05-07 19:11:00,61.9,58.6,29.95,ENE,57,0.0,5.0,89,0.22,,---,0.23,VWS V14.01,2013-05-07 23:11:00,
2013-05-07 19:12:00,61.8,58.8,29.95,NE,42,0.0,1.0,90,0.22,,---,0.23,VWS V14.01,2013-05-07 23:12:00,
2013-05-07 19:13:00,61.7,58.7,29.95,NE,42,0.0,0.0,90,0.23,,---,0.24,VWS V14.01,2013-05-07 23:13:00,
2013-05-07 19:14:00,61.5,58.5,29.95,NE,44,0.0,0.0,90,0.23,,---,0.24,VWS V14.01,2013-05-07 23:14:00,
2013-05-07 19:15:00,61.5,58.5,29.95,NE,44,0.0,0.0,90,0.23,,---,0.24,VWS V14.01,2013-05-07 23:15:00,
2013-05-07 19:16:00,61.4,58.8,29.95,NE,40,0.0,1.0,91,0.22,,---,0.24,VWS V14.01,2013-05-07 23:16:00,
2013-05-07 19:17:00,61.4,58.8,29.95,NE,40,0.0,0.0,91,0.23,,---,0.25,VWS V14.01,2013-05-07 23:17:00,
2013-05-07 19:18:00,61.3,58.7,29.95,SE,136,5.0,5.0,91,0.23,,---,0.25,VWS V14.01,2013-05-07 23:18:00,
2013-05-07 19:19:00,61.2,58.6,29.95,SE,132,0.0,0.0,91,0.24,,---,0.26,VWS V14.01,2013-05-07 23:19:00,
2013-05-07 19:20:00,61.2,58.6,29.95,SE,132,0.0,0.0,91,0.24,,---,0.26,VWS V14.01,2013-05-07 23:20:00,
2013-05-07 19:21:00,61.1,58.5,29.95,SE,132,0.0,1.0,91,0.24,,---,0.26,VWS V14.01,2013-05-07 23:21:00,
2013-05-07 19:22:00,61.1,58.5,29.95,SE,132,0.0,1.0,91,0.24,,---,0.26,VWS V14.01,2013-05-07 23:22:00,
2013-05-07 19:23:00,61.0,58.7,29.95,SE,132,1.0,1.0,92,0.24,,---,0.26,VWS V14.01,2013-05-07 23:23:00,
2013-05-07 19:24:00,61.0,58.7,29.95,SE,132,0.0,1.0,92,0.24,,---,0.26,VWS V14.01,2013-05-07 23:24:00,
2013-05-07 19:25:00,60.9,58.6,29.95,SE,132,0.0,0.0,92,0.24,,---,0.27,VWS V14.01,2013-05-07 23:25:00,
2013-05-07 19:26:00,60.9,58.6,29.95,SE,132,0.0,0.0,92,0.24,,---,0.27,VWS V14.01,2013-05-07 23:26:00,
2013-05-07 19:27:00,60.8,58.5,29.95,SE,132,0.0,0.0,92,0.24,,---,0.27,VWS V14.01,2013-05-07 23:27:00,
2013-05-07 19:28:00,60.8,58.5,29.95,SE,132,0.0,0.0,92,0.23,,---,0.27,VWS V14.01,2013-05-07 23:28:00,
2013-05-07 19:29:00,60.8,58.5,29.95,SE,132,0.0,0.0,92,0.23,,---,0.27,VWS V14.01,2013-05-07 23:29:00,
2013-05-07 19:30:00,60.7,58.4,29.95,SE,132,0.0,0.0,92,0.23,,---,0.27,VWS V14.01,2013-05-07 23:30:00,
2013-05-07 19:31:00,60.7,58.4,29.95,SE,132,0.0,0.0,92,0.23,,---,0.27,VWS V14.01,2013-05-07 23:31:00,
2013-05-07 19:32:00,60.7,58.4,29.95,SE,132,0.0,0.0,92,0.22,,---,0.27,VWS V14.01,2013-05-07 23:32:00,
2013-05-07 19:33:00,60.7,58.7,29.95,SE,132,0.0,0.0,93,0.22,,---,0.27,VWS V14.01,2013-05-07 23:33:00,
2013-05-07 19:34:00,60.7,58.7,29.95,SE,132,0.0,0.0,93,0.22,,---,0.27,VWS V14.01,2013-05-07 23:34:00,
2013-05-07 19:35:00,60.8,58.8,29.95,SE,132,0.0,0.0,93,0.22,,---,0.27,VWS V14.01,2013-05-07 23:35:00,
2013-05-07 19:36:00,60.8,58.8,29.95,SE,132,0.0,0.0,93,0.22,,---,0.27,VWS V14.01,2013-05-07 23:36:00,
2013-05-07 19:37:00,60.7,58.7,29.95,SE,132,0.0,0.0,93,0.22,,---,0.27,VWS V14.01,2013-05-07 23:37:00,
2013-05-07 19:38:00,60.8,58.8,29.95,SE,132,0.0,0.0,93,0.22,,---,0.27,VWS V14.01,2013-05-07 23:38:00,
2013-05-07 19:39:00,60.8,58.8,29.95,SE,132,0.0,0.0,93,0.22,,---,0.27,VWS V14.01,2013-05-07 23:39:00,
2013-05-07 19:40:00,60.8,59.1,29.95,SE,132,0.0,0.0,94,0.22,,---,0.27,VWS V14.01,2013-05-07 23:40:00,
2013-05-07 19:41:00,60.8,59.1,29.95,SE,132,0.0,0.0,94,0.22,,---,0.27,VWS V14.01,2013-05-07 23:41:00,
2013-05-07 19:42:00,60.8,59.1,29.95,SE,132,0.0,0.0,94,0.22,,---,0.27,VWS V14.01,2013-05-07 23:42:00,
2013-05-07 19:43:00,60.8,59.1,29.95,SE,132,0.0,0.0,94,0.22,,---,0.27,VWS V14.01,2013-05-07 23:43:00,
2013-05-07 19:44:00,60.8,59.1,29.95,SE,132,0.0,0.0,94,0.22,,---,0.27,VWS V14.01,2013-05-07 23:44:00,
2013-05-07 19:45:00,60.7,59.0,29.94,SE,132,0.0,0.0,94,0.22,,---,0.27,VWS V14.01,2013-05-07 23:45:00,
2013-05-07 19:46:00,60.7,59.0,29.95,SE,132,0.0,0.0,94,0.22,,---,0.27,VWS V14.01,2013-05-07 23:46:00,
2013-05-07 19:47:00,60.7,59.0,29.95,SE,132,0.0,0.0,94,0.22,,---,0.27,VWS V14.01,2013-05-07 23:47:00,
2013-05-07 19:48:00,60.7,59.0,29.95,SE,132,0.0,0.0,94,0.22,,---,0.27,VWS V14.01,2013-05-07 23:48:00,
2013-05-07 19:49:00,60.8,59.1,29.95,SE,132,0.0,0.0,94,0.22,,---,0.27,VWS V14.01,2013-05-07 23:49:00,
2013-05-07 19:50:00,60.7,59.0,29.95,SE,132,0.0,0.0,94,0.22,,---,0.27,VWS V14.01,2013-05-07 23:50:00,
2013-05-07 19:51:00,60.7,59.0,29.95,SE,132,0.0,0.0,94,0.22,,---,0.27,VWS V14.01,2013-05-07 23:51:00,
2013-05-07 19:52:00,60.7,59.0,29.95,SE,132,0.0,0.0,94,0.22,,---,0.27,VWS V14.01,2013-05-07 23:52:00,
2013-05-07 19:53:00,60.7,59.0,29.95,SE,132,0.0,0.0,94,0.21,,---,0.27,VWS V14.01,2013-05-07 23:53:00,
2013-05-07 19:54:00,60.7,59.0,29.95,SE,132,0.0,0.0,94,0.20,,---,0.27,VWS V14.01,2013-05-07 23:54:00,
2013-05-07 19:55:00,60.8,59.4,29.95,SE,132,0.0,0.0,95,0.20,,---,0.27,VWS V14.01,2013-05-07 23:55:00,
2013-05-07 19:56:00,60.9,59.5,29.95,SE,132,0.0,0.0,95,0.18,,---,0.27,VWS V14.01,2013-05-07 23:56:00,
2013-05-07 19:57:00,60.9,59.5,29.95,SE,132,0.0,0.0,95,0.18,,---,0.27,VWS V14.01,2013-05-07 23:57:00,
2013-05-07 19:58:00,60.9,59.5,29.95,SE,132,0.0,0.0,95,0.17,,---,0.27,VWS V14.01,2013-05-07 23:58:00,
2013-05-07 19:59:00,60.9,59.5,29.95,SE,132,0.0,0.0,95,0.16,,---,0.27,VWS V14.01,2013-05-07 23:59:00,
2013-05-07 20:00:00,60.9,59.5,29.95,SE,132,0.0,0.0,95,0.15,,---,0.27,VWS V14.01,2013-05-08 00:00:00,
2013-05-07 20:01:00,61.0,59.6,29.94,SE,132,0.0,0.0,95,0.14,,---,0.27,VWS V14.01,2013-05-08 00:01:00,
2013-05-07 20:02:00,61.0,59.6,29.94,SE,132,0.0,0.0,95,0.14,,---,0.27,VWS V14.01,2013-05-08 00:02:00,
2013-05-07 20:03:00,61.0,59.6,29.95,SE,132,0.0,0.0,95,0.13,,---,0.27,VWS V14.01,2013-05-08 00:03:00,
2013-05-07 20:04:00,61.0,59.6,29.94,SE,132,0.0,0.0,95,0.11,,---,0.27,VWS V14.01,2013-05-08 00:04:00,
2013-05-07 20:05:00,61.0,59.6,29.94,SE,132,0.0,0.0,95,0.09,,---,0.27,VWS V14.01,2013-05-08 00:05:00,
2013-05-07 20:06:00,61.0,59.6,29.94,SE,132,0.0,0.0,95,0.07,,---,0.27,VWS V14.01,2013-05-08 00:06:00,
2013-05-07 20:07:00,61.0,59.6,29.94,SE,132,0.0,0.0,95,0.07,,---,0.27,VWS V14.01,2013-05-08 00:07:00,
2013-05-07 20:08:00,61.0,59.6,29.94,SE,132,0.0,0.0,95,0.06,,---,0.27,VWS V14.01,2013-05-08 00:08:00,
2013-05-07 20:09:00,61.0,59.6,29.94,SE,132,0.0,0.0,95,0.05,,---,0.27,VWS V14.01,2013-05-08 00:09:00,
2013-05-07 20:10:00,61.0,59.6,29.94,SE,132,0.0,0.0,95,0.05,,---,0.27,VWS V14.01,2013-05-08 00:10:00,
2013-05-07 20:11:00,60.9,59.5,29.94,SE,132,0.0,0.0,95,0.04,,---,0.27,VWS V14.01,2013-05-08 00:11:00,
2013-05-07 20:12:00,60.9,59.5,29.94,SE,132,0.0,0.0,95,0.04,,---,0.27,VWS V14.01,2013-05-08 00:12:00,
2013-05-07 20:13:00,60.9,59.5,29.95,SE,132,0.0,0.0,95,0.04,,---,0.27,VWS V14.01,2013-05-08 00:13:00,
2013-05-07 20:14:00,60.9,59.5,29.94,SE,132,0.0,0.0,95,0.03,,---,0.27,VWS V14.01,2013-05-08 00:14:00,
2013-05-07 20:15:00,60.9,59.5,29.95,SE,132,0.0,0.0,95,0.03,,---,0.27,VWS V14.01,2013-05-08 00:15:00,
2013-05-07 20:16:00,60.9,59.5,29.95,SE,132,0.0,0.0,95,0.03,,---,0.27,VWS V14.01,2013-05-08 00:16:00,
2013-05-07 20:17:00,60.9,59.5,29.94,SE,132,0.0,0.0,95,0.02,,---,0.27,VWS V14.01,2013-05-08 00:17:00,
2013-05-07 20:18:00,60.9,59.5,29.94,SE,132,0.0,0.0,95,0.02,,---,0.27,VWS V14.01,2013-05-08 00:18:00,
2013-05-07 20:19:00,61.0,59.6,29.94,SE,132,0.0,0.0,95,0.02,,---,0.27,VWS V14.01,2013-05-08 00:19:00,
2013-05-07 20:20:00,61.0,59.6,29.95,SE,132,0.0,0.0,95,0.01,,---,0.27,VWS V14.01,2013-05-08 00:20:00,
2013-05-07 20:21:00,61.0,59.6,29.95,SE,132,0.0,0.0,95,0.01,,---,0.27,VWS V14.01,2013-05-08 00:21:00,
2013-05-07 20:22:00,61.0,59.6,29.95,SE,132,0.0,0.0,95,0.01,,---,0.27,VWS V14.01,2013-05-08 00:22:00,
2013-05-07 20:23:00,61.0,59.6,29.95,SE,132,0.0,0.0,95,0.01,,---,0.27,VWS V14.01,2013-05-08 00:23:00,
2013-05-07 20:24:00,61.0,59.6,29.95,SE,132,0.0,0.0,95,0.01,,---,0.27,VWS V14.01,2013-05-08 00:24:00,
2013-05-07 20:25:00,61.0,59.6,29.95,SE,132,0.0,0.0,95,0.01,,---,0.27,VWS V14.01,2013-05-08 00:25:00,
2013-05-07 20:26:00,61.1,60.0,29.95,SE,132,0.0,0.0,96,0.00,,---,0.27,VWS V14.01,2013-05-08 00:26:00,
2013-05-07 20:27:00,61.1,60.0,29.95,SE,132,0.0,0.0,96,0.00,,---,0.27,VWS V14.01,2013-05-08 00:27:00,
2013-05-07 20:28:00,61.1,60.0,29.95,SE,132,0.0,0.0,96,0.00,,---,0.27,VWS V14.01,2013-05-08 00:28:00,
2013-05-07 20:29:00,61.1,60.0,29.95,SE,132,0.0,0.0,96,0.00,,---,0.27,VWS V14.01,2013-05-08 00:29:00,
2013-05-07 20:30:00,61.1,60.0,29.95,SE,132,0.0,0.0,96,0.00,,---,0.27,VWS V14.01,2013-05-08 00:30:00,
2013-05-07 20:31:00,61.1,60.0,29.95,SE,132,0.0,0.0,96,0.00,,---,0.27,VWS V14.01,2013-05-08 00:31:00,
2013-05-07 20:32:00,61.1,60.0,29.95,SE,132,0.0,0.0,96,0.00,,---,0.27,VWS V14.01,2013-05-08 00:32:00,
2013-05-07 20:33:00,61.2,60.0,29.95,SE,132,0.0,0.0,96,0.00,,---,0.27,VWS V14.01,2013-05-08 00:33:00,
2013-05-07 20:34:00,61.2,60.0,29.95,SE,132,0.0,0.0,96,0.00,,---,0.27,VWS V14.01,2013-05-08 00:34:00,
2013-05-07 20:35:00,61.2,60.0,29.95,SE,132,0.0,0.0,96,0.00,,---,0.27,VWS V14.01,2013-05-08 00:35:00,
2013-05-07 20:36:00,61.2,60.0,29.95,SE,132,0.0,0.0,96,0.00,,---,0.27,VWS V14.01,2013-05-08 00:36:00,
2013-05-07 20:37:00,61.2,60.0,29.95,SE,132,0.0,0.0,96,0.00,,---,0.27,VWS V14.01,2013-05-08 00:37:00,
2013-05-07 20:38:00,61.2,60.0,29.95,SE,132,0.0,0.0,96,0.00,,---,0.27,VWS V14.01,2013-05-08 00:38:00,
2013-05-07 20:39:00,61.2,60.0,29.95,SE,132,0.0,0.0,96,0.00,,---,0.27,VWS V14.01,2013-05-08 00:39:00,
2013-05-07 20:40:00,61.2,60.0,29.95,SE,132,0.0,0.0,96,0.00,,---,0.27,VWS V14.01,2013-05-08 00:40:00,
2013-05-07 20:41:00,61.2,60.0,29.95,SE,132,0.0,0.0,96,0.00,,---,0.27,VWS V14.01,2013-05-08 00:41:00,
2013-05-07 20:42:00,61.2,60.0,29.95,SE,132,0.0,0.0,96,0.00,,---,0.27,VWS V14.01,2013-05-08 00:42:00,
2013-05-07 20:43:00,61.2,60.0,29.95,SE,132,0.0,0.0,96,0.00,,---,0.27,VWS V14.01,2013-05-08 00:43:00,
2013-05-07 20:44:00,61.2,60.0,29.95,SE,132,0.0,0.0,96,0.00,,---,0.27,VWS V14.01,2013-05-08 00:44:00,
2013-05-07 20:45:00,61.2,60.0,29.95,SE,132,0.0,0.0,96,0.00,,---,0.27,VWS V14.01,2013-05-08 00:45:00,
2013-05-07 20:46:00,61.2,60.0,29.95,SE,132,0.0,0.0,96,0.00,,---,0.27,VWS V14.01,2013-05-08 00:46:00,
2013-05-07 20:47:00,61.2,60.0,29.95,SE,132,0.0,0.0,96,0.00,,---,0.27,VWS V14.01,2013-05-08 00:47:00,
2013-05-07 20:48:00,61.2,60.0,29.95,SE,132,0.0,0.0,96,0.00,,---,0.27,VWS V14.01,2013-05-08 00:48:00,
2013-05-07 20:49:00,61.1,60.0,29.95,SE,132,0.0,0.0,96,0.00,,---,0.27,VWS V14.01,2013-05-08 00:49:00,
2013-05-07 20:50:00,61.1,60.0,29.95,SE,132,0.0,0.0,96,0.00,,---,0.27,VWS V14.01,2013-05-08 00:50:00,
2013-05-07 20:51:00,61.1,60.0,29.95,SE,132,0.0,0.0,96,0.00,,---,0.27,VWS V14.01,2013-05-08 00:51:00,
2013-05-07 20:52:00,61.1,60.0,29.95,SE,132,0.0,0.0,96,0.00,,---,0.27,VWS V14.01,2013-05-08 00:52:00,
2013-05-07 20:53:00,61.0,59.8,29.95,SE,132,0.0,0.0,96,0.00,,---,0.27,VWS V14.01,2013-05-08 00:53:00,
2013-05-07 20:54:00,61.1,60.0,29.95,SE,132,0.0,0.0,96,0.00,,---,0.27,VWS V14.01,2013-05-08 00:54:00,
2013-05-07 20:55:00,61.0,59.9,29.95,SE,132,0.0,0.0,96,0.00,,---,0.27,VWS V14.01,2013-05-08 00:55:00,
2013-05-07 20:56:00,61.0,59.8,29.95,SE,132,0.0,0.0,96,0.00,,---,0.27,VWS V14.01,2013-05-08 00:56:00,
2013-05-07 20:57:00,60.9,59.5,29.95,SE,132,0.0,0.0,95,0.00,,---,0.27,VWS V14.01,2013-05-08 00:57:00,
2013-05-07 20:58:00,60.9,59.5,29.95,SE,132,0.0,0.0,95,0.00,,---,0.27,VWS V14.01,2013-05-08 00:58:00,
2013-05-07 20:59:00,60.9,59.8,29.95,SE,132,0.0,0.0,96,0.00,,---,0.27,VWS V14.01,2013-05-08 00:59:00,
2013-05-07 21:00:00,60.9,59.8,29.95,SE,132,0.0,0.0,96,0.00,,---,0.27,VWS V14.01,2013-05-08 01:00:00,
2013-05-07 21:01:00,60.9,59.8,29.95,SE,132,0.0,0.0,96,0.00,,---,0.27,VWS V14.01,2013-05-08 01:01:00,
2013-05-07 21:02:00,60.9,59.8,29.95,SE,132,0.0,0.0,96,0.00,,---,0.27,VWS V14.01,2013-05-08 01:02:00,
2013-05-07 21:03:00,60.8,59.7,29.95,SE,132,0.0,0.0,96,0.00,,---,0.27,VWS V14.01,2013-05-08 01:03:00,
2013-05-07 21:04:00,60.8,59.7,29.96,SE,132,0.0,0.0,96,0.00,,---,0.27,VWS V14.01,2013-05-08 01:04:00,
2013-05-07 21:05:00,60.8,59.7,29.96,SE,132,0.0,0.0,96,0.00,,---,0.27,VWS V14.01,2013-05-08 01:05:00,
2013-05-07 21:06:00,60.8,59.7,29.96,SE,132,0.0,0.0,96,0.00,,---,0.27,VWS V14.01,2013-05-08 01:06:00,
2013-05-07 21:07:00,60.8,59.7,29.96,SE,132,0.0,1.0,96,0.00,,---,0.27,VWS V14.01,2013-05-08 01:07:00,
2013-05-07 21:08:00,60.8,59.7,29.96,SE,132,0.0,0.0,96,0.00,,---,0.27,VWS V14.01,2013-05-08 01:08:00,
2013-05-07 21:09:00,60.7,59.6,29.96,SE,132,0.0,0.0,96,0.00,,---,0.27,VWS V14.01,2013-05-08 01:09:00,
2013-05-07 21:10:00,60.7,59.6,29.96,SE,126,0.0,1.0,96,0.00,,---,0.27,VWS V14.01,2013-05-08 01:10:00,
2013-05-07 21:11:00,60.7,59.6,29.96,SE,126,0.0,1.0,96,0.00,,---,0.27,VWS V14.01,2013-05-08 01:11:00,
2013-05-07 21:12:00,60.7,59.6,29.96,SE,126,0.0,0.0,96,0.00,,---,0.27,VWS V14.01,2013-05-08 01:12:00,
2013-05-07 21:13:00,60.6,59.5,29.96,SE,126,0.0,0.0,96,0.00,,---,0.27,VWS V14.01,2013-05-08 01:13:00,
2013-05-07 21:14:00,60.6,59.5,29.96,SE,126,0.0,0.0,96,0.00,,---,0.27,VWS V14.01,2013-05-08 01:14:00,
2013-05-07 21:15:00,60.5,59.4,29.96,SE,126,0.0,0.0,96,0.00,,---,0.27,VWS V14.01,2013-05-08 01:15:00,
2013-05-07 21:16:00,60.5,59.4,29.96,SE,126,0.0,0.0,96,0.00,,---,0.27,VWS V14.01,2013-05-08 01:16:00,
2013-05-07 21:17:00,60.5,59.4,29.96,SE,126,0.0,0.0,96,0.00,,---,0.27,VWS V14.01,2013-05-08 01:17:00,
2013-05-07 21:18:00,60.5,59.4,29.96,ESE,121,0.0,1.0,96,0.00,,---,0.27,VWS V14.01,2013-05-08 01:18:00,
2013-05-07 21:19:00,60.5,59.4,29.96,ESE,121,0.0,0.0,96,0.00,,---,0.27,VWS V14.01,2013-05-08 01:19:00,
2013-05-07 21:20:00,60.4,59.3,29.96,ESE,121,0.0,1.0,96,0.00,,---,0.27,VWS V14.01,2013-05-08 01:20:00,
2013-05-07 21:21:00,60.4,59.3,29.97,North,0,0.0,0.0,96,0.00,,---,0.00,VWS V14.01,2013-05-08 01:21:00,
2013-05-07 21:22:00,60.4,59.3,29.96,ESE,112,0.0,1.0,96,0.00,,---,0.00,VWS V14.01,2013-05-08 01:22:00,
2013-05-07 21:23:00,60.4,59.3,29.97,ESE,112,0.0,0.0,96,0.00,,---,0.00,VWS V14.01,2013-05-08 01:23:00,
2013-05-07 21:24:00,60.4,59.3,29.97,ESE,112,0.0,0.0,96,0.00,,---,0.00,VWS V14.01,2013-05-08 01:24:00,
2013-05-07 21:25:00,60.4,59.3,29.97,East,90,0.0,1.0,96,0.00,,---,0.00,VWS V14.01,2013-05-08 01:25:00,
2013-05-07 21:26:00,60.4,59.3,29.97,East,90,0.0,0.0,96,0.00,,---,0.00,VWS V14.01,2013-05-08 01:26:00,
2013-05-07 21:27:00,60.3,59.2,29.97,East,90,0.0,0.0,96,0.00,,---,0.00,VWS V14.01,2013-05-08 01:27:00,
2013-05-07 21:28:00,60.3,59.2,29.97,East,90,0.0,1.0,96,0.00,,---,0.00,VWS V14.01,2013-05-08 01:28:00,
2013-05-07 21:29:00,60.3,59.2,29.97,East,90,0.0,0.0,96,0.00,,---,0.00,VWS V14.01,2013-05-08 01:29:00,
2013-05-07 21:30:00,60.3,59.2,29.97,East,90,0.0,0.0,96,0.00,,---,0.00,VWS V14.01,2013-05-08 01:30:00,
2013-05-07 21:31:00,60.2,59.1,29.97,East,90,0.0,0.0,96,0.00,,---,0.00,VWS V14.01,2013-05-08 01:31:00,
2013-05-07 21:32:00,60.2,59.1,29.97,East,90,0.0,0.0,96,0.00,,---,0.00,VWS V14.01,2013-05-08 01:32:00,
2013-05-07 21:33:00,60.2,59.1,29.97,East,90,0.0,0.0,96,0.00,,---,0.00,VWS V14.01,2013-05-08 01:33:00,
2013-05-07 21:34:00,60.2,59.1,29.97,East,90,0.0,0.0,96,0.00,,---,0.00,VWS V14.01,2013-05-08 01:34:00,
2013-05-07 21:35:00,60.2,59.1,29.97,East,90,0.0,0.0,96,0.00,,---,0.00,VWS V14.01,2013-05-08 01:35:00,
2013-05-07 21:36:00,60.2,59.1,29.97,East,90,0.0,0.0,96,0.00,,---,0.00,VWS V14.01,2013-05-08 01:36:00,
2013-05-07 21:37:00,60.2,59.1,29.97,East,90,0.0,0.0,96,0.00,,---,0.00,VWS V14.01,2013-05-08 01:37:00,
2013-05-07 21:38:00,60.2,59.1,29.97,East,90,0.0,0.0,96,0.00,,---,0.00,VWS V14.01,2013-05-08 01:38:00,
2013-05-07 21:39:00,60.2,59.1,29.97,East,90,0.0,0.0,96,0.00,,---,0.00,VWS V14.01,2013-05-08 01:39:00,
2013-05-07 21:40:00,60.2,59.1,29.97,East,90,0.0,0.0,96,0.00,,---,0.00,VWS V14.01,2013-05-08 01:40:00,
2013-05-07 21:41:00,60.2,59.1,29.97,East,90,0.0,0.0,96,0.00,,---,0.00,VWS V14.01,2013-05-08 01:41:00,
2013-05-07 21:42:00,60.2,59.1,29.97,East,90,0.0,0.0,96,0.00,,---,0.00,VWS V14.01,2013-05-08 01:42:00,
2013-05-07 21:43:00,60.2,59.1,29.97,East,90,0.0,0.0,96,0.00,,---,0.00,VWS V14.01,2013-05-08 01:43:00,
2013-05-07 21:44:00,60.2,59.1,29.97,East,90,0.0,0.0,96,0.00,,---,0.00,VWS V14.01,2013-05-08 01:44:00,
2013-05-07 21:45:00,60.2,59.1,29.97,East,90,0.0,0.0,96,0.00,,---,0.00,VWS V14.01,2013-05-08 01:45:00,
2013-05-07 21:46:00,60.2,59.1,29.97,East,90,0.0,0.0,96,0.00,,---,0.00,VWS V14.01,2013-05-08 01:46:00,
2013-05-07 21:47:00,60.2,59.1,29.97,East,90,0.0,0.0,96,0.00,,---,0.00,VWS V14.01,2013-05-08 01:47:00,
2013-05-07 21:48:00,60.2,59.1,29.97,East,90,0.0,0.0,96,0.00,,---,0.00,VWS V14.01,2013-05-08 01:48:00,
2013-05-07 21:49:00,60.2,59.1,29.97,East,90,0.0,0.0,96,0.00,,---,0.00,VWS V14.01,2013-05-08 01:49:00,
2013-05-07 21:50:00,60.2,59.1,29.97,East,90,0.0,0.0,96,0.00,,---,0.00,VWS V14.01,2013-05-08 01:50:00,
2013-05-07 21:51:00,60.2,59.1,29.97,East,90,0.0,0.0,96,0.00,,---,0.00,VWS V14.01,2013-05-08 01:51:00,
2013-05-07 21:52:00,60.2,59.1,29.97,East,90,0.0,0.0,96,0.00,,---,0.00,VWS V14.01,2013-05-08 01:52:00,
2013-05-07 21:53:00,60.2,59.1,29.97,East,90,0.0,0.0,96,0.00,,---,0.00,VWS V14.01,2013-05-08 01:53:00,
2013-05-07 21:54:00,60.2,59.1,29.97,East,90,0.0,0.0,96,0.00,,---,0.00,VWS V14.01,2013-05-08 01:54:00,
2013-05-07 21:55:00,60.2,59.1,29.97,East,90,0.0,0.0,96,0.00,,---,0.00,VWS V14.01,2013-05-08 01:55:00,
2013-05-07 21:56:00,60.2,59.1,29.97,East,90,0.0,0.0,96,0.00,,---,0.00,VWS V14.01,2013-05-08 01:56:00,
2013-05-07 21:57:00,60.2,59.1,29.97,East,90,0.0,0.0,96,0.00,,---,0.00,VWS V14.01,2013-05-08 01:57:00,
2013-05-07 21:58:00,60.2,59.1,29.97,East,90,0.0,0.0,96,0.00,,---,0.00,VWS V14.01,2013-05-08 01:58:00,
2013-05-07 21:59:00,60.2,59.1,29.97,East,90,0.0,0.0,96,0.00,,---,0.00,VWS V14.01,2013-05-08 01:59:00,
2013-05-07 22:00:00,60.2,59.1,29.97,East,90,0.0,0.0,96,0.00,,---,0.00,VWS V14.01,2013-05-08 02:00:00,
2013-05-07 22:01:00,60.2,59.1,29.97,East,90,0.0,0.0,96,0.00,,---,0.00,VWS V14.01,2013-05-08 02:01:00,
2013-05-07 22:02:00,60.2,59.1,29.97,East,90,0.0,0.0,96,0.00,,---,0.00,VWS V14.01,2013-05-08 02:02:00,
2013-05-07 22:03:00,60.2,59.1,29.97,East,90,0.0,0.0,96,0.00,,---,0.00,VWS V14.01,2013-05-08 02:03:00,
2013-05-07 22:04:00,60.2,59.1,29.97,East,90,0.0,0.0,96,0.00,,---,0.00,VWS V14.01,2013-05-08 02:04:00,
2013-05-07 22:05:00,60.2,59.1,29.97,East,90,0.0,0.0,96,0.00,,---,0.00,VWS V14.01,2013-05-08 02:05:00,
2013-05-07 22:06:00,60.1,59.0,29.97,East,90,0.0,0.0,96,0.00,,---,0.00,VWS V14.01,2013-05-08 02:06:00,
2013-05-07 22:07:00,60.2,59.1,29.97,East,90,0.0,0.0,96,0.00,,---,0.00,VWS V14.01,2013-05-08 02:07:00,
2013-05-07 22:08:00,60.2,59.1,29.97,East,90,0.0,0.0,96,0.00,,---,0.00,VWS V14.01,2013-05-08 02:08:00,
2013-05-07 22:09:00,60.1,59.0,29.97,East,90,0.0,0.0,96,0.00,,---,0.00,VWS V14.01,2013-05-08 02:09:00,
2013-05-07 22:10:00,60.2,59.3,29.97,East,90,0.0,0.0,97,0.00,,---,0.00,VWS V14.01,2013-05-08 02:10:00,
2013-05-07 22:11:00,60.1,59.2,29.97,East,90,0.0,0.0,97,0.00,,---,0.00,VWS V14.01,2013-05-08 02:11:00,
2013-05-07 22:12:00,60.1,59.2,29.97,East,90,0.0,0.0,97,0.00,,---,0.00,VWS V14.01,2013-05-08 02:12:00,
2013-05-07 22:13:00,60.2,59.3,29.97,East,90,0.0,0.0,97,0.00,,---,0.00,VWS V14.01,2013-05-08 02:13:00,
2013-05-07 22:14:00,60.2,59.3,29.97,East,90,0.0,0.0,97,0.00,,---,0.00,VWS V14.01,2013-05-08 02:14:00,
2013-05-07 22:15:00,60.2,59.3,29.97,East,90,0.0,0.0,97,0.00,,---,0.00,VWS V14.01,2013-05-08 02:15:00,
2013-05-07 22:16:00,60.2,59.3,29.97,East,90,0.0,0.0,97,0.00,,---,0.00,VWS V14.01,2013-05-08 02:16:00,
2013-05-07 22:17:00,60.1,59.2,29.97,East,90,0.0,0.0,97,0.00,,---,0.00,VWS V14.01,2013-05-08 02:17:00,
2013-05-07 22:18:00,60.2,59.3,29.97,East,90,0.0,0.0,97,0.00,,---,0.00,VWS V14.01,2013-05-08 02:18:00,
2013-05-07 22:19:00,60.2,59.3,29.97,East,90,0.0,0.0,97,0.00,,---,0.00,VWS V14.01,2013-05-08 02:19:00,
2013-05-07 22:20:00,60.2,59.3,29.97,East,90,0.0,0.0,97,0.00,,---,0.00,VWS V14.01,2013-05-08 02:20:00,
2013-05-07 22:21:00,60.2,59.3,29.97,East,90,0.0,0.0,97,0.00,,---,0.00,VWS V14.01,2013-05-08 02:21:00,
2013-05-07 22:22:00,60.1,59.2,29.97,East,90,0.0,0.0,97,0.00,,---,0.00,VWS V14.01,2013-05-08 02:22:00,
2013-05-07 22:23:00,60.1,59.2,29.97,East,90,0.0,0.0,97,0.00,,---,0.00,VWS V14.01,2013-05-08 02:23:00,
2013-05-07 22:24:00,60.1,59.2,29.97,East,90,0.0,0.0,97,0.00,,---,0.00,VWS V14.01,2013-05-08 02:24:00,
2013-05-07 22:25:00,60.1,59.2,29.97,East,90,0.0,0.0,97,0.00,,---,0.00,VWS V14.01,2013-05-08 02:25:00,
2013-05-07 22:26:00,60.1,59.2,29.97,East,90,0.0,0.0,97,0.00,,---,0.00,VWS V14.01,2013-05-08 02:26:00,
2013-05-07 22:27:00,60.1,59.2,29.97,East,90,0.0,0.0,97,0.00,,---,0.00,VWS V14.01,2013-05-08 02:27:00,
2013-05-07 22:28:00,60.1,59.2,29.97,East,90,0.0,0.0,97,0.00,,---,0.00,VWS V14.01,2013-05-08 02:28:00,
2013-05-07 22:29:00,60.1,59.2,29.97,East,90,0.0,0.0,97,0.00,,---,0.00,VWS V14.01,2013-05-08 02:29:00,
2013-05-07 22:30:00,60.1,59.2,29.97,East,90,0.0,0.0,97,0.00,,---,0.00,VWS V14.01,2013-05-08 02:30:00,
2013-05-07 22:31:00,60.0,59.2,29.97,East,90,0.0,0.0,97,0.00,,---,0.00,VWS V14.01,2013-05-08 02:31:00,
2013-05-07 22:32:00,60.0,59.2,29.97,East,90,0.0,0.0,97,0.00,,---,0.00,VWS V14.01,2013-05-08 02:32:00,
2013-05-07 22:33:00,60.0,59.2,29.97,East,90,0.0,0.0,97,0.00,,---,0.00,VWS V14.01,2013-05-08 02:33:00,
2013-05-07 22:34:00,60.0,58.9,29.97,East,90,0.0,0.0,96,0.00,,---,0.00,VWS V14.01,2013-05-08 02:34:00,
2013-05-07 22:35:00,59.9,58.8,29.97,East,90,0.0,0.0,96,0.00,,---,0.00,VWS V14.01,2013-05-08 02:35:00,
2013-05-07 22:36:00,59.9,58.8,29.97,East,90,0.0,0.0,96,0.00,,---,0.00,VWS V14.01,2013-05-08 02:36:00,
2013-05-07 22:37:00,59.9,58.8,29.97,East,90,0.0,0.0,96,0.00,,---,0.00,VWS V14.01,2013-05-08 02:37:00,
2013-05-07 22:38:00,59.8,58.7,29.97,East,90,0.0,0.0,96,0.00,,---,0.00,VWS V14.01,2013-05-08 02:38:00,
2013-05-07 22:39:00,59.8,58.7,29.97,East,90,0.0,0.0,96,0.00,,---,0.00,VWS V14.01,2013-05-08 02:39:00,
2013-05-07 22:40:00,59.8,58.7,29.97,East,90,0.0,0.0,96,0.00,,---,0.00,VWS V14.01,2013-05-08 02:40:00,
2013-05-07 22:41:00,59.8,58.7,29.97,East,90,0.0,0.0,96,0.00,,---,0.00,VWS V14.01,2013-05-08 02:41:00,
2013-05-07 22:42:00,59.8,58.7,29.97,East,90,0.0,0.0,96,0.00,,---,0.00,VWS V14.01,2013-05-08 02:42:00,
2013-05-07 22:43:00,59.8,58.7,29.97,East,90,0.0,0.0,96,0.00,,---,0.00,VWS V14.01,2013-05-08 02:43:00,
2013-05-07 22:44:00,59.8,58.7,29.97,East,90,0.0,0.0,96,0.00,,---,0.00,VWS V14.01,2013-05-08 02:44:00,
2013-05-07 22:45:00,59.7,58.6,29.97,East,90,0.0,0.0,96,0.00,,---,0.00,VWS V14.01,2013-05-08 02:45:00,
2013-05-07 22:46:00,59.7,58.6,29.97,East,90,0.0,0.0,96,0.00,,---,0.00,VWS V14.01,2013-05-08 02:46:00,
2013-05-07 22:47:00,59.7,58.6,29.97,East,90,0.0,0.0,96,0.00,,---,0.00,VWS V14.01,2013-05-08 02:47:00,
2013-05-07 22:48:00,59.7,58.6,29.97,East,90,0.0,0.0,96,0.00,,---,0.00,VWS V14.01,2013-05-08 02:48:00,
2013-05-07 22:49:00,59.7,58.6,29.97,East,90,0.0,0.0,96,0.00,,---,0.00,VWS V14.01,2013-05-08 02:49:00,
2013-05-07 22:50:00,59.6,58.5,29.97,East,90,0.0,0.0,96,0.00,,---,0.00,VWS V14.01,2013-05-08 02:50:00,
2013-05-07 22:51:00,59.6,58.5,29.97,East,90,0.0,0.0,96,0.00,,---,0.00,VWS V14.01,2013-05-08 02:51:00,
2013-05-07 22:52:00,59.6,58.5,29.97,East,90,0.0,0.0,96,0.00,,---,0.00,VWS V14.01,2013-05-08 02:52:00,
2013-05-07 22:53:00,59.6,58.8,29.97,East,90,0.0,0.0,97,0.00,,---,0.00,VWS V14.01,2013-05-08 02:53:00,
2013-05-07 22:54:00,59.6,58.8,29.97,East,90,0.0,0.0,97,0.00,,---,0.00,VWS V14.01,2013-05-08 02:54:00,
2013-05-07 22:55:00,59.6,58.8,29.97,East,90,0.0,0.0,97,0.00,,---,0.00,VWS V14.01,2013-05-08 02:55:00,
2013-05-07 22:56:00,59.6,58.8,29.97,East,90,0.0,0.0,97,0.00,,---,0.00,VWS V14.01,2013-05-08 02:56:00,
2013-05-07 22:57:00,59.6,58.8,29.97,East,90,0.0,0.0,97,0.00,,---,0.00,VWS V14.01,2013-05-08 02:57:00,
2013-05-07 22:58:00,59.6,58.8,29.97,East,90,0.0,0.0,97,0.00,,---,0.00,VWS V14.01,2013-05-08 02:58:00,
2013-05-07 22:59:00,59.6,58.8,29.97,East,90,0.0,0.0,97,0.00,,---,0.00,VWS V14.01,2013-05-08 02:59:00,
2013-05-07 23:00:00,59.6,58.8,29.97,East,90,0.0,0.0,97,0.00,,---,0.00,VWS V14.01,2013-05-08 03:00:00,
2013-05-07 23:01:00,59.6,58.8,29.97,East,90,0.0,0.0,97,0.00,,---,0.00,VWS V14.01,2013-05-08 03:01:00,
2013-05-07 23:02:00,59.6,58.8,29.97,East,90,0.0,0.0,97,0.00,,---,0.00,VWS V14.01,2013-05-08 03:02:00,
2013-05-07 23:03:00,59.6,58.8,29.97,East,90,0.0,0.0,97,0.00,,---,0.00,VWS V14.01,2013-05-08 03:03:00,
2013-05-07 23:04:00,59.6,58.8,29.97,East,90,0.0,0.0,97,0.00,,---,0.00,VWS V14.01,2013-05-08 03:04:00,
2013-05-07 23:05:00,59.5,58.7,29.97,East,90,0.0,0.0,97,0.00,,---,0.00,VWS V14.01,2013-05-08 03:05:00,
2013-05-07 23:06:00,59.5,58.7,29.97,East,90,0.0,0.0,97,0.00,,---,0.00,VWS V14.01,2013-05-08 03:06:00,
2013-05-07 23:07:00,59.5,58.7,29.97,East,90,0.0,0.0,97,0.00,,---,0.00,VWS V14.01,2013-05-08 03:07:00,
2013-05-07 23:08:00,59.5,58.7,29.97,East,90,0.0,0.0,97,0.00,,---,0.00,VWS V14.01,2013-05-08 03:08:00,
2013-05-07 23:09:00,59.5,58.7,29.97,East,90,0.0,0.0,97,0.00,,---,0.00,VWS V14.01,2013-05-08 03:09:00,
2013-05-07 23:10:00,59.4,58.5,29.97,East,90,0.0,0.0,97,0.00,,---,0.00,VWS V14.01,2013-05-08 03:10:00,
2013-05-07 23:11:00,59.4,58.5,29.97,East,90,0.0,0.0,97,0.00,,---,0.00,VWS V14.01,2013-05-08 03:11:00,
2013-05-07 23:12:00,59.4,58.5,29.97,East,90,0.0,0.0,97,0.00,,---,0.00,VWS V14.01,2013-05-08 03:12:00,
2013-05-07 23:13:00,59.4,58.5,29.97,East,90,0.0,0.0,97,0.00,,---,0.00,VWS V14.01,2013-05-08 03:13:00,
2013-05-07 23:14:00,59.4,58.5,29.97,East,90,0.0,0.0,97,0.00,,---,0.00,VWS V14.01,2013-05-08 03:14:00,
2013-05-07 23:15:00,59.4,58.5,29.97,East,90,0.0,0.0,97,0.00,,---,0.00,VWS V14.01,2013-05-08 03:15:00,
2013-05-07 23:16:00,59.3,58.5,29.97,East,90,0.0,0.0,97,0.00,,---,0.00,VWS V14.01,2013-05-08 03:16:00,
2013-05-07 23:17:00,59.3,58.5,29.97,East,90,0.0,0.0,97,0.00,,---,0.00,VWS V14.01,2013-05-08 03:17:00,
2013-05-07 23:18:00,59.3,58.5,29.97,East,90,0.0,0.0,97,0.00,,---,0.00,VWS V14.01,2013-05-08 03:18:00,
2013-05-07 23:19:00,59.3,58.5,29.97,East,90,0.0,0.0,97,0.00,,---,0.00,VWS V14.01,2013-05-08 03:19:00,
2013-05-07 23:20:00,59.3,58.5,29.97,East,90,0.0,0.0,97,0.00,,---,0.00,VWS V14.01,2013-05-08 03:20:00,
2013-05-07 23:21:00,59.2,58.3,29.97,East,90,0.0,0.0,97,0.00,,---,0.00,VWS V14.01,2013-05-08 03:21:00,
2013-05-07 23:22:00,59.2,58.3,29.97,East,90,0.0,0.0,97,0.00,,---,0.00,VWS V14.01,2013-05-08 03:22:00,
2013-05-07 23:23:00,59.2,58.3,29.97,East,90,0.0,0.0,97,0.00,,---,0.00,VWS V14.01,2013-05-08 03:23:00,
2013-05-07 23:24:00,59.1,58.2,29.97,East,90,0.0,0.0,97,0.00,,---,0.00,VWS V14.01,2013-05-08 03:24:00,
2013-05-07 23:25:00,59.1,58.2,29.97,East,90,0.0,0.0,97,0.00,,---,0.00,VWS V14.01,2013-05-08 03:25:00,
2013-05-07 23:26:00,59.1,58.2,29.97,East,90,0.0,0.0,97,0.00,,---,0.00,VWS V14.01,2013-05-08 03:26:00,
2013-05-07 23:27:00,59.1,58.2,29.97,East,90,0.0,0.0,97,0.00,,---,0.00,VWS V14.01,2013-05-08 03:27:00,
2013-05-07 23:28:00,59.1,58.2,29.97,East,90,0.0,0.0,97,0.00,,---,0.00,VWS V14.01,2013-05-08 03:28:00,
2013-05-07 23:29:00,59.0,58.2,29.97,East,90,0.0,0.0,97,0.00,,---,0.00,VWS V14.01,2013-05-08 03:29:00,
2013-05-07 23:30:00,59.0,58.2,29.97,East,90,0.0,0.0,97,0.00,,---,0.00,VWS V14.01,2013-05-08 03:30:00,
2013-05-07 23:31:00,59.0,58.2,29.97,East,90,0.0,0.0,97,0.00,,---,0.00,VWS V14.01,2013-05-08 03:31:00,
2013-05-07 23:32:00,59.0,58.2,29.97,East,90,0.0,0.0,97,0.00,,---,0.00,VWS V14.01,2013-05-08 03:32:00,
2013-05-07 23:33:00,59.0,58.2,29.97,East,90,0.0,0.0,97,0.00,,---,0.00,VWS V14.01,2013-05-08 03:33:00,
2013-05-07 23:34:00,58.9,58.0,29.97,East,90,0.0,0.0,97,0.00,,---,0.00,VWS V14.01,2013-05-08 03:34:00,
2013-05-07 23:35:00,58.9,58.0,29.97,East,90,0.0,0.0,97,0.00,,---,0.00,VWS V14.01,2013-05-08 03:35:00,
2013-05-07 23:36:00,58.9,58.0,29.97,East,90,0.0,0.0,97,0.00,,---,0.00,VWS V14.01,2013-05-08 03:36:00,
2013-05-07 23:37:00,58.9,58.0,29.97,East,90,0.0,0.0,97,0.00,,---,0.00,VWS V14.01,2013-05-08 03:37:00,
2013-05-07 23:38:00,58.9,58.0,29.97,East,90,0.0,0.0,97,0.00,,---,0.00,VWS V14.01,2013-05-08 03:38:00,
2013-05-07 23:39:00,58.8,58.0,29.97,East,90,0.0,0.0,97,0.00,,---,0.00,VWS V14.01,2013-05-08 03:39:00,
2013-05-07 23:40:00,58.8,58.0,29.97,East,90,0.0,0.0,97,0.00,,---,0.00,VWS V14.01,2013-05-08 03:40:00,
2013-05-07 23:41:00,58.7,57.8,29.97,East,90,0.0,0.0,97,0.00,,---,0.00,VWS V14.01,2013-05-08 03:41:00,
2013-05-07 23:42:00,58.7,57.8,29.97,East,90,0.0,0.0,97,0.00,,---,0.00,VWS V14.01,2013-05-08 03:42:00,
2013-05-07 23:43:00,58.7,57.8,29.97,East,90,0.0,0.0,97,0.00,,---,0.00,VWS V14.01,2013-05-08 03:43:00,
2013-05-07 23:44:00,58.7,57.8,29.97,East,90,0.0,0.0,97,0.00,,---,0.00,VWS V14.01,2013-05-08 03:44:00,
2013-05-07 23:45:00,58.6,57.8,29.97,East,90,0.0,0.0,97,0.00,,---,0.00,VWS V14.01,2013-05-08 03:45:00,
2013-05-07 23:46:00,58.6,57.8,29.97,East,90,0.0,0.0,97,0.00,,---,0.00,VWS V14.01,2013-05-08 03:46:00,
2013-05-07 23:47:00,58.6,57.8,29.97,East,90,0.0,0.0,97,0.00,,---,0.00,VWS V14.01,2013-05-08 03:47:00,
2013-05-07 23:48:00,58.6,57.8,29.97,East,90,0.0,0.0,97,0.00,,---,0.00,VWS V14.01,2013-05-08 03:48:00,
2013-05-07 23:49:00,58.6,57.8,29.97,East,90,0.0,0.0,97,0.00,,---,0.00,VWS V14.01,2013-05-08 03:49:00,
2013-05-07 23:50:00,58.6,57.8,29.97,East,90,0.0,0.0,97,0.00,,---,0.00,VWS V14.01,2013-05-08 03:50:00,
2013-05-07 23:51:00,58.6,57.8,29.97,East,90,0.0,0.0,97,0.00,,---,0.00,VWS V14.01,2013-05-08 03:51:00,
2013-05-07 23:52:00,58.6,57.8,29.97,East,90,0.0,0.0,97,0.00,,---,0.00,VWS V14.01,2013-05-08 03:52:00,
2013-05-07 23:53:00,58.6,57.8,29.97,East,90,0.0,0.0,97,0.00,,---,0.00,VWS V14.01,2013-05-08 03:53:00,
2013-05-07 23:54:00,58.6,57.8,29.97,East,90,0.0,0.0,97,0.00,,---,0.00,VWS V14.01,2013-05-08 03:54:00,
2013-05-07 23:55:00,58.6,57.8,29.97,East,90,0.0,0.0,97,0.00,,---,0.00,VWS V14.01,2013-05-08 03:55:00,
2013-05-07 23:56:00,58.6,57.8,29.97,East,90,0.0,0.0,97,0.00,,---,0.00,VWS V14.01,2013-05-08 03:56:00,
2013-05-07 23:57:00,58.6,57.8,29.97,East,90,0.0,0.0,97,0.00,,---,0.00,VWS V14.01,2013-05-08 03:57:00,
2013-05-07 23:58:00,58.5,57.7,29.97,East,90,0.0,0.0,97,0.00,,---,0.00,VWS V14.01,2013-05-08 03:58:00,
2013-05-07 23:59:00,58.5,57.7,29.97,East,90,0.0,0.0,97,0.00,,---,0.00,VWS V14.01,2013-05-08 03:59:00,